GFSNGP_700_spd_000.txt.gz
Wind_Speed
29 27 26 31 38 38 34 46 40 55 47 43 39 41 42 39 39 53 55 52 47 49 45 43 40 39 39 38 39 41 39 37 34 35 37 41 44 48 48 46 45 45 46 46
37 30 24 28 40 39 36 39 43 49 56 36 39 36 35 35 45 54 55 50 53 52 44 40 36 35 37 38 40 40 35 33 31 35 39 42 45 48 46 46 44 45 45 47
21 15 20 23 15 24 26 25 32 35 38 34 36 32 38 50 51 50 55 60 54 43 40 38 33 34 34 39 40 30 29 28 33 37 41 42 47 47 46 44 44 45 46 48
24 25 7 12 31 32 34 30 30 31 34 29 30 37 46 45 47 53 59 50 45 45 42 38 34 34 37 38 26 25 23 29 36 39 42 44 48 46 44 45 45 45 46 46
11 18 36 20 23 28 37 37 32 25 20 32 43 60 50 45 52 54 56 48 45 44 39 36 31 33 39 25 21 20 26 32 37 40 41 45 45 44 45 46 45 44 43 46
25 17 16 27 36 25 27 27 8 23 39 61 55 50 57 49 54 60 49 46 46 39 35 33 34 28 21 19 19 23 28 33 36 39 43 42 43 43 44 45 43 41 43 43
37 30 26 24 32 25 11 27 38 52 49 43 48 50 54 53 51 48 48 50 40 33 32 28 22 21 18 18 22 25 30 34 38 38 40 41 41 42 43 41 39 41 42 35
22 18 19 20 24 29 37 50 48 49 48 49 52 54 52 56 45 54 51 40 33 29 25 21 22 17 17 21 24 28 31 36 36 37 39 40 40 41 39 38 40 41 38 28
36 36 39 46 50 49 44 48 50 49 47 52 58 51 57 47 54 49 42 34 28 23 21 19 17 17 20 22 25 29 32 34 35 36 37 38 40 38 35 37 40 40 31 27
48 51 49 48 49 47 46 49 49 51 57 49 56 52 53 53 53 52 36 30 24 20 18 17 17 20 21 23 26 30 31 33 34 35 35 36 35 33 35 37 40 34 27 26
53 54 59 45 45 48 48 45 46 49 49 54 45 54 55 53 51 37 30 25 19 17 16 17 19 21 22 25 28 30 30 31 33 33 34 32 30 31 33 35 39 31 26 26
60 55 50 55 47 41 46 47 48 49 48 47 50 52 52 51 42 31 24 20 16 14 15 19 20 23 25 26 28 28 29 31 31 32 31 30 29 28 30 34 33 24 21 21
52 45 46 46 44 42 45 46 46 47 48 50 51 49 50 46 32 23 19 17 14 15 18 20 22 24 25 26 26 26 28 28 30 30 29 28 28 29 29 30 27 19 16 14
41 39 42 37 42 43 45 45 46 49 53 50 49 48 45 31 22 18 14 14 15 17 19 21 22 24 24 23 24 26 26 27 28 28 28 27 27 27 29 31 22 11 8 7
31 33 36 39 42 42 42 47 49 51 52 47 41 39 29 19 15 12 14 15 17 18 20 21 22 23 21 21 24 25 25 26 26 26 27 26 25 25 27 28 20 10 5 6
31 33 36 37 37 42 46 45 42 41 38 34 31 27 18 13 12 15 16 17 18 18 20 21 20 19 20 22 24 24 24 23 23 24 26 24 23 22 24 24 18 8 2 2
30 30 33 38 42 44 44 42 36 34 30 26 23 17 12 11 14 16 17 17 17 18 20 20 19 20 22 22 23 22 21 23 22 23 26 24 21 20 21 21 17 6 1 1
29 27 36 41 44 43 39 36 33 25 21 18 15 12 11 13 16 17 16 15 17 19 20 20 20 20 21 23 21 20 20 22 21 21 23 23 20 18 17 18 15 6 1 2
35 37 41 44 41 38 35 31 24 19 16 12 11 12 14 16 17 16 14 15 16 18 19 20 19 20 22 21 18 19 19 21 20 19 21 21 18 16 15 14 12 7 1 2
38 41 42 38 34 32 25 21 18 13 11 12 14 16 16 16 16 14 13 14 16 17 18 19 21 23 21 18 17 17 18 20 18 18 18 19 18 15 13 11 10 7 2 2
40 42 37 36 33 25 18 18 14 10 13 15 16 16 15 14 13 13 14 16 18 20 22 23 23 22 19 17 16 16 18 18 15 16 16 16 16 14 12 10 9 7 4 1
41 44 41 37 32 23 16 19 9 12 15 16 15 14 13 13 13 15 18 20 22 23 24 24 22 21 18 15 14 15 17 14 14 15 14 13 13 12 12 10 8 7 6 4
43 41 38 35 29 21 20 10 9 15 15 13 12 12 13 15 17 18 20 22 24 24 24 22 21 17 14 12 12 14 14 12 12 13 13 12 11 10 10 10 9 8 6 6
39 34 30 30 23 19 13 6 11 14 13 12 12 14 16 17 19 20 22 23 22 22 21 19 16 11 10 10 11 12 10 10 11 12 11 10 10 9 8 8 8 8 8 7
35 28 26 25 21 13 6 6 12 12 12 12 14 16 18 19 21 22 22 21 20 19 18 14 10 8 7 9 10 10 8 8 10 11 11 9 9 9 8 7 7 6 6 6
23 23 23 22 14 9 4 9 10 11 12 14 16 17 19 22 21 21 20 18 17 16 13 10 7 7 8 9 10 9 7 7 9 10 10 9 8 7 8 8 7 7 6 7
21 20 18 16 10 3 6 9 10 11 13 14 15 19 20 20 19 18 16 15 14 13 12 10 10 9 8 8 9 8 6 7 8 10 10 9 8 8 7 6 6 6 6 6

GFSNGP_700_spd_003.txt.gz
Wind_Speed
27 28 28 31 35 39 36 40 41 59 46 49 43 40 36 33 31 28 39 40 40 51 53 47 46 44 45 44 44 40 40 42 42 42 43 36 36 37 42 46 48 52 51 47
36 32 24 28 34 40 34 36 40 43 49 35 35 33 35 29 30 44 45 41 45 49 52 47 43 44 43 41 39 37 39 43 43 36 32 32 36 41 45 48 51 49 46 45
25 21 22 25 16 17 22 26 32 39 41 37 31 27 26 37 44 43 44 39 52 49 47 47 47 44 40 32 29 30 39 41 29 29 30 35 41 45 47 50 49 46 45 46
22 20 8 11 26 26 21 29 28 32 30 28 24 34 44 43 44 45 51 52 52 52 49 46 42 41 35 35 34 40 39 28 26 28 32 39 42 45 48 46 46 45 46 46
14 22 33 28 14 27 26 29 28 21 17 24 43 49 49 43 41 56 55 47 47 51 48 44 38 35 35 35 35 27 24 25 26 30 37 41 44 43 44 45 44 46 44 41
25 20 13 19 30 21 25 29 16 23 35 48 45 44 47 51 55 49 53 48 52 50 47 39 34 32 28 24 22 23 25 26 30 35 40 43 42 42 43 43 46 42 39 42
34 26 26 24 26 24 17 27 27 40 49 46 47 45 50 52 54 52 47 51 50 46 37 34 30 26 23 23 22 23 25 29 34 37 40 40 41 41 42 44 41 37 39 41
20 18 18 13 22 25 37 58 50 45 49 51 49 50 54 54 50 58 56 53 53 44 36 28 22 22 21 15 22 26 29 32 35 37 36 38 40 40 41 38 38 39 39 39
31 31 35 40 48 44 45 47 50 43 46 49 53 57 53 52 53 56 54 55 50 38 30 20 21 20 18 22 25 28 30 33 34 34 35 37 39 39 36 36 38 39 41 33
47 48 39 48 45 40 39 43 46 43 49 51 51 51 53 53 55 54 54 53 39 30 21 20 21 19 22 25 27 29 31 32 31 32 34 35 36 35 34 35 38 38 39 26
57 46 50 43 36 44 46 43 41 47 47 49 49 49 54 54 53 53 50 37 27 22 21 21 20 23 26 27 28 30 30 30 30 32 33 34 33 33 31 32 36 38 31 23
57 50 39 49 46 46 44 46 43 43 45 46 40 53 54 52 49 45 38 25 20 21 21 20 22 25 27 28 29 29 28 29 31 32 33 33 32 31 30 30 31 32 22 18
49 43 44 43 47 41 37 41 41 42 47 52 55 52 50 48 42 38 23 19 21 20 20 22 24 26 27 28 28 26 26 28 30 31 31 31 31 30 28 27 29 26 18 13
33 37 40 38 36 35 38 40 44 49 51 54 53 53 47 39 36 24 15 19 19 20 22 24 25 26 28 28 25 25 27 29 30 29 29 29 31 28 26 28 27 18 12 10
32 34 34 35 36 34 38 45 52 52 54 53 49 45 37 35 24 19 19 18 21 23 24 24 25 27 27 25 26 27 28 28 28 28 28 28 30 26 23 24 24 17 9 10
38 36 30 28 32 38 47 49 50 51 50 46 40 34 31 24 21 19 18 20 23 24 22 23 25 26 25 26 26 27 28 27 25 27 26 27 28 25 22 22 21 15 9 8
28 24 27 33 36 40 44 47 46 43 40 33 29 28 25 22 19 18 20 23 23 21 21 23 24 25 25 24 25 27 25 24 24 26 25 25 26 23 20 19 18 13 8 7
20 26 32 37 42 45 44 43 41 37 29 25 23 22 20 18 18 21 23 23 21 21 21 23 24 24 24 25 26 24 23 22 23 24 23 24 24 22 18 16 15 12 7 6
29 34 39 40 42 42 42 40 38 33 25 18 16 17 18 20 22 23 22 20 20 21 22 23 25 26 27 25 23 22 20 20 22 22 22 22 22 21 17 13 12 11 6 5
38 38 40 43 43 44 39 37 30 29 23 17 18 19 21 22 22 20 20 20 21 22 24 27 28 28 26 23 21 20 19 20 21 19 20 20 18 19 16 11 11 10 7 5
45 47 48 46 46 42 38 37 30 27 21 17 18 19 21 20 19 19 20 21 23 23 26 27 27 26 23 21 19 17 17 19 18 18 19 18 16 16 14 12 10 10 7 5
50 52 49 46 43 41 37 36 30 25 16 17 16 19 18 18 18 19 21 22 24 25 26 26 25 23 21 21 17 17 17 17 15 17 17 16 15 14 13 11 10 9 8 5
46 44 43 40 38 36 34 33 26 17 14 13 17 17 17 19 20 20 21 23 23 25 23 23 22 20 16 13 15 16 16 14 14 16 15 14 13 12 11 10 9 9 8 7
48 44 39 32 34 31 29 26 17 14 9 14 16 17 18 19 19 21 23 23 22 21 21 20 18 14 12 11 13 14 14 12 13 15 14 13 12 11 10 9 8 8 7 7
41 41 35 34 27 24 22 17 14 8 11 14 15 16 16 18 20 22 22 20 18 17 17 16 14 12 11 12 13 13 13 12 12 13 14 12 11 10 9 8 7 7 7 6
40 37 32 23 21 20 18 14 9 9 12 14 15 14 16 17 18 20 19 18 16 16 15 14 13 13 14 13 12 12 13 12 12 13 13 12 10 9 8 7 7 7 6 6
33 26 20 19 17 17 15 9 9 11 13 14 13 14 15 15 17 19 18 18 17 16 15 14 14 13 13 12 12 13 12 12 12 12 12 11 9 9 7 6 5 5 5 5

GFSNGP_700_spd_006.txt.gz
Wind_Speed
24 26 26 31 33 34 37 39 37 47 39 41 37 37 34 32 35 27 29 38 56 45 44 53 51 52 48 47 49 47 46 41 37 40 38 38 43 34 34 35 39 43 46 47
35 36 27 28 35 44 36 29 27 31 37 36 35 34 33 28 33 43 53 57 53 44 54 50 48 51 48 46 43 40 42 41 36 32 34 36 29 33 34 40 43 45 46 45
28 30 30 31 22 20 22 28 29 31 40 39 33 28 30 39 50 58 47 50 53 53 54 48 49 51 48 46 44 41 39 36 34 34 35 31 33 33 38 42 45 45 44 44
25 29 7 11 18 29 25 22 27 36 37 30 27 35 41 53 48 51 51 49 53 50 53 54 51 48 45 36 37 37 34 37 39 32 32 31 34 37 41 44 44 44 43 44
15 22 34 27 20 18 31 31 31 20 17 24 40 49 55 39 51 48 51 51 49 51 49 52 52 45 37 35 31 31 34 30 28 30 30 33 38 40 41 42 43 42 43 40
27 25 15 23 35 20 23 31 19 22 49 37 46 52 60 46 50 57 49 49 51 53 53 54 49 39 33 27 23 20 24 24 27 30 34 36 39 39 39 40 41 42 39 38
33 26 26 31 28 21 17 20 52 51 41 60 50 46 49 57 54 53 53 52 52 53 52 49 38 30 22 19 16 19 25 28 30 33 35 37 37 37 39 40 40 39 38 39
26 19 20 12 24 29 49 53 48 60 51 52 47 35 50 51 55 50 54 56 53 51 50 38 28 21 19 17 21 23 27 32 33 34 35 34 36 36 37 38 38 38 39 39
31 30 49 50 49 50 50 51 48 43 44 41 51 53 49 52 53 54 57 51 49 47 40 28 23 23 22 21 23 27 30 31 33 32 32 33 35 36 37 37 37 37 39 39
43 50 49 48 42 42 42 44 49 32 44 50 42 45 47 55 52 55 54 51 46 38 26 23 23 23 22 24 26 28 30 31 31 31 32 33 34 35 36 36 36 36 38 36
54 49 44 43 47 47 42 45 37 41 46 44 41 48 52 54 55 54 49 42 36 25 20 20 23 24 26 27 29 30 31 31 30 30 32 33 33 34 35 34 34 35 36 29
45 41 45 50 40 38 42 35 47 32 36 41 47 52 53 54 52 49 41 34 22 17 22 22 22 26 30 30 31 31 30 29 30 31 33 33 33 32 33 32 28 30 31 23
50 35 36 41 43 42 38 49 23 30 40 48 51 54 57 56 52 39 31 17 14 22 22 22 24 27 29 29 30 30 29 30 30 31 32 31 32 32 34 28 24 26 25 17
31 36 35 35 36 38 28 25 30 38 47 50 55 58 61 55 40 29 21 21 24 23 24 26 27 27 28 30 31 30 29 29 30 30 30 30 31 31 32 28 25 23 19 13
38 40 40 41 42 38 36 34 41 46 52 55 55 57 52 39 28 24 24 24 23 23 24 27 26 26 28 30 30 29 29 29 29 28 29 30 30 29 30 26 23 23 16 11
45 33 30 38 37 34 37 41 49 53 51 51 54 48 40 32 27 26 26 23 23 26 29 27 25 26 27 28 29 29 30 31 28 28 28 29 28 27 28 24 21 20 16 10
35 36 29 29 33 38 44 47 46 46 47 49 45 39 32 28 26 24 24 26 28 29 27 25 25 26 28 29 30 30 30 28 26 26 27 27 26 26 26 23 19 18 14 10
33 28 27 35 42 45 45 44 42 44 44 44 41 34 27 25 25 24 26 29 28 25 25 24 26 28 30 31 31 29 27 25 24 25 26 25 25 24 24 21 17 16 13 9
30 38 43 47 49 49 48 48 46 44 40 40 41 33 25 25 26 24 27 26 24 24 24 26 28 29 30 30 29 27 25 22 22 24 23 23 23 22 21 20 16 15 13 8
46 51 51 49 47 46 46 46 42 40 37 39 40 29 24 25 22 25 23 23 24 25 26 28 29 29 29 27 24 24 22 21 22 21 21 22 22 20 19 18 15 16 12 9
50 48 48 47 44 45 45 45 40 36 36 38 32 24 22 19 23 22 23 24 25 25 26 27 28 27 27 26 24 20 19 20 21 19 21 21 20 18 17 16 15 14 13 9
46 49 43 41 43 45 42 36 34 34 34 30 22 19 16 20 20 22 24 24 25 26 25 25 24 25 24 21 18 17 18 19 17 18 20 20 18 17 15 14 14 14 12 11
47 46 45 46 46 41 36 33 32 29 24 20 17 14 17 18 20 21 22 25 25 23 22 21 22 21 18 17 16 16 17 17 16 17 19 19 17 16 14 13 12 12 11 10
46 43 42 41 41 37 34 29 24 20 17 15 13 15 16 17 18 21 19 20 21 21 19 19 19 18 17 17 17 17 17 17 16 17 18 18 16 15 13 12 11 11 9 9
41 37 38 38 37 32 26 19 17 16 13 12 13 14 15 16 17 15 17 19 21 20 18 18 18 18 17 18 18 16 16 17 16 17 18 17 16 14 12 11 10 9 9 8
41 40 38 37 34 24 18 16 16 14 12 12 13 14 15 16 15 15 17 19 20 20 19 17 17 18 17 18 17 16 17 16 16 16 16 16 15 14 12 10 9 8 8 7
37 35 34 33 24 18 16 14 15 13 11 13 15 14 15 16 14 14 17 19 20 19 19 18 18 19 19 18 17 16 16 16 15 15 15 15 14 13 12 10 9 8 7 6

GFSNGP_700_spd_009.txt.gz
Wind_Speed
26 24 26 29 33 38 36 40 36 42 31 32 29 32 32 32 37 45 46 47 53 55 50 48 49 48 50 51 51 52 47 48 50 45 39 38 39 35 32 30 32 34 37 39
31 32 29 25 42 39 20 14 30 35 39 28 31 36 36 36 36 45 46 56 46 46 51 49 49 50 51 52 50 44 41 44 45 39 40 41 34 30 27 29 34 38 39 39
30 29 26 24 18 20 27 31 26 30 28 28 31 27 30 33 42 54 51 46 50 50 48 48 50 51 50 49 45 42 35 37 35 35 39 31 34 32 31 35 37 38 37 38
27 27 4 13 24 29 27 19 31 39 36 31 33 38 42 45 46 45 42 49 51 48 48 51 49 48 49 46 41 35 30 28 29 30 30 30 30 32 34 36 36 35 36 37
11 11 26 29 20 18 28 36 33 32 32 35 41 53 56 51 42 36 56 48 48 51 51 49 49 49 47 39 31 26 24 22 23 26 27 31 33 34 35 34 34 35 36 37
22 14 7 30 26 26 27 34 23 27 44 62 57 48 49 40 42 48 43 48 51 51 52 53 48 48 37 28 26 25 22 22 21 27 31 34 35 33 33 34 35 36 37 37
28 17 17 30 10 28 24 35 50 47 51 49 47 47 40 44 43 45 45 49 49 50 52 49 47 38 26 24 23 23 20 20 25 31 34 33 32 32 33 34 35 36 36 36
18 11 13 4 35 39 47 46 44 45 50 48 48 42 42 38 42 45 49 50 52 53 51 46 38 28 24 23 23 20 24 27 29 31 31 30 31 32 33 33 34 35 36 33
29 32 42 46 42 38 35 42 43 42 46 42 46 36 35 40 45 48 50 53 54 53 45 35 27 24 23 22 24 25 27 29 29 29 28 28 31 33 33 33 33 35 34 32
39 47 48 42 40 41 35 35 40 46 43 40 39 37 39 43 47 50 52 52 47 40 34 24 21 23 23 23 24 26 28 28 28 27 28 30 31 32 31 32 33 35 33 31
47 46 42 41 42 40 42 46 41 45 49 36 30 39 42 47 49 50 48 42 32 27 20 19 24 24 25 25 26 27 27 28 28 28 30 30 31 30 30 31 34 36 32 31
45 43 40 48 44 45 48 42 41 42 42 31 39 46 49 49 50 48 42 34 27 19 18 21 22 23 26 29 28 28 28 29 29 29 29 30 29 28 29 29 31 30 28 28
43 47 32 38 42 26 29 38 36 36 37 39 45 49 50 50 48 40 34 31 26 23 26 25 24 24 27 25 25 26 28 30 29 30 31 29 28 29 30 26 27 27 24 24
39 29 38 32 39 40 37 36 33 38 43 49 52 50 45 45 42 37 31 30 28 27 25 23 25 26 26 26 26 27 29 30 29 30 27 26 28 29 29 29 28 22 20 19
27 31 34 41 37 34 32 33 38 44 47 46 43 44 45 44 39 35 29 26 27 26 25 26 27 24 24 25 27 29 31 31 30 28 26 27 28 28 28 27 27 22 18 14
43 46 43 35 32 30 34 38 46 48 44 44 44 44 42 39 37 32 29 26 25 25 28 26 24 23 24 27 29 30 31 30 28 26 26 26 27 26 26 25 25 19 17 12
33 31 22 27 32 38 45 49 49 46 42 41 41 40 39 37 35 30 28 27 26 27 25 23 22 23 26 28 30 31 29 27 25 23 24 26 25 25 25 23 23 17 16 12
23 24 24 33 42 46 44 43 45 43 42 41 38 34 38 38 34 29 27 24 25 23 23 23 24 26 28 29 29 28 26 25 22 22 24 22 24 24 23 21 20 17 14 11
22 27 35 43 48 47 46 43 40 42 42 41 35 34 37 35 30 26 22 24 23 23 23 24 26 26 28 26 26 25 24 21 21 22 21 22 23 22 21 19 17 18 15 11
31 40 47 51 53 48 45 41 44 43 40 36 32 34 34 29 24 19 21 22 24 25 26 27 26 26 26 25 24 20 17 19 21 20 20 22 22 21 19 18 17 17 17 12
46 51 55 54 46 45 43 42 42 41 39 34 33 30 27 22 16 18 19 21 22 25 26 24 22 22 23 22 19 17 17 18 19 18 20 22 21 20 19 17 17 16 15 15
54 51 47 48 46 45 40 38 40 40 34 31 25 23 18 15 15 17 18 20 21 20 21 19 19 20 20 19 17 17 17 18 18 18 20 21 20 19 18 18 16 15 15 14
46 46 45 45 42 38 37 36 37 37 30 23 20 17 13 13 15 16 17 17 17 18 18 18 18 19 18 18 19 18 17 17 18 17 19 20 20 18 17 17 15 15 14 12
44 43 42 41 38 36 35 34 34 28 20 18 15 12 11 13 15 15 16 15 16 18 18 18 17 17 17 18 19 19 17 18 18 17 17 19 18 17 16 16 14 12 11 11
43 42 40 39 34 33 34 33 27 21 16 15 13 10 12 13 14 15 15 14 15 17 18 18 17 17 18 18 19 18 18 17 17 17 18 17 18 16 16 15 13 12 11 10
37 36 35 30 30 29 32 28 20 16 14 13 11 10 13 14 14 15 14 14 16 17 17 16 16 17 18 20 19 17 17 17 17 16 16 16 16 16 15 14 13 12 11 10
34 33 31 29 27 28 26 20 16 13 12 11 11 12 14 14 15 15 14 15 17 17 16 16 17 18 18 20 20 16 16 17 17 16 15 15 14 14 12 12 11 10 9 8

GFSNGP_700_spd_012.txt.gz
Wind_Speed
21 19 20 29 31 29 31 28 27 33 29 33 33 28 29 34 35 39 44 46 47 49 45 47 49 46 47 50 51 50 49 48 44 42 40 43 40 38 37 29 26 28 32 34
27 25 21 30 28 17 17 18 28 30 38 31 31 34 31 36 40 46 52 50 44 41 50 46 44 48 47 48 49 50 49 43 36 32 34 39 35 32 33 33 31 31 34 36
11 18 21 25 9 17 23 27 27 25 33 36 35 33 39 45 49 53 51 38 41 40 43 44 46 48 50 51 49 47 41 32 25 21 26 31 33 33 32 33 33 35 36 35
14 18 4 15 22 24 21 21 25 31 38 40 40 44 52 51 44 46 45 38 36 40 45 45 49 50 51 50 47 40 30 23 22 22 24 27 30 32 34 35 35 35 35 35
8 8 22 29 16 14 23 23 29 17 27 35 42 52 50 42 41 44 35 34 35 39 45 49 51 51 51 47 38 29 26 25 25 25 27 27 32 36 36 35 34 34 35 36
20 9 5 21 19 18 16 32 21 44 43 42 42 48 47 52 41 39 34 38 41 47 51 52 51 50 46 39 29 26 25 25 22 22 27 32 35 35 33 33 34 35 35 35
27 24 18 29 23 16 18 33 47 41 40 44 42 40 50 40 47 41 39 42 46 47 48 48 48 45 37 30 26 23 22 21 25 26 31 32 32 32 32 33 34 35 34 34
17 12 14 14 15 32 46 54 42 45 43 44 47 53 44 34 35 42 46 45 46 47 46 44 41 33 28 24 24 25 25 25 28 30 31 30 30 31 32 34 35 34 34 33
29 30 39 41 42 38 41 40 45 43 48 48 49 42 39 38 44 46 47 48 48 45 40 35 30 25 23 24 25 25 26 29 30 30 29 29 30 31 32 33 34 34 34 33
37 50 41 39 34 35 38 41 41 45 46 46 27 30 36 42 46 50 51 51 49 38 31 26 25 23 22 19 23 24 27 28 27 28 28 30 30 31 32 33 33 33 33 32
46 37 36 35 37 42 41 43 47 43 39 29 30 35 42 45 47 48 46 42 37 30 26 27 26 25 27 26 23 26 27 27 26 28 29 29 30 31 30 31 32 33 33 32
45 35 36 42 40 44 44 44 49 29 21 33 38 42 45 45 44 45 42 38 31 28 28 28 32 31 25 24 27 27 27 26 27 29 31 31 29 28 29 29 29 31 31 29
36 38 35 37 38 42 46 28 27 26 36 37 41 47 46 44 43 43 38 32 26 27 28 27 25 25 26 26 24 24 25 28 30 30 30 29 27 27 27 27 27 29 28 25
31 31 37 40 39 38 30 24 30 36 37 45 48 44 43 43 42 39 36 32 27 26 26 25 26 27 25 24 24 25 28 30 29 29 28 26 26 27 28 28 28 25 25 21
35 39 38 36 36 22 23 27 34 39 44 44 43 41 42 42 41 36 35 31 27 28 27 26 25 23 23 24 26 28 30 29 28 27 25 25 26 27 26 27 26 25 21 18
31 36 40 32 33 25 27 31 39 44 44 45 42 41 43 40 36 36 35 30 27 25 24 22 22 22 24 25 27 29 28 27 27 26 24 25 25 25 26 25 24 23 19 17
35 32 35 24 25 27 36 41 48 51 49 43 42 43 41 36 33 38 34 28 23 22 21 22 23 24 26 27 28 27 27 25 24 22 24 23 24 25 24 24 23 19 21 16
31 22 22 22 31 37 43 48 55 53 46 44 41 41 39 33 34 36 29 21 20 21 22 24 25 26 26 25 25 25 24 22 20 21 22 23 25 24 23 22 20 20 20 15
31 26 27 32 42 48 52 55 52 46 43 41 39 39 37 33 32 30 22 16 18 20 22 25 26 23 21 22 22 20 19 17 19 20 20 22 24 23 22 20 20 19 19 17
28 36 44 50 54 54 52 49 47 45 42 39 39 37 33 30 27 22 15 16 19 19 21 22 21 19 19 19 17 16 16 17 18 19 20 22 24 22 21 21 20 17 17 19
44 49 53 56 53 49 47 45 44 43 41 38 38 34 29 25 20 14 12 15 16 18 19 19 18 17 17 16 17 17 18 18 18 18 19 21 22 21 20 21 19 15 16 17
53 51 47 47 46 47 46 44 41 39 39 36 33 27 23 20 14 9 13 14 15 16 17 17 17 16 15 15 16 18 18 17 18 18 19 20 21 20 19 20 18 15 14 14
43 43 44 45 45 46 46 42 39 36 34 33 28 21 18 15 10 11 12 13 14 15 16 17 16 16 15 15 15 17 17 17 17 17 18 19 20 20 19 18 17 16 14 12
41 43 44 43 42 42 41 37 33 32 30 28 22 17 15 10 10 12 12 13 13 14 16 17 16 15 15 16 17 17 16 16 16 17 17 18 18 19 18 17 15 14 13 11
40 40 38 40 39 37 36 34 30 29 27 19 16 16 11 8 11 13 13 14 13 14 16 17 16 16 16 17 17 17 16 15 16 17 17 17 17 17 16 16 14 13 12 10
39 41 40 36 35 37 34 32 30 26 18 14 15 13 8 9 12 13 14 14 13 14 16 17 17 16 17 17 17 17 16 15 15 16 17 17 16 16 15 14 13 12 11 10
40 40 40 36 29 29 28 25 23 18 12 12 13 9 8 11 12 13 14 14 14 15 16 16 17 16 16 16 17 17 16 15 15 15 15 16 15 14 13 13 12 11 11 9

GFSNGP_700_spd_015.txt.gz
Wind_Speed
21 19 22 28 30 26 28 26 23 28 30 35 33 32 31 33 37 39 43 49 48 42 41 40 39 38 39 44 50 55 55 51 51 48 36 31 33 37 35 32 30 31 30 32
29 18 15 28 31 15 15 18 23 31 32 30 34 33 32 37 41 49 52 49 49 46 44 42 41 43 46 49 54 56 56 51 43 32 23 27 23 25 27 30 32 32 32 33
11 19 20 21 3 17 17 24 30 23 28 33 29 35 45 48 50 50 49 48 45 42 38 40 44 44 47 50 51 54 51 44 32 24 22 24 28 30 32 34 36 36 37 37
12 17 2 14 25 31 32 24 22 25 30 21 43 47 44 44 46 49 40 49 41 41 43 43 44 49 51 52 53 49 42 32 31 26 27 27 26 27 33 35 37 37 36 37
9 14 22 33 14 19 20 26 33 27 22 39 51 47 47 43 44 45 54 42 38 41 44 45 47 50 51 50 46 35 30 29 29 26 24 25 30 32 35 37 37 36 36 38
21 10 6 22 22 21 25 30 20 20 45 51 46 48 44 46 46 43 34 40 42 44 48 50 50 50 48 42 34 32 28 27 28 30 31 29 32 34 35 36 36 37 37 38
27 24 18 30 23 19 16 21 36 46 45 48 45 43 47 51 39 34 40 42 46 48 49 49 47 42 36 30 28 29 30 30 31 30 31 32 33 34 34 35 37 36 37 37
20 10 14 19 20 26 40 48 44 45 46 46 46 50 43 32 33 38 41 47 48 47 46 43 41 35 31 30 29 28 24 30 29 30 33 34 33 33 35 36 35 36 36 36
23 19 39 44 46 47 39 39 41 40 48 42 47 46 33 32 39 45 46 46 47 45 42 37 32 32 31 27 25 27 31 31 28 31 33 32 33 34 35 35 36 35 35 35
38 41 46 39 42 37 30 36 41 36 43 49 43 27 33 41 44 43 45 45 45 44 39 33 30 33 32 30 29 29 27 30 31 31 31 33 34 35 35 34 34 34 34 34
42 43 38 40 39 41 32 41 39 47 43 41 25 36 42 46 43 44 44 44 43 39 35 31 31 32 32 28 27 29 31 31 31 31 33 34 34 34 33 32 33 33 33 34
43 37 42 45 49 39 37 39 45 47 28 26 33 37 40 43 43 42 42 42 39 35 33 32 30 27 25 27 29 30 29 30 31 33 34 33 32 30 29 30 30 31 31 32
46 41 37 38 44 40 31 40 37 18 25 29 34 40 42 44 40 40 41 39 36 35 34 32 31 27 27 29 28 28 29 30 32 32 30 29 29 28 28 28 28 30 29 29
33 35 37 40 34 31 39 33 33 22 26 33 38 45 43 40 39 41 40 38 36 35 34 31 26 26 26 26 26 28 29 31 30 29 28 27 26 28 28 29 29 27 26 25
35 38 36 35 34 35 36 27 25 28 34 40 42 38 39 42 42 42 39 37 35 36 32 25 23 24 25 26 27 29 29 29 28 27 26 26 27 26 28 29 28 26 23 23
33 33 32 30 31 36 35 29 33 36 43 46 43 44 47 46 43 41 37 35 35 33 25 21 23 24 25 26 28 28 28 28 25 24 24 25 24 27 28 27 26 24 23 24
31 25 27 30 32 35 42 41 45 49 50 46 45 42 43 43 41 39 35 32 33 29 20 20 22 24 26 26 24 24 25 23 22 21 23 23 25 27 27 26 25 24 23 23
27 28 28 32 32 37 43 51 51 46 44 44 46 46 44 41 39 36 32 31 29 21 17 20 22 22 22 20 22 21 20 20 20 21 22 22 24 27 25 25 24 23 20 21
25 29 32 34 45 51 52 52 51 51 50 47 46 44 41 40 38 33 30 27 22 14 17 18 19 20 19 20 19 18 19 19 20 20 21 22 24 26 25 24 24 22 20 20
30 38 45 48 52 54 52 50 49 49 48 47 46 43 39 38 36 31 27 23 13 13 15 15 17 18 18 18 17 17 19 19 18 19 20 21 23 25 24 23 22 22 20 19
45 49 51 54 52 49 48 47 48 46 44 44 42 40 37 34 31 26 23 14 11 13 13 14 17 17 17 16 16 17 19 18 18 19 19 21 21 23 23 22 21 21 20 18
52 53 51 44 44 45 45 44 43 44 43 41 38 34 32 31 27 22 17 9 11 12 12 14 17 16 16 16 16 18 19 19 18 19 19 19 21 22 22 22 20 19 18 17
44 41 41 41 43 43 42 41 42 40 39 38 35 34 31 27 20 18 9 10 11 12 12 14 16 16 15 16 16 18 19 19 18 18 19 19 19 20 20 20 19 17 16 15
39 40 41 41 42 44 45 39 38 38 36 34 33 32 23 17 17 12 6 11 12 13 12 14 15 16 16 17 18 19 19 19 18 18 18 19 18 18 18 18 18 16 15 13
35 36 38 41 44 43 40 37 35 33 30 27 27 20 14 16 14 7 10 11 13 14 14 14 15 16 16 17 17 18 18 19 18 18 18 18 19 17 17 16 16 16 14 13
34 36 37 39 38 34 32 31 31 27 23 22 17 13 13 13 7 9 12 13 15 15 14 15 16 15 16 16 17 18 19 19 19 18 18 18 19 18 16 15 14 13 14 13
34 35 36 35 32 32 30 25 25 23 21 15 12 12 13 8 9 12 12 13 15 15 14 15 15 15 15 15 17 19 20 21 20 19 19 19 19 19 17 15 13 12 12 12

GFSNGP_700_spd_018.txt.gz
Wind_Speed
19 17 20 24 25 23 24 28 23 29 26 28 28 28 30 28 37 42 41 46 47 48 45 50 42 38 41 44 48 52 55 58 57 57 50 40 33 31 26 26 28 29 29 36
26 12 16 29 28 19 10 17 23 22 35 31 27 30 28 37 49 49 49 47 46 46 54 44 38 44 47 47 49 54 58 57 54 44 34 33 29 29 33 34 33 35 35 35
14 17 22 21 2 13 23 25 28 33 30 28 32 35 33 46 53 48 49 48 50 48 37 41 43 45 48 50 53 55 55 49 34 34 30 30 28 29 29 31 33 34 35 35
15 20 2 12 18 28 28 20 26 27 29 35 40 35 40 52 51 49 48 49 44 38 42 41 43 46 50 51 51 50 44 34 31 29 32 31 31 33 34 33 35 35 35 35
9 10 21 34 17 17 27 33 26 27 34 37 35 42 48 51 51 46 48 36 33 38 41 43 46 50 50 49 48 39 33 31 31 31 32 33 34 32 34 34 35 35 36 37
17 9 5 20 24 26 24 34 17 18 24 41 43 46 45 48 35 33 29 33 38 40 43 46 46 48 48 46 39 34 33 33 34 33 34 35 33 34 35 35 35 37 37 37
26 21 21 26 20 17 14 26 18 37 50 45 45 43 46 35 45 29 33 37 40 42 43 45 46 45 43 39 36 35 34 33 35 36 36 32 34 36 35 35 36 37 38 37
17 11 12 11 22 25 42 44 46 51 52 44 44 38 38 44 29 32 39 40 41 44 44 44 42 40 38 34 31 34 36 32 34 31 33 35 35 34 36 38 39 39 38 35
22 26 38 43 42 38 41 44 47 50 47 41 43 42 30 24 31 40 43 42 41 43 43 43 41 37 35 32 32 32 31 29 31 33 34 35 36 37 38 38 38 37 35 35
37 40 37 34 32 37 41 46 43 46 41 36 39 22 22 27 33 38 39 40 40 42 41 39 37 35 33 31 29 30 31 32 32 33 33 36 37 37 37 36 34 34 34 34
43 39 33 36 34 39 35 47 40 31 30 31 33 24 27 30 36 38 38 38 40 41 39 37 36 36 36 30 28 30 31 31 32 33 35 36 35 34 33 32 33 34 34 34
39 39 35 47 40 36 44 40 43 32 28 21 21 27 28 35 41 42 40 37 38 39 37 37 37 36 35 29 29 30 30 31 32 34 34 33 32 29 28 30 31 32 32 33
40 38 44 35 39 36 40 39 29 45 37 34 28 30 35 42 42 38 38 39 38 38 38 37 35 34 30 28 28 29 30 31 32 33 32 30 28 29 29 28 30 31 30 29
30 35 35 38 39 39 32 32 33 34 26 36 41 43 47 44 38 36 38 39 40 38 37 33 34 31 27 27 28 29 30 31 31 30 29 27 27 28 29 32 31 28 27 26
32 35 37 33 32 31 30 31 34 32 41 45 46 45 43 38 37 38 39 41 40 37 32 31 33 26 25 26 28 28 27 27 27 26 25 26 27 27 30 31 30 28 25 25
31 30 31 31 31 28 28 29 40 44 50 52 55 56 54 47 45 42 40 40 40 34 29 32 26 22 23 24 24 23 24 24 24 24 24 25 26 27 29 29 28 28 27 24
30 30 29 24 25 29 36 41 48 54 56 54 56 54 49 48 47 44 42 40 36 31 30 26 18 19 20 21 20 22 21 21 23 25 24 24 25 27 29 28 27 28 26 25
29 31 32 32 35 41 45 49 54 54 51 48 48 49 48 47 47 45 41 38 34 31 28 19 15 17 18 19 20 21 20 21 23 23 22 23 24 26 28 27 26 26 25 25
30 31 33 38 43 50 55 55 50 48 47 47 47 45 44 44 41 39 34 32 31 28 21 13 14 15 17 19 19 19 19 20 22 22 22 23 24 25 27 26 26 24 23 24
33 36 41 48 52 54 52 46 45 47 45 43 44 43 41 39 36 35 32 31 26 23 13 12 13 14 16 18 18 18 18 20 22 23 23 23 23 24 25 26 25 23 22 22
39 45 51 52 50 45 42 44 46 45 44 45 43 41 41 38 35 33 32 27 20 16 9 13 13 14 16 17 17 18 18 20 22 22 22 22 23 23 24 24 24 23 21 20
48 49 46 42 41 42 42 42 45 47 47 43 40 40 38 33 33 30 23 18 18 8 11 12 13 13 15 16 16 17 18 20 22 22 21 22 22 22 22 23 22 21 20 19
40 39 38 39 40 41 41 43 44 39 38 35 34 33 30 30 23 15 14 16 10 9 12 13 13 14 15 16 16 17 18 19 20 21 21 21 21 22 21 21 20 19 19 18
35 36 35 37 37 38 40 41 40 38 37 34 31 27 25 18 14 14 15 10 10 12 14 14 14 15 16 16 16 17 18 19 20 21 21 21 21 21 21 20 19 18 17 16
32 33 34 35 37 37 39 39 40 36 31 31 29 23 16 13 12 13 10 10 13 13 15 16 15 15 16 16 16 16 17 19 21 21 21 21 21 21 21 19 18 17 15 15
30 31 34 36 35 36 38 38 38 32 29 30 24 16 13 12 12 9 11 14 14 15 16 15 15 16 16 16 15 16 17 19 21 22 21 21 21 21 20 19 18 16 15 14
27 28 31 36 37 35 36 36 33 28 27 25 18 14 14 14 12 11 14 15 15 15 15 15 14 15 16 16 15 16 17 19 21 21 21 20 20 21 20 18 18 17 14 13

GFSNGP_700_spd_021.txt.gz
Wind_Speed
14 15 19 23 20 20 24 26 20 27 29 25 26 28 27 30 31 37 39 47 46 46 47 45 37 35 35 39 42 46 50 53 54 53 46 36 33 32 31 31 31 33 32 32
21 15 14 26 29 25 13 11 20 21 28 26 29 28 31 35 36 40 46 47 47 45 45 37 36 37 41 43 45 48 51 51 48 37 30 30 23 32 31 31 34 34 32 31
14 13 18 23 3 7 21 26 25 24 29 28 28 32 35 39 43 50 52 51 48 43 35 35 37 40 43 44 46 48 48 44 37 32 31 28 33 34 33 34 34 33 33 32
13 19 3 13 16 28 26 17 20 27 27 29 31 35 38 38 51 49 46 43 38 40 33 33 37 39 42 44 46 45 42 37 33 33 32 32 33 34 35 34 33 33 32 32
7 6 19 30 11 14 22 31 23 21 27 31 32 41 42 51 48 44 32 33 33 29 32 34 37 40 42 43 43 42 39 35 33 35 35 34 34 34 32 33 33 32 33 35
14 6 5 13 23 24 24 30 13 31 32 30 43 51 52 47 41 29 37 24 28 31 33 36 38 41 43 42 40 38 34 33 35 34 34 35 33 33 33 33 34 36 36 36
21 13 20 24 16 16 12 23 26 39 42 40 43 48 46 34 28 33 23 25 30 33 36 38 39 40 41 39 37 34 31 31 32 31 30 32 32 33 34 36 37 37 36 36
13 8 10 7 22 27 37 43 49 42 41 46 46 42 23 36 25 22 27 28 31 34 36 38 40 40 38 37 35 34 30 28 30 30 31 32 33 35 37 37 36 35 34 33
24 27 33 39 42 37 39 39 46 42 46 43 40 27 35 34 24 26 27 33 37 38 38 40 41 40 36 34 34 32 29 30 30 30 31 33 35 36 35 35 33 32 33 33
33 35 33 36 28 35 40 44 43 35 36 37 39 33 36 29 31 31 36 38 39 39 39 39 40 38 33 32 33 31 29 29 29 30 32 33 34 34 33 31 32 32 33 33
35 33 31 35 35 40 38 44 31 35 37 29 33 36 30 32 36 38 41 40 38 39 39 39 40 35 31 32 33 30 28 29 30 31 32 33 32 30 29 30 31 34 34 33
39 33 32 41 35 43 29 35 40 30 28 29 32 34 37 43 43 44 41 37 38 39 40 40 38 31 30 32 31 28 28 29 30 30 30 30 28 26 27 29 31 33 32 32
36 33 33 32 37 23 37 35 32 28 25 26 31 39 43 45 46 44 38 37 39 39 39 38 33 29 29 31 27 26 27 28 27 27 27 26 26 27 27 27 29 30 30 30
26 26 32 32 27 32 33 33 31 28 28 35 40 44 46 49 48 43 41 41 42 42 41 37 32 28 30 28 24 25 25 24 24 24 24 24 25 26 28 30 30 28 29 29
27 34 31 26 29 30 30 29 28 32 42 47 49 49 50 50 47 47 47 44 44 43 39 35 30 29 29 22 22 22 20 21 21 21 22 23 23 25 28 30 30 29 28 26
32 27 23 25 27 27 29 35 41 46 51 56 58 56 50 49 50 48 44 44 44 41 34 29 27 30 24 17 19 18 18 19 19 20 20 21 23 24 27 29 29 29 28 26
24 25 26 27 31 36 40 44 49 53 56 55 47 47 49 48 45 45 41 41 38 33 27 25 27 26 15 16 17 16 17 18 18 20 20 21 22 23 26 28 28 29 27 26
25 27 29 34 38 41 44 49 54 51 45 45 47 49 47 45 44 41 39 36 33 28 27 25 23 17 12 14 15 16 16 17 18 20 21 21 22 23 24 26 27 28 26 25
24 29 34 36 39 45 50 47 43 43 43 45 47 48 47 43 39 38 36 33 30 30 23 19 18 10 13 14 15 15 16 17 18 21 21 21 22 23 23 24 25 26 25 24
30 34 38 42 46 43 40 39 41 42 42 44 46 40 42 38 35 34 32 31 29 21 16 15 9 12 12 14 15 15 16 17 18 20 22 21 21 22 23 23 23 24 24 23
37 42 43 41 38 37 37 38 40 41 41 43 43 41 41 38 34 29 29 23 16 13 15 10 11 12 13 14 15 16 16 17 18 19 21 21 20 21 22 22 22 22 22 22
41 39 38 37 36 35 36 38 38 40 41 41 40 36 36 31 27 24 17 11 12 12 10 11 13 14 14 14 15 17 17 17 18 19 20 21 20 20 20 21 20 20 20 20
38 36 33 33 33 35 36 37 37 38 41 40 37 31 33 30 23 15 11 12 11 9 11 13 14 15 15 15 16 17 16 16 17 19 21 21 21 20 19 19 20 18 18 18
30 30 30 30 32 32 33 35 36 36 38 36 31 29 28 22 17 13 12 10 9 13 14 14 16 16 15 15 16 16 15 16 17 20 21 21 21 21 20 19 18 17 16 16
29 28 30 30 30 30 33 38 37 34 34 31 28 26 22 17 15 14 13 11 13 13 14 15 16 15 14 15 15 15 15 16 18 20 21 21 20 20 21 19 17 16 15 15
28 29 30 32 33 34 35 37 36 33 32 30 26 23 18 16 15 15 13 14 16 16 16 16 15 15 14 14 15 15 16 16 17 19 21 21 20 20 21 20 18 16 15 14
27 29 33 34 35 35 34 34 33 32 30 29 24 21 17 17 17 17 18 16 17 17 16 16 15 14 15 15 15 16 17 17 18 19 20 21 21 21 21 21 19 17 15 14

GFSNGP_700_spd_024.txt.gz
Wind_Speed
11 13 18 18 18 16 20 23 20 23 22 21 20 22 24 26 28 33 34 36 45 47 41 35 35 37 35 35 38 39 42 45 47 47 41 34 29 28 24 29 27 28 35 35
17 17 18 24 30 22 19 17 21 22 25 19 24 28 28 29 31 34 40 49 53 43 37 32 35 32 32 33 37 40 42 44 43 39 33 31 29 29 31 34 36 37 36 33
9 15 26 14 4 1 12 18 13 17 16 23 21 23 25 32 34 41 50 48 44 29 30 30 29 30 33 35 38 40 41 41 39 36 33 31 32 33 33 35 35 33 32 32
9 14 4 9 16 23 21 15 15 19 19 19 30 28 32 33 40 47 48 44 34 31 30 26 28 32 35 37 38 40 39 37 36 35 34 34 33 34 34 32 32 31 32 33
4 5 20 20 6 8 14 23 20 16 15 33 32 36 30 35 48 48 45 38 36 28 26 28 31 34 37 39 40 40 38 36 33 34 34 33 32 32 32 31 32 33 34 35
11 5 6 10 18 23 17 17 8 23 31 39 40 38 36 48 41 38 28 32 24 23 27 31 34 38 40 40 40 39 38 36 34 31 31 32 31 31 32 33 35 35 34 34
11 11 14 16 13 11 9 16 34 36 42 39 40 37 33 39 34 33 36 27 29 31 36 39 39 41 42 42 41 40 38 36 32 29 31 30 30 32 33 35 34 33 32 32
7 9 7 5 19 20 27 40 38 37 37 40 32 35 34 29 30 28 30 32 34 36 38 40 40 43 42 42 41 39 38 35 30 30 29 30 32 33 33 32 31 30 32 32
12 19 22 29 31 31 32 36 36 40 38 38 36 34 26 25 22 26 32 37 38 41 43 41 43 45 45 42 41 38 37 33 29 28 29 31 32 31 30 29 29 31 32 34
29 29 20 23 27 33 36 41 33 38 27 36 28 24 24 26 30 37 38 41 43 45 44 43 44 44 44 43 40 34 35 29 27 28 28 29 29 29 28 28 29 32 34 35
29 30 25 22 35 39 39 34 35 30 38 31 27 25 28 32 38 42 45 44 42 41 42 40 41 41 42 41 36 32 33 25 25 27 27 26 25 25 25 28 29 33 34 33
28 25 27 35 33 28 33 21 31 33 31 26 26 31 36 43 44 45 44 41 40 40 41 41 40 39 38 35 30 32 29 22 24 24 24 23 23 23 25 25 29 32 32 32
30 34 32 33 26 31 24 28 29 29 29 30 34 42 45 47 47 42 41 43 43 43 43 41 41 39 33 30 34 32 21 20 22 21 21 20 22 22 22 26 29 29 30 30
30 28 25 27 31 26 25 28 29 30 32 37 44 48 49 49 47 45 46 44 42 44 43 42 38 33 29 31 31 27 15 19 18 18 18 20 20 21 23 25 28 29 31 29
24 26 29 30 24 24 26 28 31 34 41 46 50 52 48 45 46 46 44 43 43 40 39 37 32 24 23 27 28 14 15 16 16 16 17 19 19 21 22 25 27 28 29 29
27 25 22 19 22 24 29 33 39 44 48 52 49 43 43 44 45 46 45 43 39 38 34 32 27 26 26 25 17 12 14 14 15 15 17 19 20 21 22 24 26 28 28 27
20 19 19 20 25 32 37 41 44 48 47 42 42 42 43 43 44 40 41 37 34 34 31 28 28 22 20 17 10 13 14 15 15 16 18 19 20 21 22 23 24 26 27 27
19 20 22 26 32 39 41 44 42 40 39 39 41 41 42 43 43 41 40 34 32 30 29 27 20 17 15 9 12 14 14 14 14 16 18 20 20 20 21 22 23 24 25 26
19 21 25 33 39 41 39 38 38 36 36 38 39 40 42 42 40 39 37 32 29 29 24 18 15 13 10 11 12 13 14 14 15 17 19 20 20 19 20 21 22 23 23 24
21 26 34 39 38 37 37 34 34 35 36 39 40 41 42 40 36 36 33 29 27 21 14 13 11 9 12 11 12 14 14 15 15 17 18 19 20 19 19 20 21 22 21 22
29 35 36 36 36 34 31 31 32 33 35 39 39 40 41 37 33 33 29 23 18 15 13 10 8 11 12 13 13 14 14 15 16 16 18 19 20 20 19 19 20 21 20 20
34 34 34 34 32 30 29 30 31 33 36 39 38 38 38 34 31 28 22 19 17 14 11 10 12 13 14 14 14 14 15 15 15 16 18 19 20 20 20 19 19 20 19 19
33 33 32 31 32 32 31 31 31 32 35 37 36 36 34 32 28 23 19 18 15 12 12 14 14 15 16 15 14 14 15 15 15 16 17 19 20 20 20 20 19 19 19 18
33 32 31 30 31 32 33 32 34 36 37 36 34 33 32 28 24 20 18 17 14 15 16 16 16 17 16 15 14 14 15 15 15 16 17 19 20 20 20 20 20 19 19 18
31 30 29 29 31 32 34 35 36 37 34 32 31 30 29 25 22 19 17 16 15 16 17 16 16 16 16 14 14 14 15 15 16 17 17 19 20 19 20 20 20 20 19 18
30 29 29 30 32 35 36 37 38 35 31 31 29 28 27 24 22 21 19 17 17 18 18 18 18 17 16 15 15 15 15 16 16 17 18 19 19 19 19 20 20 20 19 19
27 27 29 32 33 34 36 37 35 32 31 32 29 27 26 23 22 21 19 18 19 20 17 18 18 18 17 17 17 16 17 17 17 18 18 18 19 19 19 20 20 20 20 19

GFSNGP_700_spd_027.txt.gz
Wind_Speed
8 12 14 17 18 19 21 23 24 27 26 22 24 18 18 18 17 20 22 25 32 41 49 43 36 31 34 33 33 36 37 40 44 44 43 42 38 29 29 32 33 34 35 38
14 8 15 22 20 17 20 17 16 19 21 18 14 20 21 23 23 25 31 38 43 50 41 37 30 28 30 33 35 39 40 43 45 43 41 40 37 35 34 32 33 34 34 33
6 15 23 11 2 10 9 10 16 16 16 18 19 17 20 25 30 37 44 39 48 45 33 28 30 30 32 35 38 42 45 45 45 41 39 37 36 35 32 30 32 33 32 31
9 13 3 6 21 20 17 13 12 15 17 12 16 22 33 38 33 37 41 46 43 30 33 32 29 30 36 39 42 44 40 41 41 39 37 35 32 27 29 32 33 33 32 33
4 7 20 14 5 7 12 20 14 10 7 22 26 32 25 37 36 32 38 37 37 39 34 32 35 37 40 42 42 40 35 32 39 38 35 34 29 30 32 32 33 32 32 33
8 5 4 8 11 16 13 17 6 9 25 30 29 38 42 31 33 38 37 32 29 29 28 30 31 34 39 38 33 31 31 37 35 31 32 32 30 32 32 31 30 32 30 31
13 10 13 14 15 9 9 10 19 33 33 32 39 37 34 37 36 31 29 23 23 26 30 32 36 37 38 38 34 32 27 38 38 32 34 34 32 32 29 27 30 30 30 32
8 7 8 5 13 14 18 29 31 27 42 37 35 33 34 31 25 23 23 25 28 32 37 36 34 35 37 37 34 31 38 39 37 34 35 31 31 28 25 27 28 29 31 32
10 11 16 26 29 33 27 32 32 37 41 35 30 32 30 27 24 24 26 30 38 44 41 38 34 34 36 37 42 36 36 40 34 35 32 28 30 26 26 26 28 29 32 34
24 22 19 27 26 32 32 34 39 32 30 29 32 29 27 28 29 33 39 44 38 35 34 34 34 34 35 38 41 37 40 37 34 32 28 26 25 24 24 26 26 28 32 33
28 27 31 32 28 25 33 36 33 27 29 29 27 28 29 35 39 42 43 38 39 35 35 36 37 37 35 32 42 40 36 36 30 29 23 23 21 22 22 24 25 28 31 33
26 30 33 26 32 32 34 28 26 26 24 24 30 33 37 41 44 39 39 41 35 34 36 38 37 36 39 36 34 33 29 33 27 19 21 20 19 21 23 23 25 27 29 32
29 27 30 33 35 28 29 23 23 24 28 33 35 39 43 44 40 41 42 41 36 38 42 38 39 38 36 35 28 25 30 28 19 18 18 18 19 20 22 26 27 28 29 30
28 26 29 25 27 31 27 23 25 28 31 34 40 44 43 42 42 42 43 44 44 42 45 38 34 32 35 30 27 26 27 20 13 15 16 16 18 20 23 25 26 28 31 30
27 25 23 28 25 21 19 23 28 32 38 42 42 40 41 41 42 42 43 44 44 42 40 33 35 33 32 30 24 21 17 12 14 14 15 16 18 20 22 24 25 27 27 30
22 23 26 22 19 20 22 27 34 40 42 41 40 39 39 40 41 41 42 43 41 41 37 35 33 31 30 22 19 14 12 13 15 15 15 17 19 21 23 23 25 26 26 27
28 24 21 18 20 23 28 35 41 41 39 40 37 36 38 41 40 42 42 41 38 38 33 31 31 27 21 18 12 12 14 14 14 15 16 17 19 21 22 22 24 25 26 25
21 18 18 20 23 29 35 39 39 39 37 34 34 34 38 40 40 42 41 38 37 35 32 29 24 18 17 11 11 12 14 14 14 14 15 17 19 20 22 22 23 24 25 25
17 18 20 24 29 36 37 37 37 35 32 32 32 33 38 39 39 41 40 36 36 32 27 22 18 16 12 11 12 12 14 14 14 14 15 16 18 20 21 22 23 23 24 24
17 20 25 31 34 34 35 34 33 32 32 31 31 33 37 38 40 39 38 35 31 25 22 20 18 13 13 13 13 13 13 14 15 15 14 16 18 20 21 21 22 22 23 23
22 28 31 32 32 33 33 32 32 31 32 32 33 35 38 39 38 38 37 32 26 24 22 18 15 15 14 15 16 15 15 15 15 15 14 16 18 20 20 21 21 22 23 23
30 32 31 32 33 33 32 31 32 32 32 33 35 38 39 37 35 36 34 28 25 22 19 17 17 16 17 17 18 17 16 15 15 15 15 15 18 19 20 20 21 21 22 22
30 31 32 33 34 33 31 31 31 32 33 35 36 37 35 34 33 33 31 27 24 22 19 18 18 18 18 18 18 17 15 16 16 16 16 16 18 19 20 20 20 21 22 22
31 33 34 34 34 32 32 32 34 35 35 36 36 34 33 33 31 30 29 25 23 21 20 19 20 20 19 19 18 17 16 16 16 16 17 17 18 19 19 20 20 21 21 21
32 32 32 31 31 31 31 33 34 34 36 37 34 31 32 32 31 29 28 24 24 22 21 22 21 21 20 19 18 17 17 17 17 17 18 18 19 19 19 20 20 20 21 20
30 30 29 28 29 32 34 36 36 36 37 36 31 31 31 31 30 29 26 24 24 24 24 24 22 20 21 20 19 18 18 19 18 18 18 19 19 19 19 20 20 20 20 20
28 27 28 31 33 36 36 37 36 36 36 33 32 31 31 30 28 26 25 24 24 24 24 23 21 21 21 21 20 20 20 20 21 20 20 20 20 19 19 20 21 21 20 20

GFSNGP_700_spd_030.txt.gz
Wind_Speed
6 9 11 12 16 17 20 20 23 23 21 18 16 12 13 11 13 16 22 28 39 44 49 47 51 48 39 36 36 33 35 39 41 48 46 47 44 42 40 38 37 34 32 33
13 5 10 23 20 9 9 13 15 12 15 15 14 14 18 22 29 29 39 41 39 41 41 45 40 34 36 34 36 35 37 40 40 41 50 48 40 35 35 34 33 34 35 32
5 11 23 4 4 11 15 12 10 14 12 13 14 17 21 30 34 40 41 40 33 39 41 37 30 28 35 36 36 43 42 37 30 40 48 45 38 33 36 35 36 36 33 33
8 10 2 4 17 7 7 7 10 11 13 10 10 16 29 36 32 38 40 36 39 37 36 32 30 38 39 28 36 48 47 42 41 44 44 44 40 36 36 36 36 36 33 31
3 4 15 5 6 11 12 16 10 8 11 18 24 27 31 37 40 35 38 37 38 36 32 32 30 32 38 44 44 41 47 32 39 33 41 41 45 37 38 37 37 34 29 28
7 2 4 5 10 13 13 13 11 16 18 26 39 35 42 43 41 37 36 34 31 26 27 28 32 37 38 37 37 40 43 36 41 35 27 42 42 40 39 35 33 31 26 28
9 7 10 12 14 15 8 8 19 21 30 37 33 43 40 33 34 34 27 21 22 28 33 36 43 42 38 36 33 39 43 38 40 48 34 42 39 40 37 31 31 29 27 28
4 6 8 5 9 17 16 21 32 31 33 35 40 33 30 33 30 25 25 28 32 37 41 39 41 38 36 33 37 43 38 46 37 34 35 35 37 37 30 32 29 28 27 28
9 10 14 19 21 22 31 34 33 37 33 35 28 29 31 29 28 28 34 40 42 39 40 41 35 31 33 39 42 45 40 40 44 41 39 35 35 29 29 27 26 27 28 30
19 24 18 23 34 34 35 37 37 36 31 28 29 29 26 28 31 36 41 40 33 41 41 38 31 38 43 41 43 40 37 37 40 36 31 32 30 22 25 24 24 27 28 30
27 24 21 31 31 33 33 30 34 27 27 26 24 27 29 35 40 40 39 38 40 40 37 38 40 43 44 41 36 35 34 31 31 28 31 31 20 21 21 22 25 27 28 29
25 25 28 28 32 31 31 33 27 26 23 24 27 30 36 41 39 39 40 39 41 41 43 43 45 43 40 32 35 33 30 26 27 27 26 18 17 18 20 22 24 25 27 27
31 29 28 28 30 29 27 26 24 22 23 26 31 36 39 39 39 38 39 41 42 44 45 44 42 41 36 36 35 32 31 27 25 21 15 15 16 18 21 21 24 25 26 27
30 28 26 24 30 22 23 21 20 21 25 31 36 39 38 38 36 37 40 43 44 45 44 41 39 38 34 35 32 31 24 22 15 14 15 16 17 18 21 23 25 26 27 28
24 26 27 24 21 21 18 19 22 26 32 37 38 37 36 35 35 37 41 43 43 43 41 37 37 33 30 30 28 23 20 13 13 14 15 16 17 18 21 23 24 25 27 28
25 23 21 23 20 18 19 22 26 31 37 37 37 37 33 32 33 36 40 41 41 41 37 37 35 32 29 25 20 18 13 12 14 14 15 16 17 19 20 23 24 25 26 25
21 23 23 20 19 20 21 25 32 36 36 37 37 34 32 31 32 35 38 40 40 40 37 35 30 26 22 19 17 13 12 14 14 14 15 16 16 18 20 23 24 24 25 25
21 22 19 18 19 21 26 32 36 36 36 35 34 32 32 32 34 36 39 40 39 38 34 30 26 23 21 18 15 14 14 14 14 15 15 16 16 17 19 21 23 24 24 25
18 17 16 17 22 29 33 35 34 35 34 34 33 33 33 34 36 39 39 38 38 37 32 28 26 23 19 15 16 16 15 15 15 15 16 15 15 16 18 20 22 23 23 24
15 16 19 23 29 33 33 33 34 35 34 33 33 33 34 34 35 36 35 34 34 34 30 27 24 20 18 17 16 17 17 16 16 16 16 16 15 16 18 20 21 22 23 23
19 22 26 30 33 31 32 34 35 34 32 31 32 34 36 36 36 35 33 32 32 30 28 25 23 21 21 19 18 18 18 17 17 16 17 16 15 16 18 19 21 22 22 24
24 28 32 32 31 32 34 34 33 32 31 31 33 33 34 35 35 33 32 32 30 29 27 24 22 20 20 20 20 20 19 18 17 17 17 17 17 17 18 19 20 21 22 23
30 31 30 32 33 33 33 32 31 31 31 32 32 33 35 35 33 33 33 30 29 28 25 25 24 22 22 21 21 21 20 18 17 16 17 17 17 18 18 19 19 20 21 21
28 29 31 32 33 34 33 30 30 32 34 35 36 35 36 35 32 31 32 31 29 27 25 24 25 25 25 25 23 22 20 19 18 17 17 18 18 18 18 19 19 19 20 21
30 31 32 32 32 29 29 31 33 33 35 36 35 33 33 31 32 32 32 30 28 26 24 24 24 25 26 25 23 22 22 21 20 19 19 19 19 19 19 19 19 19 20 20
30 30 30 29 27 28 31 34 35 37 36 35 34 33 31 30 31 31 31 29 27 26 24 23 23 25 26 24 24 24 23 22 22 22 21 21 21 21 20 20 20 20 20 20
31 31 29 28 29 33 36 37 38 35 33 34 34 32 31 32 31 30 30 29 28 27 26 25 26 27 28 26 24 25 25 25 24 24 24 23 23 23 22 22 21 21 21 21

GFSNGP_700_spd_033.txt.gz
Wind_Speed
9 8 10 10 12 17 18 16 14 18 12 4 7 12 11 13 13 16 20 27 33 40 45 41 40 46 45 43 40 44 47 40 45 52 53 48 44 43 39 42 41 35 35 34
7 6 8 16 5 4 0 6 9 11 7 14 16 16 18 22 22 24 33 40 44 44 42 41 41 40 38 38 37 37 44 43 43 50 40 43 42 45 39 41 41 37 37 38
4 5 12 4 5 8 12 12 12 8 10 17 21 25 26 26 27 33 41 46 44 40 39 38 36 37 36 34 39 41 48 38 41 45 52 56 43 41 35 39 36 38 36 41
5 6 2 4 11 11 5 5 11 13 17 20 21 24 23 29 38 42 46 39 35 33 32 32 29 28 36 40 42 47 42 48 50 49 48 62 43 35 32 36 36 38 40 35
4 4 12 4 5 12 14 16 12 15 20 23 23 21 27 34 37 40 33 33 31 33 31 34 36 40 42 45 48 48 44 44 47 46 50 47 31 31 34 37 37 35 37 28
8 4 6 9 7 13 15 15 18 18 20 24 27 31 38 38 37 33 32 33 33 34 36 37 40 43 43 42 43 39 39 43 46 48 47 31 42 32 33 33 35 40 29 25
13 7 9 11 14 14 11 14 18 20 25 29 33 35 35 32 29 31 30 31 35 38 38 40 38 40 40 40 41 41 43 47 49 44 40 38 30 34 31 32 37 30 25 25
8 8 9 9 13 15 21 25 27 29 34 33 35 34 31 28 28 28 31 36 38 39 40 39 38 40 39 38 42 43 45 38 38 37 33 26 35 29 28 33 30 25 25 25
12 10 19 23 23 28 32 30 32 36 37 35 31 29 27 27 27 30 35 37 37 38 40 39 40 37 38 42 42 42 36 33 35 30 25 29 28 27 31 24 22 23 25 25
15 15 17 25 27 29 33 36 33 35 30 33 24 26 24 26 30 35 37 38 38 39 39 41 40 38 39 42 40 38 33 32 30 27 23 25 25 23 20 20 22 23 24 25
28 25 27 32 31 32 34 34 36 33 28 25 24 22 25 31 35 37 38 39 38 38 41 41 40 39 40 40 40 36 34 32 31 28 26 24 17 15 17 18 21 23 24 25
33 30 29 28 27 30 32 34 31 27 24 20 22 24 30 34 36 38 38 36 35 38 40 40 40 41 39 38 38 34 32 32 29 23 21 14 14 15 17 19 20 22 23 24
30 29 28 30 30 35 30 25 26 23 20 22 24 28 33 36 37 37 34 33 34 38 40 40 41 40 38 38 35 31 30 27 23 22 12 12 14 15 15 17 20 22 23 23
30 29 30 30 31 26 26 21 21 19 20 23 28 33 35 37 36 34 31 31 34 37 40 40 41 39 39 35 31 29 24 21 18 13 13 14 14 15 17 19 20 21 22 23
24 23 26 26 26 20 19 20 19 19 21 27 33 35 36 36 35 32 31 32 34 38 40 41 40 38 34 29 25 21 19 17 14 14 14 14 14 15 16 18 21 23 23 23
20 24 25 22 20 17 19 19 20 21 27 33 34 35 35 35 33 32 33 34 37 39 39 39 37 34 30 25 22 19 17 13 14 14 14 13 14 14 15 17 20 22 23 22
26 24 21 20 18 18 17 19 22 28 32 33 34 36 35 34 33 33 33 35 36 38 36 36 34 30 27 24 21 18 16 15 14 14 14 14 14 14 14 16 19 21 22 22
20 19 18 18 18 16 17 23 29 33 33 34 35 35 34 32 33 33 34 34 35 35 33 33 31 27 25 22 20 18 17 17 16 16 16 15 15 14 14 15 18 20 21 22
16 13 15 16 16 20 25 31 33 32 32 34 35 34 32 32 34 35 35 35 35 33 31 30 28 25 23 21 20 19 19 19 18 17 17 16 15 14 14 15 17 19 20 21
11 16 16 18 22 27 31 32 32 32 33 34 33 32 32 32 34 33 34 34 31 31 29 28 26 23 22 20 20 20 20 20 19 18 17 16 16 15 15 15 17 18 19 20
15 18 21 24 28 30 29 31 32 32 32 31 31 31 31 32 32 34 34 33 29 30 28 26 25 22 22 21 20 20 20 20 20 19 17 17 16 16 16 16 17 18 18 19
19 21 25 29 28 28 29 30 31 32 31 29 29 31 33 33 33 33 33 31 30 30 29 27 25 23 22 21 21 22 22 22 21 19 18 18 17 17 17 17 17 17 18 18
23 26 25 26 29 30 31 31 31 30 29 29 29 32 33 34 33 33 31 29 31 30 29 26 24 24 24 23 23 24 23 22 22 21 20 20 19 19 18 18 18 18 18 18
22 24 26 28 30 32 32 31 29 27 31 31 34 34 34 33 31 30 29 30 30 30 29 26 24 23 24 23 24 24 23 22 22 22 21 21 21 21 20 20 19 19 18 18
26 27 29 31 32 31 29 27 29 31 33 36 37 33 31 32 31 30 30 31 30 29 28 26 24 24 24 24 24 26 25 24 23 23 22 23 23 23 23 22 21 20 20 20
28 31 32 33 32 28 28 31 33 37 39 39 37 33 32 33 32 32 31 31 30 29 28 27 26 25 24 24 25 25 25 24 24 24 24 24 24 25 25 24 24 24 23 22
33 32 31 30 29 31 33 34 37 39 38 38 38 35 34 34 33 31 30 29 29 28 27 26 26 26 26 27 28 28 28 26 26 27 28 28 28 29 27 26 26 26 25 24

GFSNGP_700_spd_036.txt.gz
Wind_Speed
9 9 11 13 12 12 16 17 12 12 12 11 15 18 17 16 18 20 22 24 27 35 42 48 46 42 40 39 39 41 43 45 44 49 47 45 51 43 45 46 50 47 31 31
12 13 13 10 13 7 6 7 9 11 12 15 15 15 15 16 18 22 26 30 39 43 44 41 42 41 40 41 42 41 40 47 45 50 53 50 46 47 53 54 40 27 25 30
7 10 9 11 13 11 9 13 17 18 21 20 17 17 19 24 27 27 31 38 40 41 39 40 38 40 41 40 39 42 46 49 53 53 44 43 44 51 51 33 21 29 31 32
5 6 1 6 11 12 15 14 14 14 18 19 20 24 28 31 31 31 37 43 39 37 36 36 38 38 39 42 45 46 47 46 43 37 39 44 47 45 34 25 30 26 30 31
5 8 9 12 14 12 13 15 22 21 17 20 23 24 27 31 35 38 40 35 35 33 35 37 37 39 41 42 43 42 42 39 39 42 46 45 42 38 33 31 25 26 28 31
9 4 6 8 14 15 15 21 6 12 18 21 23 25 33 37 37 34 34 33 32 34 36 36 37 38 39 41 42 41 38 38 40 44 39 36 33 27 25 28 23 27 31 28
18 10 8 15 14 10 10 16 17 17 20 23 27 34 34 31 30 31 29 30 32 34 36 37 36 37 39 41 43 42 39 37 38 34 35 32 25 29 26 21 24 28 24 26
12 10 10 10 13 16 21 23 23 25 26 28 32 34 32 30 28 25 26 29 33 35 36 35 35 38 41 42 42 40 36 35 35 32 32 29 25 24 26 23 23 21 22 25
14 9 19 23 24 24 24 24 27 27 30 31 32 34 33 27 24 25 28 32 34 35 35 33 35 38 41 39 40 37 36 36 33 31 31 30 28 27 25 20 19 20 22 24
23 26 26 24 27 26 26 30 31 30 30 34 34 29 26 22 24 27 31 34 36 36 34 34 36 39 38 39 39 37 37 36 32 30 30 28 24 23 17 16 18 20 22 24
28 29 29 29 28 31 30 27 25 27 34 35 30 25 22 22 27 32 33 35 35 35 34 35 36 39 39 39 39 38 36 34 32 31 26 23 20 15 14 15 18 21 23 24
32 29 31 32 32 29 29 28 32 32 30 29 23 21 22 26 31 34 35 35 35 33 33 34 36 39 40 40 40 36 33 31 30 26 22 19 14 15 15 16 18 21 23 23
27 26 27 27 27 27 29 35 31 32 28 22 21 22 25 31 33 34 35 35 34 34 34 36 38 40 40 39 37 34 31 28 24 21 17 14 15 15 14 17 18 19 21 22
28 27 27 27 27 30 33 30 29 24 20 20 22 25 31 34 34 34 35 35 34 34 35 36 38 38 37 37 34 31 28 24 21 17 15 16 16 16 15 14 14 16 19 21
24 23 24 26 28 28 30 26 20 18 18 21 25 30 34 34 34 34 34 34 34 34 34 35 37 36 35 34 31 28 25 21 19 17 16 16 16 16 15 15 15 16 18 20
24 24 23 25 28 25 20 15 16 17 20 25 30 32 32 34 34 35 34 34 34 34 35 36 36 33 31 31 28 25 21 18 18 18 18 17 16 16 15 14 14 16 17 19
22 25 24 29 22 13 12 14 17 20 25 30 32 32 33 35 34 34 33 33 34 33 34 34 32 30 29 28 26 23 19 18 19 19 19 19 17 17 16 14 14 15 17 18
24 24 27 12 9 13 14 16 20 26 30 31 32 33 34 35 35 34 34 33 32 33 33 32 30 29 28 26 23 22 21 20 20 20 20 20 19 18 17 15 15 15 16 17
16 10 8 11 14 16 18 23 28 30 30 31 32 32 33 34 34 33 33 33 33 34 33 30 30 29 27 25 23 21 21 20 21 21 21 20 19 19 18 17 16 16 16 16
5 10 14 16 18 21 25 30 30 28 30 31 32 32 32 31 32 33 34 33 33 34 32 29 29 29 27 24 22 21 21 21 22 21 21 21 19 19 19 18 18 17 17 17
12 15 17 20 22 26 28 27 29 29 30 30 31 29 30 29 31 33 34 33 31 31 29 29 30 28 26 24 22 21 22 22 22 22 21 21 20 19 19 19 19 19 19 18
16 18 20 24 25 24 26 27 29 31 31 30 29 29 30 32 34 34 32 33 31 29 29 29 28 27 25 23 23 22 22 23 23 22 21 22 21 20 19 20 20 21 20 19
19 23 22 23 24 26 28 30 32 34 35 33 31 32 34 37 37 37 34 32 31 30 30 29 27 27 26 26 24 23 23 23 23 22 22 23 22 22 21 20 21 21 21 21
20 21 23 26 29 31 34 34 35 34 33 33 33 36 37 36 35 34 34 34 34 33 32 30 28 27 26 26 25 25 24 24 24 24 24 24 23 23 22 23 22 22 23 22
22 24 27 31 34 35 35 33 32 30 32 33 35 36 34 35 37 34 33 34 34 33 31 29 27 26 26 26 26 26 25 25 26 25 26 25 25 25 26 27 25 26 25 26
26 30 33 34 34 32 32 33 34 35 36 38 38 35 35 36 35 34 32 32 32 30 29 27 26 26 26 26 26 26 26 27 28 28 29 29 28 29 27 27 28 28 26 27
33 35 37 38 38 39 40 41 40 40 39 38 40 37 37 36 36 35 31 30 29 27 26 25 26 27 27 28 28 28 28 28 27 28 27 29 26 26 27 27 26 25 23 24

GFSNGP_700_spd_039.txt.gz
Wind_Speed
11 10 10 11 13 16 19 18 17 21 21 18 21 22 21 20 20 21 20 23 27 31 32 36 42 42 41 41 43 44 45 46 46 47 49 51 46 38 39 41 44 48 34 23
13 13 15 17 18 19 21 18 17 17 19 18 18 19 21 22 22 22 24 27 32 34 37 41 43 42 42 43 44 45 45 45 46 46 47 46 43 42 44 44 44 39 33 21
9 16 16 16 22 24 18 16 15 20 21 22 22 24 21 21 23 26 29 32 36 40 42 39 41 42 42 44 45 43 43 45 46 47 46 45 43 42 40 36 32 28 32 23
6 7 1 14 14 15 19 18 17 16 18 19 22 22 23 25 27 29 33 40 42 40 35 35 39 41 42 43 44 43 43 44 44 44 43 40 39 36 35 29 24 25 25 23
6 11 13 10 15 17 19 17 14 18 20 19 19 22 24 26 28 31 40 39 33 32 34 36 39 41 42 43 43 43 43 41 39 39 38 39 35 34 29 24 27 24 22 25
10 5 6 7 11 14 15 20 13 11 15 15 19 25 26 29 33 39 34 30 30 32 35 38 40 41 41 40 40 41 40 39 38 38 39 37 33 30 26 22 26 25 25 29
21 13 10 15 18 16 14 10 13 18 16 19 22 24 27 32 34 34 29 29 31 33 35 38 40 41 39 38 38 39 39 39 38 38 38 35 31 30 28 27 28 26 24 23
14 11 13 15 17 18 14 21 24 23 22 23 24 25 29 32 32 27 26 28 30 33 35 38 39 39 37 36 38 39 39 39 40 38 34 32 31 30 27 25 25 22 20 22
14 9 15 13 16 22 23 26 26 24 25 25 29 30 31 31 25 24 25 28 31 35 36 37 37 36 36 36 38 40 40 40 40 36 32 31 30 25 22 22 18 19 19 22
26 26 25 26 28 29 29 28 26 28 27 30 29 30 29 24 22 24 27 30 34 36 36 36 35 35 37 38 39 40 41 39 38 34 31 28 24 22 20 16 17 18 20 22
28 28 29 29 28 27 28 28 33 28 29 29 33 31 24 22 22 25 30 34 35 36 36 37 36 36 38 39 40 40 40 38 35 31 28 24 22 18 16 17 17 18 19 22
31 27 29 29 29 29 30 29 27 29 29 34 31 21 20 21 24 29 33 36 35 36 37 36 37 36 36 38 39 39 38 35 33 28 24 22 17 17 18 17 17 18 19 21
28 27 29 28 28 27 27 27 28 28 35 26 19 18 22 24 27 33 35 35 36 36 36 36 36 36 36 37 38 36 35 33 30 27 22 18 17 18 17 18 18 18 18 21
30 29 28 26 26 26 26 27 32 31 27 18 17 21 24 27 32 34 35 36 36 36 35 36 36 36 36 36 34 33 33 31 27 23 19 19 19 19 18 17 16 16 18 19
23 22 24 26 26 25 28 28 28 23 15 15 20 23 27 32 34 34 35 36 36 36 35 35 35 34 35 32 31 31 30 27 25 22 21 20 20 19 19 18 17 16 17 18
28 27 26 26 25 28 29 24 13 13 16 19 23 27 32 33 34 35 36 36 37 35 34 35 33 34 33 31 30 29 27 26 24 23 22 21 20 20 19 19 19 17 17 18
27 23 23 22 28 21 12 10 12 14 19 22 28 31 32 33 34 35 36 35 35 35 34 35 34 34 31 30 28 28 27 26 24 23 23 22 21 21 20 20 19 18 18 19
19 20 22 18 9 6 8 12 15 18 23 28 29 31 32 34 36 37 36 35 32 34 35 34 33 31 29 29 29 27 25 25 25 24 24 23 22 22 21 20 20 19 19 19
14 15 11 6 9 12 13 15 20 25 29 29 30 32 34 36 37 36 34 33 34 36 35 34 33 30 30 30 30 28 25 24 24 24 25 24 24 23 22 20 20 20 20 20
10 4 10 13 12 15 20 24 28 28 29 30 32 35 36 35 34 33 32 35 34 36 35 34 32 31 32 31 30 28 26 25 25 24 25 26 24 22 22 21 21 21 20 20
9 11 13 16 19 22 26 27 27 28 30 34 36 36 35 32 31 32 34 36 34 35 34 33 31 31 33 31 30 29 27 26 25 25 25 26 25 23 22 22 21 22 22 21
12 16 19 21 24 24 25 26 29 32 35 37 37 35 33 32 33 35 35 36 36 36 35 34 33 32 31 31 31 29 27 26 26 26 25 24 24 24 23 23 23 23 23 22
18 20 24 24 24 24 26 30 34 37 39 38 36 34 34 37 37 39 38 36 38 36 35 35 34 32 31 30 30 29 28 27 26 26 26 25 25 25 25 24 24 25 24 24
22 22 23 24 26 30 34 36 38 39 38 36 35 35 37 38 39 37 38 38 38 36 35 34 33 31 30 29 28 27 27 27 26 25 26 27 28 28 27 27 27 28 28 27
22 23 25 29 33 36 38 40 42 41 40 40 40 41 41 40 41 39 39 40 39 36 35 33 31 29 27 27 27 27 27 27 27 27 28 30 31 31 32 31 30 29 28 28
24 27 32 36 39 42 45 45 45 44 42 42 41 41 38 44 43 39 38 38 38 36 35 31 28 26 25 26 28 29 30 31 31 31 31 30 30 30 31 30 28 26 27 28
29 33 37 40 44 45 45 45 46 45 44 43 41 39 40 46 37 36 37 37 36 33 31 29 26 26 27 29 30 31 31 31 31 31 30 31 30 26 28 26 26 26 25 25

GFSNGP_700_spd_042.txt.gz
Wind_Speed
14 11 10 11 13 15 18 18 18 23 23 20 17 17 21 23 24 25 25 26 24 27 30 34 38 39 39 39 40 42 44 45 46 46 46 47 47 47 44 41 37 38 34 30
15 15 14 16 18 20 23 25 26 25 24 17 15 18 19 20 22 24 25 25 27 31 36 38 39 40 38 39 41 43 45 45 45 45 46 46 45 42 40 37 37 34 29 26
8 15 17 19 25 26 28 28 25 23 18 17 17 18 19 21 24 25 26 28 31 32 36 39 37 36 38 40 42 44 44 43 43 44 45 44 42 40 40 34 34 26 24 26
6 6 2 16 18 17 19 24 24 22 20 17 17 18 20 20 23 25 28 30 33 36 37 36 35 36 38 41 43 44 43 42 43 43 43 42 41 40 37 31 28 24 23 25
5 9 17 18 19 17 18 18 20 23 18 17 17 18 18 19 23 26 30 33 35 35 33 32 34 37 40 42 43 43 42 42 42 42 41 41 40 38 35 30 29 28 27 27
11 5 6 9 9 12 17 25 20 17 13 17 19 21 17 20 23 27 31 34 33 30 30 32 35 38 41 42 42 41 40 40 40 41 41 41 39 36 33 31 29 28 27 27
19 12 10 15 17 16 12 13 9 11 19 24 22 20 22 23 29 29 34 34 29 28 30 33 37 40 41 42 41 40 40 40 40 41 41 39 36 34 32 29 26 24 24 21
10 9 11 14 15 15 13 14 19 24 26 25 23 24 24 27 34 32 31 28 27 28 31 35 39 40 40 41 40 39 40 40 40 41 40 38 35 32 29 25 23 21 18 18
13 8 14 20 20 19 22 23 25 27 27 25 25 27 28 34 30 31 26 26 26 29 33 37 39 39 40 39 39 39 39 39 40 40 38 36 34 29 24 22 19 16 18 18
22 23 24 24 24 27 28 28 28 27 29 26 26 27 32 28 25 24 24 23 27 31 35 36 38 38 39 39 39 39 38 38 38 38 36 34 30 25 23 18 16 17 17 18
27 25 26 24 25 26 27 28 29 28 28 31 28 34 29 29 21 20 21 25 30 35 36 37 38 38 38 38 38 37 37 37 36 36 34 31 28 24 19 18 18 18 17 18
27 22 24 25 26 26 28 28 27 26 27 27 34 28 29 21 18 19 23 29 34 36 37 38 38 38 38 37 36 35 35 34 34 33 32 28 24 21 19 19 18 18 17 17
28 27 27 28 28 27 25 23 23 24 26 30 31 28 21 17 18 22 29 34 36 36 37 38 38 38 37 35 34 35 34 33 32 31 29 26 24 22 19 18 19 18 18 17
28 27 27 26 26 25 25 24 23 24 26 35 20 14 15 19 23 29 34 35 35 36 37 38 38 36 36 34 34 34 33 31 30 29 27 24 23 22 21 19 17 18 20 18
26 27 27 27 27 26 26 26 25 30 25 13 12 15 20 23 30 33 34 34 35 36 36 37 36 34 34 35 34 33 31 30 29 27 26 24 23 22 22 21 20 18 18 19
28 27 26 25 24 24 26 27 26 16 11 12 16 20 24 30 32 32 32 33 35 35 35 35 33 34 35 34 33 30 30 30 28 26 25 24 23 22 22 22 22 21 19 19
25 25 24 19 22 24 18 14 12 9 14 18 21 25 28 29 30 32 33 34 36 35 34 35 35 35 35 33 32 30 30 29 29 27 26 25 23 23 23 23 23 22 21 20
20 17 15 18 17 14 11 9 13 17 20 22 24 25 27 29 32 35 37 38 35 34 34 35 37 36 35 32 30 30 31 29 27 27 27 26 25 25 24 24 23 22 21 21
15 14 15 12 8 8 13 17 19 21 24 24 24 26 30 34 37 39 39 38 33 35 36 38 38 37 34 32 32 32 31 29 28 27 27 28 27 26 27 26 24 23 22 21
13 9 5 9 15 18 18 19 22 23 24 26 29 32 35 37 38 38 37 34 35 38 38 38 38 36 34 33 34 34 32 31 29 28 27 28 29 28 28 26 24 23 23 22
6 10 13 15 17 19 23 24 24 25 27 31 34 36 38 38 37 37 37 38 36 38 38 38 38 37 36 35 34 34 33 31 29 28 28 27 28 28 27 26 25 24 23 24
11 11 13 17 21 23 23 24 26 29 32 35 38 40 40 41 39 40 40 40 41 40 38 39 39 38 37 36 34 33 31 29 28 27 27 26 27 28 27 26 25 25 24 24
11 15 19 22 23 23 24 27 31 35 38 41 43 43 42 41 41 42 44 42 40 41 41 40 38 37 35 35 33 31 29 27 26 26 25 25 26 28 29 29 30 28 27 27
18 20 22 23 24 27 30 34 38 40 43 44 43 43 42 43 43 41 41 41 40 45 40 38 37 37 35 33 31 28 27 26 26 27 28 28 28 28 30 31 32 32 32 31
20 21 23 26 29 34 37 40 44 46 46 46 46 45 43 43 41 42 38 40 44 42 36 37 36 34 32 30 28 26 27 28 29 29 30 30 30 31 31 31 30 31 29 28
22 25 27 31 35 40 44 48 49 49 50 50 49 46 44 42 41 42 40 40 41 33 35 34 33 31 29 28 26 27 28 28 28 28 29 29 29 29 28 28 29 28 29 27
26 29 32 37 41 45 47 49 51 52 53 53 54 51 47 43 40 38 37 33 31 35 36 34 33 30 28 28 28 28 29 29 28 28 28 28 28 28 28 26 26 26 25 25

GFSNGP_700_spd_048.txt.gz
Wind_Speed
19 16 14 14 12 17 21 19 13 16 15 13 15 19 18 15 16 19 21 25 27 28 28 28 30 32 33 37 39 34 31 32 35 38 40 41 41 41 40 40 40 40 40 36
18 19 19 18 18 19 20 21 24 23 28 21 21 17 17 15 16 17 19 22 24 27 27 27 30 32 37 35 33 30 31 33 37 39 40 40 40 40 40 41 41 41 38 34
7 14 15 15 24 26 26 26 27 23 21 22 21 17 16 16 16 16 19 20 23 25 25 29 31 33 35 31 29 30 32 35 38 39 40 40 40 41 40 41 40 39 37 34
6 4 3 13 16 16 20 21 23 22 24 22 19 17 17 16 15 17 19 20 22 24 27 31 33 33 31 28 29 30 34 37 39 39 40 40 41 40 39 39 39 37 35 33
5 7 12 16 18 17 18 17 18 18 17 16 15 16 17 14 18 19 20 22 24 26 29 32 33 31 26 26 28 32 36 38 39 40 40 40 39 38 37 37 36 36 33 30
8 4 4 4 10 12 13 12 9 6 8 9 12 15 12 21 21 19 19 21 25 29 32 32 34 26 23 26 30 34 37 38 39 40 40 39 37 36 36 36 35 32 30 26
16 10 7 12 14 12 3 4 8 14 15 15 13 19 24 24 21 20 21 22 28 32 33 35 27 21 22 27 33 35 37 38 39 39 39 36 34 34 34 34 33 31 28 25
8 6 6 2 3 4 9 17 15 16 16 18 22 23 24 23 24 23 25 26 30 36 35 29 22 20 25 31 33 35 37 38 39 38 36 33 33 32 32 32 30 28 25 21
8 5 10 15 16 14 16 17 17 18 20 22 23 25 25 26 24 26 28 32 34 35 25 19 18 23 29 31 34 35 37 38 39 36 33 32 32 31 30 29 27 25 21 20
14 13 12 17 19 20 20 21 22 23 25 26 28 29 29 27 29 31 31 38 30 19 15 18 22 27 30 33 35 37 38 38 35 33 32 32 31 30 28 27 25 23 21 21
17 17 17 19 19 20 22 23 25 26 26 27 28 28 27 28 30 32 33 26 16 13 17 21 25 29 31 34 36 38 36 35 33 33 32 32 29 28 27 26 24 23 22 21
17 17 17 21 22 24 25 26 24 25 24 23 23 24 25 28 29 30 27 14 13 17 20 24 27 29 33 35 37 35 34 33 32 32 32 31 28 28 27 25 24 23 22 22
19 20 22 23 23 23 23 24 25 24 22 22 22 22 27 29 25 18 17 16 18 21 24 26 29 32 35 35 33 32 32 32 33 33 31 29 28 28 27 25 24 22 22 22
21 22 22 21 22 24 24 23 22 22 20 21 21 24 21 19 13 13 16 18 20 22 25 29 32 34 35 33 33 33 33 33 34 34 31 30 29 28 27 26 24 22 23 22
21 20 21 24 24 23 22 19 17 17 19 22 20 16 13 13 15 17 18 20 22 25 29 32 34 33 33 33 35 35 34 33 35 34 31 30 30 29 28 26 25 23 22 22
23 24 24 21 19 18 17 16 17 18 17 15 11 11 13 14 14 17 20 23 26 29 31 34 35 35 35 36 37 37 37 36 34 34 32 32 31 29 28 27 26 24 22 22
19 17 17 16 16 14 12 13 12 10 7 9 11 12 12 14 17 21 24 28 30 32 34 36 39 38 38 38 38 39 39 37 35 33 34 33 31 30 29 27 26 25 23 22
14 13 13 12 11 11 9 8 7 8 9 10 11 13 15 19 22 25 29 34 36 38 39 40 42 41 40 40 40 39 38 39 38 35 34 33 31 30 29 27 26 25 23 22
9 8 8 9 9 7 5 6 7 8 10 11 13 16 19 23 28 32 36 40 41 42 42 43 44 43 42 41 41 39 38 41 36 34 32 31 30 28 27 26 26 26 26 25
6 6 6 4 4 5 6 8 10 11 13 15 19 23 27 30 34 38 41 43 44 44 44 45 46 45 43 42 42 40 38 37 34 32 30 29 28 27 25 24 24 25 25 25
6 5 5 5 6 8 10 12 13 15 19 23 27 31 35 38 42 44 45 47 45 46 47 45 44 43 45 44 40 38 40 37 33 32 30 28 26 25 24 23 23 24 25 26
5 5 7 9 12 14 16 17 19 22 26 30 34 38 42 44 45 47 48 50 49 48 46 45 44 42 40 39 33 34 40 35 31 29 28 27 25 23 24 25 25 25 25 26
9 9 11 14 17 18 19 21 24 27 31 35 39 43 45 48 50 53 53 50 49 48 46 44 42 39 31 34 35 40 40 34 31 29 27 27 25 24 25 25 25 25 25 25
12 15 18 20 21 22 24 25 28 32 37 42 45 46 49 52 52 50 51 49 47 44 41 39 36 34 31 33 39 36 32 31 30 30 28 27 26 25 25 25 24 23 23 23
17 20 21 22 24 25 28 31 34 38 43 45 47 50 51 52 53 52 50 47 45 41 37 35 30 26 24 28 32 32 30 29 28 28 28 28 26 25 24 23 22 22 21 21
20 22 23 24 27 30 33 36 41 44 47 50 51 52 53 51 49 47 45 44 41 38 33 29 25 24 24 27 28 28 28 27 27 27 27 27 27 25 23 23 22 22 21 20
23 24 26 29 31 34 38 42 45 47 49 51 52 50 48 46 45 44 43 41 37 33 28 25 24 25 26 27 26 26 26 25 26 27 27 27 27 25 23 22 22 21 23 24

GFSNGP_700_spd_051.txt.gz
Wind_Speed
19 13 10 11 11 13 19 23 22 20 18 13 11 14 14 14 16 21 22 25 28 31 33 35 34 33 33 35 36 35 35 33 32 33 34 37 40 40 40 41 42 42 40 40
14 14 16 17 18 18 20 21 23 24 25 20 18 17 14 18 17 20 21 23 25 28 32 32 31 31 34 35 36 38 33 32 31 33 36 38 39 40 41 42 41 40 38 38
10 9 8 14 22 22 22 22 22 23 22 17 16 19 17 17 17 18 20 22 24 27 30 30 31 32 34 36 38 36 32 30 31 34 37 38 38 39 40 41 41 38 38 36
7 4 2 11 13 14 13 16 19 21 20 18 14 13 12 13 15 17 18 20 23 27 28 30 32 33 35 38 39 37 30 29 32 36 37 37 38 40 41 40 40 37 38 35
6 9 12 15 13 14 9 10 9 10 12 12 18 14 16 14 15 15 19 22 25 27 28 32 33 37 38 41 36 33 30 29 34 36 38 38 40 40 39 38 38 36 34 34
9 4 4 4 10 10 10 10 8 4 3 8 12 11 8 14 18 23 22 22 25 26 29 32 36 42 43 35 32 26 26 31 35 37 38 40 41 38 36 36 37 35 33 31
12 8 8 10 14 13 6 3 7 10 11 16 11 13 16 24 25 24 23 25 27 26 28 37 37 41 42 25 23 26 28 33 35 37 39 41 40 38 35 35 35 32 31 30
12 8 8 11 7 4 6 14 20 17 14 18 21 22 24 25 26 26 28 27 28 32 37 38 39 36 24 20 24 28 31 34 36 39 39 38 37 36 35 35 34 31 30 28
9 4 10 9 11 18 18 18 22 22 24 22 25 26 27 28 29 32 32 30 33 40 43 34 35 25 20 23 26 30 33 36 38 37 36 36 36 37 36 33 31 30 29 27
15 8 11 13 18 22 22 21 22 22 22 24 25 30 29 30 31 30 31 34 38 38 32 27 23 21 22 25 28 32 36 38 37 37 35 34 34 35 35 33 31 29 27 25
14 15 13 17 21 19 20 23 24 25 26 25 26 29 31 30 29 29 32 35 33 28 21 19 22 23 24 27 32 35 37 37 38 38 36 34 34 33 32 31 31 29 27 26
11 16 17 21 21 23 24 25 26 25 24 24 25 25 26 26 28 31 32 28 21 20 20 21 22 24 28 31 34 36 37 37 37 37 36 35 35 35 32 30 30 27 26 26
21 20 21 24 25 25 25 23 24 26 24 23 23 23 23 22 25 27 24 23 21 21 21 21 24 28 31 34 36 37 37 37 37 36 36 35 35 34 33 31 31 29 26 25
21 22 25 25 24 23 24 26 25 24 24 22 21 23 22 19 18 17 17 17 17 18 21 25 29 31 34 36 38 39 40 40 39 38 37 36 34 34 34 33 32 30 28 27
24 23 23 22 24 26 25 23 20 18 18 19 18 17 15 13 13 13 14 16 18 21 24 29 32 34 38 38 39 40 42 43 40 39 37 35 34 34 34 34 33 31 29 27
23 22 23 25 24 20 18 18 15 16 16 16 15 11 11 12 13 14 17 20 23 26 29 32 35 37 41 41 42 43 44 44 42 41 37 37 37 36 35 34 33 31 30 27
23 23 21 18 17 16 13 13 14 13 12 11 12 12 12 13 15 18 21 25 29 32 34 36 39 40 43 46 46 46 45 44 41 39 39 40 38 35 34 34 33 32 30 27
18 18 16 15 13 13 12 11 10 11 11 11 11 12 13 17 20 23 27 31 34 37 40 42 45 47 49 49 49 47 45 44 42 41 38 39 36 34 33 33 31 30 28 26
14 13 13 11 11 10 10 10 10 11 11 12 13 15 18 22 27 31 35 38 42 44 46 49 51 52 53 51 49 44 43 44 47 43 37 37 36 34 32 31 29 27 25 25
8 8 8 8 9 10 11 11 12 13 14 16 18 21 24 28 32 36 40 44 46 49 52 54 54 52 50 49 47 46 40 44 48 39 31 34 33 33 30 29 28 27 25 25
8 8 9 10 10 10 11 13 15 17 18 21 24 28 32 35 40 44 47 49 52 54 54 54 52 51 47 44 41 36 38 38 31 30 32 31 32 32 29 26 24 25 25 25
10 11 10 10 11 13 15 18 19 20 23 26 29 33 38 41 45 48 51 54 54 54 54 52 48 46 44 38 34 31 33 36 31 33 30 30 32 31 29 29 28 26 27 26
11 11 12 13 15 18 20 21 23 25 28 32 35 39 43 47 50 52 53 53 52 51 50 48 46 43 40 37 32 29 31 33 32 32 32 33 31 30 29 29 28 27 25 26
13 13 15 18 20 22 24 25 27 30 33 36 40 44 47 49 50 50 50 49 48 48 47 48 44 41 36 32 29 29 30 31 31 30 29 29 28 28 28 28 28 25 24 24
14 16 18 21 23 25 26 28 31 34 37 41 44 46 48 50 50 49 48 47 46 45 44 43 40 37 32 28 27 26 27 27 27 26 26 27 27 27 27 27 27 25 23 22
17 21 23 23 25 27 29 31 34 38 41 44 46 48 50 48 47 45 44 43 42 41 40 38 34 31 28 28 27 25 26 26 25 24 24 24 25 27 28 27 28 27 23 23
22 24 24 26 27 29 32 35 38 41 44 46 48 47 46 44 42 41 40 39 38 37 35 33 30 28 27 27 26 25 25 25 25 24 24 25 25 27 28 28 27 24 22 22

GFSNGP_700_spd_054.txt.gz
Wind_Speed
19 19 13 12 12 10 14 17 20 21 18 15 11 14 12 12 14 16 22 28 32 35 33 31 32 33 32 34 30 33 34 36 38 39 39 35 32 34 38 39 39 41 41 41
14 13 13 16 18 18 20 20 20 21 23 18 19 14 13 14 15 17 24 28 23 25 27 29 32 31 34 32 32 35 34 38 39 38 34 31 34 33 37 39 40 41 42 38
9 10 11 13 22 20 22 20 20 22 20 17 16 13 17 19 14 19 21 23 21 24 26 31 33 35 34 31 35 34 38 39 39 32 33 31 30 34 37 39 41 41 41 37
7 6 1 18 10 12 13 14 13 14 15 14 16 17 19 18 14 18 17 21 22 24 28 32 35 35 34 35 38 41 42 40 34 30 27 29 32 36 38 40 39 37 39 34
7 10 13 17 10 9 6 7 6 10 9 9 13 16 14 11 13 15 17 17 22 26 29 32 34 34 35 37 40 43 50 39 28 25 27 31 36 39 40 38 36 36 36 33
10 5 5 2 10 9 8 7 7 4 5 10 12 13 10 14 15 16 20 24 24 26 27 30 33 34 34 40 43 44 38 27 24 27 31 35 39 40 40 36 35 36 33 33
14 8 7 9 14 15 6 6 12 9 8 15 11 15 17 20 22 27 27 27 28 29 29 31 35 38 41 45 36 27 23 26 29 31 34 37 38 39 39 38 37 36 35 33
13 7 8 13 15 7 10 8 12 19 18 17 20 20 20 25 27 28 31 31 32 32 32 37 39 42 42 33 23 22 27 29 29 32 33 36 38 38 38 38 37 36 35 33
9 3 10 6 10 10 12 21 19 20 21 21 21 23 22 29 32 34 32 31 31 35 36 37 40 36 26 21 23 24 25 29 31 34 36 36 35 35 35 36 36 36 33 31
12 10 10 9 14 20 20 20 21 21 20 22 21 23 28 31 31 30 30 31 29 29 33 35 27 23 24 25 21 24 28 31 33 35 36 36 36 35 34 35 35 35 32 31
10 11 9 17 19 20 20 18 21 23 23 23 21 24 29 30 27 26 23 26 28 31 26 24 24 22 19 20 25 28 30 33 35 37 39 40 39 38 36 33 32 31 31 31
13 17 20 23 21 21 23 25 25 25 23 22 24 25 25 25 24 25 24 24 23 19 18 17 15 18 22 26 30 32 34 36 38 38 40 40 40 38 36 34 32 30 29 30
23 22 22 23 24 26 26 26 24 24 25 24 22 23 23 23 24 25 20 17 15 15 16 17 19 22 26 31 34 36 39 41 42 42 41 40 39 39 38 34 33 32 31 30
21 22 23 25 27 24 22 24 25 25 25 23 22 19 18 19 18 18 17 16 15 15 18 22 25 28 32 36 40 42 43 44 44 45 44 43 40 38 36 36 37 34 31 30
23 24 26 24 24 23 24 26 26 23 21 20 17 15 16 16 16 16 15 14 15 19 22 26 30 32 35 39 42 44 45 47 47 46 44 42 39 38 38 37 37 32 30 28
22 21 21 22 22 25 25 20 20 20 17 15 13 13 13 13 13 14 16 18 21 24 27 31 34 37 40 42 45 47 48 47 40 41 42 40 41 39 39 37 35 30 32 30
23 22 22 23 21 18 19 19 15 13 12 12 13 14 14 14 15 17 19 22 26 30 33 37 41 43 45 47 48 49 47 36 40 44 41 42 39 34 34 37 34 32 31 29
22 21 19 17 17 16 13 12 11 12 13 14 14 15 16 17 19 22 25 28 32 35 39 43 45 48 51 52 52 51 50 46 41 45 39 43 42 40 32 34 31 29 27 26
15 15 15 14 11 10 11 11 12 13 14 14 16 17 18 21 24 28 32 35 38 42 46 49 52 54 55 56 56 54 49 45 41 34 40 42 43 34 28 29 28 25 26 26
13 10 9 9 10 10 11 12 13 13 15 17 18 20 22 26 29 33 36 41 45 49 52 55 55 56 56 54 51 50 44 39 36 32 31 33 32 28 27 27 26 25 24 25
9 9 9 10 10 11 12 12 14 16 18 20 22 25 28 31 35 38 42 46 50 52 54 54 55 54 51 50 47 45 42 36 27 26 32 34 36 29 28 28 29 29 29 30
9 9 9 10 10 11 13 15 18 20 23 25 27 29 32 35 39 43 47 50 52 52 52 53 51 49 48 47 45 41 36 28 27 31 34 32 30 30 29 28 28 28 29 29
10 10 11 11 13 14 17 20 23 24 25 28 31 33 36 40 44 47 49 49 50 50 49 48 46 46 45 43 40 34 31 29 29 30 30 29 29 28 27 26 27 27 26 27
12 13 13 14 16 18 22 24 26 27 28 31 34 37 40 43 45 47 47 46 46 45 44 44 43 42 41 39 35 30 29 27 26 25 25 26 25 24 24 25 25 26 26 25
15 15 16 18 19 23 25 26 27 29 32 34 37 41 43 44 45 45 45 44 43 42 41 41 39 38 37 35 32 29 28 26 25 24 25 25 25 24 24 24 24 25 26 27
16 18 20 21 25 27 26 27 30 32 34 37 40 42 44 44 43 43 42 40 39 39 38 37 36 35 34 33 31 30 28 27 25 25 25 25 25 24 24 25 26 27 26 27
18 21 24 25 25 26 28 30 32 35 38 39 42 44 43 43 42 40 39 38 37 36 35 34 34 34 32 32 31 30 29 28 27 27 27 26 26 26 27 28 28 28 28 27

GFSNGP_700_spd_057.txt.gz
Wind_Speed
14 13 18 13 13 11 11 16 18 16 17 17 17 14 17 12 10 15 16 18 22 27 32 34 38 41 41 40 35 34 36 35 39 37 41 38 41 34 34 36 31 32 39 42
15 18 18 15 13 19 21 17 16 15 17 11 10 7 9 12 10 12 19 21 26 30 33 36 40 40 36 33 35 37 35 35 37 39 44 41 41 40 32 29 31 36 40 40
13 15 19 20 24 23 20 20 20 18 16 13 15 14 13 16 15 15 17 21 25 29 35 37 35 32 32 36 39 38 34 38 39 42 41 43 36 27 28 30 33 36 38 39
9 10 1 16 7 10 8 5 10 10 13 12 10 10 10 14 17 19 20 23 26 28 31 32 33 35 38 41 41 39 38 42 44 49 36 22 27 28 31 33 34 36 37 36
7 12 12 13 11 12 11 6 8 10 13 14 12 13 14 18 18 17 18 19 19 21 25 29 33 36 38 40 42 42 43 46 43 28 23 27 27 30 32 34 35 36 34 33
11 5 6 4 7 9 8 6 10 14 16 15 9 11 19 15 15 16 17 19 24 28 27 27 30 32 35 38 41 45 48 37 26 24 23 25 29 31 34 36 38 37 34 33
19 11 8 14 11 11 10 10 14 12 12 11 18 17 16 19 18 21 25 29 30 29 30 31 33 33 35 40 44 40 30 25 23 22 23 26 30 33 36 38 39 37 35 35
15 9 10 14 14 13 13 13 13 13 15 21 18 17 20 21 24 27 28 31 32 31 31 32 32 35 39 38 32 26 23 20 19 23 27 28 30 32 35 36 37 36 35 35
9 4 6 9 11 11 12 13 14 18 19 20 19 19 21 23 25 27 28 28 28 27 28 30 32 35 34 27 24 18 16 19 23 26 30 33 33 34 34 35 36 37 36 34
11 8 10 16 16 16 16 18 19 19 18 17 20 26 25 26 25 23 22 22 21 22 24 27 30 26 21 17 15 17 20 23 27 30 32 35 37 38 39 38 37 35 34 34
14 17 13 16 19 19 20 21 19 19 19 20 22 24 24 23 22 20 21 23 23 27 24 23 20 18 17 18 20 22 25 27 30 34 36 38 39 40 40 38 37 35 31 31
20 21 22 22 23 24 22 22 22 21 22 20 19 20 20 20 22 23 23 24 24 22 20 18 16 16 19 22 25 28 31 33 35 37 38 41 42 42 40 37 33 32 31 32
19 18 20 22 23 23 23 24 23 22 19 20 21 21 22 24 22 21 22 21 18 17 15 15 16 18 23 27 31 35 38 40 42 45 47 47 48 44 38 35 32 31 30 32
21 21 24 24 24 23 22 22 22 21 22 22 21 21 19 15 16 17 17 16 14 14 16 18 21 24 29 32 36 39 41 44 46 47 48 49 47 40 38 37 36 34 28 29
23 24 23 21 21 22 22 22 22 23 21 18 15 12 11 12 14 16 15 14 14 16 20 23 26 30 33 36 38 41 44 47 49 50 49 43 41 43 43 38 41 33 31 28
23 23 21 20 19 20 22 23 21 17 14 13 11 11 12 13 14 15 15 17 18 21 25 29 32 35 39 42 45 48 49 50 49 49 48 44 40 44 41 44 41 38 39 33
21 20 20 20 21 22 20 14 13 12 10 10 11 12 13 14 15 16 18 21 24 28 31 35 38 41 45 47 50 51 52 54 52 50 46 42 39 40 38 41 32 36 37 31
21 20 21 23 20 13 12 11 10 10 10 11 12 13 14 16 18 20 23 26 29 33 36 40 43 46 48 49 52 54 55 54 52 48 44 39 32 28 33 33 29 28 28 26
21 20 19 14 9 10 10 9 9 10 11 12 13 15 18 20 22 24 27 31 34 37 40 44 47 49 51 54 55 55 52 50 48 44 39 32 25 24 32 28 29 27 26 26
16 11 10 10 11 9 9 9 10 10 11 13 15 18 21 23 25 28 31 35 38 42 46 48 49 51 53 53 52 50 48 46 43 37 29 21 15 22 26 27 27 31 30 29
12 12 11 10 10 10 9 9 10 11 14 16 18 20 22 25 28 32 35 38 42 44 47 48 50 51 51 49 47 45 43 41 37 30 24 28 29 35 37 35 32 30 30 29
11 10 10 10 10 10 10 10 12 15 17 19 21 24 26 29 32 35 39 42 44 45 47 48 48 47 45 44 43 42 40 38 35 30 29 30 32 32 30 28 27 27 27 26
10 10 10 10 10 10 11 13 15 18 22 24 25 27 30 32 35 39 42 43 44 45 46 44 43 41 40 39 39 38 37 35 32 29 27 28 27 27 26 26 25 25 24 24
10 11 11 12 12 12 15 17 19 23 27 27 29 31 32 35 39 41 42 43 43 42 42 40 38 37 37 37 36 35 34 32 31 29 27 27 27 26 26 26 25 25 24 23
12 13 14 14 15 17 20 24 27 28 28 28 31 33 36 39 40 41 41 41 40 39 38 38 37 36 35 34 34 33 32 32 30 29 28 27 26 26 25 24 24 23 23 24
14 16 16 17 19 21 24 27 28 29 29 30 33 37 39 40 40 39 38 39 38 36 35 36 36 35 34 33 32 32 31 30 29 28 27 27 26 26 26 26 26 26 26 26
17 19 18 19 22 25 26 26 28 30 31 33 36 38 39 39 39 37 37 37 36 35 35 35 35 34 32 31 31 30 29 28 27 26 25 25 25 24 24 23 23 24 24 25

GFSNGP_700_spd_060.txt.gz
Wind_Speed
13 12 14 13 10 12 15 13 9 13 20 16 15 16 14 19 21 17 15 20 23 27 30 28 26 29 29 31 32 35 38 38 39 38 40 41 46 46 50 45 30 26 30 34
23 24 22 21 16 16 17 17 20 18 18 12 13 13 13 14 20 18 17 19 24 25 26 28 28 29 32 31 36 38 36 37 38 42 40 44 47 47 39 27 23 27 31 35
19 19 19 24 28 24 22 23 25 23 22 18 14 10 9 13 21 21 19 19 22 23 24 26 29 30 32 35 36 35 37 38 42 46 45 47 44 36 28 23 24 29 32 34
10 13 3 14 18 17 17 15 12 12 11 13 13 12 13 15 14 14 13 16 20 22 23 25 28 30 33 34 37 38 39 41 43 46 49 41 33 27 21 24 27 30 32 33
7 14 14 10 10 10 14 10 10 9 10 9 9 9 9 10 11 11 11 14 18 19 21 22 27 29 30 33 36 37 38 41 46 47 37 32 25 21 24 27 30 32 33 35
14 6 7 8 10 17 17 14 14 13 11 12 13 11 12 14 13 12 13 16 19 20 22 28 28 29 32 35 37 39 42 45 38 38 29 22 20 24 26 30 33 35 36 36
24 15 16 20 12 10 14 12 16 15 15 13 14 14 16 16 15 16 17 18 21 25 26 25 26 29 32 35 38 42 42 38 35 28 23 23 24 26 30 34 36 37 38 38
21 14 13 20 19 21 16 15 15 15 15 16 17 20 18 18 18 19 21 23 24 24 22 23 26 29 33 38 38 38 38 31 27 22 24 26 28 29 32 34 36 38 39 38
12 6 10 8 15 15 14 11 11 12 14 20 20 18 17 18 19 20 22 21 20 20 21 25 28 32 33 35 38 31 25 22 22 25 27 30 32 34 36 38 39 40 39 38
14 16 16 13 14 15 14 12 13 15 20 19 18 19 19 18 18 19 19 20 21 23 26 29 29 33 32 28 25 22 22 24 26 28 30 34 36 39 41 42 43 43 41 38
21 19 19 19 18 18 16 16 18 18 17 20 21 20 19 17 18 20 21 23 25 28 29 31 31 27 25 25 25 25 25 27 30 33 35 38 40 43 44 45 42 42 40 38
26 21 20 20 20 21 21 21 20 20 22 22 22 20 19 17 18 22 25 27 29 29 27 25 24 25 24 24 26 28 30 32 35 39 42 45 48 50 49 48 44 38 36 36
21 19 19 21 22 23 24 23 23 23 24 22 19 19 20 21 24 26 25 24 25 23 22 21 20 22 24 25 28 32 36 39 43 45 48 50 52 53 54 51 45 39 34 32
18 17 19 22 23 24 24 25 25 25 23 21 21 21 21 22 21 16 18 19 20 19 20 20 21 24 27 30 34 37 40 43 46 48 50 51 52 53 52 51 47 39 38 44
18 18 21 23 24 23 24 25 25 22 20 20 19 19 19 18 16 16 17 18 18 19 20 22 25 28 32 35 39 41 44 47 49 51 52 52 52 51 48 45 44 42 38 32
19 21 24 24 23 23 25 23 19 20 18 17 16 15 14 14 14 15 15 17 18 20 23 26 30 34 37 40 43 45 47 49 51 53 53 51 49 46 42 39 37 32 33 33
23 25 23 21 21 24 21 20 20 17 14 13 12 12 12 13 14 16 17 19 22 25 28 31 34 37 40 43 45 47 50 52 53 52 50 48 46 42 37 31 23 28 31 25
27 24 23 22 21 21 21 19 17 14 12 11 11 11 12 13 15 18 20 23 26 29 32 35 37 40 43 45 48 51 52 53 52 49 46 44 42 36 27 23 21 30 34 26
26 24 21 20 18 16 14 14 13 11 11 10 10 11 13 15 18 21 23 26 28 31 33 36 40 43 44 46 49 50 50 48 46 44 43 41 36 28 22 20 16 19 19 21
22 18 16 14 14 14 12 12 11 10 10 10 12 14 17 19 22 24 26 29 31 34 37 40 42 43 46 48 49 48 46 45 43 41 40 38 35 30 26 31 36 33 32 36
16 15 14 14 15 14 13 12 11 10 10 12 14 17 20 22 24 26 29 31 34 37 40 41 43 45 46 47 46 45 43 42 41 40 38 36 34 32 30 30 34 37 36 33
15 15 15 16 15 14 12 10 10 11 12 14 17 20 23 25 27 30 32 34 37 39 40 41 43 45 45 44 43 42 40 39 38 37 35 34 33 32 30 29 28 28 27 27
16 17 16 15 13 11 10 11 12 14 15 18 22 24 25 28 30 31 34 37 39 40 41 42 43 42 41 41 40 39 38 36 35 34 33 33 32 31 30 28 28 27 26 26
15 14 13 12 11 11 12 14 16 18 21 24 26 27 29 31 32 35 38 40 40 40 41 42 41 39 38 38 37 36 35 34 33 32 32 31 30 29 29 28 27 26 25 24
14 13 12 11 12 14 16 18 20 23 25 28 30 31 32 33 34 37 39 39 40 40 39 39 38 38 37 36 36 34 33 33 31 31 30 29 27 26 26 26 26 26 25 25
12 12 12 14 16 18 19 21 24 27 29 30 32 33 34 36 38 39 39 39 40 39 38 37 36 36 36 35 34 33 32 31 30 29 28 27 26 26 26 26 26 26 25 24
11 13 14 16 17 19 23 27 29 29 29 31 33 35 37 39 39 38 38 39 39 39 37 36 35 35 36 35 33 32 31 30 29 28 27 27 27 27 28 28 29 29 28 28

GFSNGP_700_spd_063.txt.gz
Wind_Speed
22 14 16 18 18 17 16 19 18 19 18 17 17 18 18 14 16 19 19 18 18 21 26 26 25 26 25 28 32 32 31 26 28 30 34 35 38 41 45 46 46 44 36 28
17 15 15 19 22 19 18 20 20 21 22 18 18 18 18 16 14 15 20 20 20 22 25 26 25 25 24 29 32 30 27 27 31 37 36 39 43 45 47 46 43 35 30 28
20 19 20 22 31 31 32 29 29 29 29 28 30 28 23 18 14 18 22 21 19 18 23 23 21 22 23 26 26 27 29 32 35 37 39 43 45 49 45 44 37 30 30 31
11 10 2 19 21 23 27 31 32 32 31 22 18 17 15 15 16 20 19 19 20 19 20 21 20 20 21 23 28 28 30 33 36 39 43 46 48 44 44 37 31 31 31 32
9 17 13 9 9 13 13 16 15 14 15 14 12 15 14 14 15 16 16 15 13 14 18 18 19 19 25 26 26 29 32 36 40 41 45 45 42 41 33 31 31 31 33 35
14 6 7 10 13 18 23 24 21 18 15 13 12 14 14 12 13 15 14 11 12 13 16 17 21 25 25 25 27 31 34 39 41 45 40 42 36 33 31 32 33 34 37 39
23 15 11 16 16 14 14 17 22 21 17 14 13 12 13 14 17 15 13 12 13 15 19 22 22 24 24 26 30 33 38 42 40 41 40 35 31 30 32 34 36 39 42 44
23 16 13 16 19 24 20 17 13 13 16 15 15 15 17 18 16 13 13 15 17 20 21 22 23 25 27 31 33 38 38 37 41 38 33 31 33 34 36 38 41 43 46 47
19 15 17 9 7 11 17 20 15 10 13 16 16 19 19 16 15 16 17 19 20 20 20 20 24 28 31 36 37 36 40 37 34 31 32 35 36 38 41 42 45 47 49 51
23 23 21 18 14 11 12 13 15 14 15 16 20 19 19 18 18 19 20 20 21 19 22 27 29 32 33 34 36 34 31 30 30 32 33 35 38 41 44 46 49 51 52 52
28 24 20 18 17 15 13 13 14 15 17 19 20 20 21 21 20 20 21 21 24 27 28 27 29 32 32 30 29 28 28 29 31 34 37 39 43 46 50 52 54 55 56 54
28 22 19 14 13 14 15 16 18 19 21 21 22 23 22 21 21 22 23 25 26 26 29 31 30 29 28 27 26 28 30 32 35 39 42 46 49 51 52 53 54 56 56 54
23 20 16 15 16 17 18 21 23 24 24 25 25 25 23 23 22 22 23 26 28 29 26 25 24 24 24 25 28 31 34 38 41 44 47 50 52 54 58 57 57 56 54 50
22 21 19 19 19 20 22 23 24 25 26 27 26 23 21 22 22 22 24 25 21 21 21 21 22 24 26 28 31 34 38 41 44 47 49 52 55 57 58 57 55 50 45 44
23 23 22 19 20 23 24 25 26 27 26 25 23 22 23 22 22 23 21 18 19 20 20 21 23 26 29 32 35 38 41 43 46 48 51 54 56 55 52 49 46 44 39 32
20 28 25 23 24 26 26 27 27 26 25 23 23 22 21 21 19 18 18 19 19 20 21 24 26 29 32 35 37 40 43 45 48 51 53 53 51 49 47 44 41 37 29 21
27 30 29 31 28 27 26 25 25 24 22 22 20 19 18 16 16 17 17 18 19 22 24 27 30 32 35 37 40 42 44 47 50 51 51 50 48 46 44 43 38 31 28 24
31 29 32 29 25 21 23 23 22 22 20 18 17 16 15 15 15 16 17 20 22 25 27 30 32 34 36 39 41 43 46 48 49 49 47 45 44 43 41 38 35 32 30 24
32 30 27 25 20 20 20 21 21 20 19 17 16 14 13 14 16 18 20 23 25 27 29 31 34 36 39 41 42 45 47 47 47 45 44 42 41 40 38 36 34 32 34 34
30 27 24 16 18 19 18 17 17 18 18 15 13 12 13 16 18 20 23 25 27 29 31 33 36 39 40 41 43 45 46 46 45 43 42 41 40 38 36 35 34 33 31 31
22 17 14 15 14 16 19 19 20 18 15 12 11 14 16 17 20 23 25 28 29 31 33 35 38 39 41 43 44 45 44 44 43 42 41 39 38 36 35 34 33 32 31 29
18 16 15 15 17 20 21 20 15 13 12 12 14 16 18 21 24 27 29 30 32 33 35 38 39 40 42 43 44 44 43 43 41 40 39 38 36 34 33 32 31 30 30 29
13 13 18 20 20 19 15 14 14 13 14 15 16 20 24 26 28 29 30 32 34 36 38 39 40 41 42 43 43 42 42 41 40 39 38 36 34 32 31 30 29 28 28 28
17 20 19 17 15 14 14 14 14 15 16 18 21 24 27 28 29 31 33 35 37 40 41 41 41 42 43 43 41 40 40 40 39 37 36 34 32 31 30 29 28 29 29 28
13 14 13 13 13 14 14 15 16 17 19 22 25 28 29 30 32 34 35 38 40 41 41 41 42 42 42 42 40 39 39 39 37 35 34 32 30 29 29 29 29 30 30 30
10 11 12 13 14 15 16 17 19 21 24 27 30 31 32 34 35 36 38 41 42 42 42 42 41 41 41 40 39 38 37 37 36 34 32 31 30 29 29 29 30 31 32 32
9 9 10 13 15 18 20 22 24 27 30 32 33 34 35 36 37 39 41 42 42 42 42 42 41 40 40 39 38 37 36 35 35 33 31 30 29 29 29 30 30 31 31 31

GFSNGP_700_spd_066.txt.gz
Wind_Speed
22 20 20 21 20 19 21 24 20 23 24 17 17 17 17 19 17 18 17 22 18 19 17 17 23 25 25 25 25 25 27 31 32 25 25 28 30 32 36 39 41 44 42 42
22 24 23 19 21 21 22 22 25 23 26 20 21 21 19 19 19 19 20 18 20 19 18 21 23 25 25 24 22 25 29 36 25 27 29 31 33 44 35 43 45 41 44 38
22 22 19 19 27 27 30 31 32 34 35 29 29 29 31 32 27 23 17 19 21 21 19 19 22 24 23 21 19 20 21 24 26 28 31 35 40 41 41 43 42 45 37 34
17 15 1 28 28 27 27 28 31 35 35 31 27 25 20 15 18 17 17 19 20 19 19 20 18 20 20 16 16 18 21 24 27 30 36 39 45 40 45 44 42 35 33 36
15 19 21 25 22 20 19 21 17 18 15 11 11 11 13 13 12 12 13 15 17 18 18 17 16 16 17 18 21 24 25 27 31 36 34 39 42 43 42 39 34 33 35 37
15 8 8 25 15 20 23 35 28 20 14 12 10 11 11 13 15 15 14 15 15 14 14 15 16 18 20 22 23 23 27 31 33 34 41 42 40 40 36 32 33 36 39 42
25 16 17 20 16 14 17 25 17 17 19 16 14 13 13 12 13 15 18 16 14 13 14 15 17 20 20 22 23 25 29 33 35 38 38 39 36 33 33 35 39 40 43 45
27 19 14 22 21 23 21 20 17 12 11 15 15 14 13 14 16 18 18 16 16 17 18 19 20 21 20 23 26 29 31 38 38 36 35 34 34 34 37 40 42 44 47 50
28 28 27 20 21 16 13 18 17 13 12 15 16 14 15 17 19 17 18 18 18 19 21 21 22 23 27 29 31 31 31 33 36 32 32 33 35 37 40 42 46 50 53 56
27 31 29 27 25 22 18 15 15 16 13 14 16 17 18 19 18 19 19 20 20 22 23 24 23 26 29 30 27 33 29 29 30 30 31 33 36 40 44 47 51 54 57 60
33 33 27 30 26 20 17 16 16 17 16 16 18 19 19 19 20 20 22 22 22 24 23 24 28 28 25 28 30 28 27 27 28 31 34 37 40 43 46 49 53 56 59 60
40 37 32 29 19 14 18 17 16 17 17 18 19 21 22 23 23 24 24 23 24 22 26 26 25 30 31 27 25 25 27 29 32 34 37 40 44 46 47 50 53 55 55 55
30 29 27 31 25 20 19 19 19 20 20 22 24 25 25 25 24 22 23 23 23 25 27 30 30 24 24 24 25 27 30 32 35 38 41 44 47 50 53 51 53 53 51 50
28 29 34 27 24 23 21 21 21 23 24 26 27 27 26 24 23 23 24 24 25 27 26 21 22 22 23 25 27 29 32 35 38 40 43 46 49 51 53 55 56 54 48 46
26 31 29 26 23 21 20 21 23 25 27 28 28 27 25 23 23 24 24 24 25 22 19 20 21 22 25 27 29 32 34 37 39 42 45 47 49 51 52 51 51 49 47 42
25 23 24 26 28 23 20 21 28 29 29 29 28 26 24 24 24 24 25 23 19 18 19 20 22 25 27 29 31 34 36 39 42 43 46 48 49 50 49 49 47 45 43 42
27 23 22 24 26 30 27 22 29 30 28 26 25 24 23 23 22 22 19 18 17 18 20 23 25 27 29 31 33 35 38 41 42 44 46 47 48 48 47 46 44 42 40 38
22 22 24 25 25 29 26 31 35 31 21 22 22 22 23 22 20 19 17 16 18 21 23 25 27 30 32 34 35 38 40 41 43 45 46 46 46 46 45 43 41 40 38 35
29 28 28 27 26 28 28 29 22 19 21 23 24 22 21 21 19 16 15 17 20 23 25 27 30 32 34 35 38 39 40 42 43 45 45 45 44 44 42 41 39 37 36 35
29 27 25 22 24 26 20 19 18 20 23 23 22 22 19 16 13 13 16 20 23 25 28 30 32 34 36 38 39 40 41 42 43 44 44 44 43 42 40 39 37 36 34 33
21 22 23 24 17 16 19 19 20 23 24 21 18 16 13 12 12 16 20 23 26 28 30 32 34 36 38 39 40 41 42 43 43 43 43 42 41 40 38 37 35 33 32 31
20 15 14 13 13 14 19 23 24 22 18 16 15 13 13 14 17 22 24 27 29 31 32 35 36 37 39 40 41 41 43 43 43 42 42 42 41 39 37 36 34 32 31 30
16 18 12 11 16 20 21 20 18 17 16 16 14 14 18 19 22 25 28 30 32 33 35 36 37 39 40 41 42 42 42 42 42 42 41 40 39 38 36 35 33 31 31 30
11 11 14 17 17 16 16 15 15 16 15 14 16 19 21 23 26 30 32 33 35 36 37 38 40 41 42 42 43 43 42 42 42 41 40 38 38 37 35 34 32 31 31 31
10 10 11 12 11 12 13 14 15 15 16 18 21 23 25 28 32 34 35 37 37 38 39 40 42 43 43 44 43 43 42 41 40 39 38 37 37 36 33 32 31 31 30 31
5 7 7 7 8 10 11 14 17 19 21 23 26 29 31 34 35 37 38 38 40 41 42 43 44 44 44 43 43 42 41 39 38 37 37 37 36 35 32 30 30 30 31 31
3 4 6 8 11 13 17 19 21 24 26 29 31 34 36 36 38 39 39 41 42 43 44 45 44 43 43 42 41 40 38 37 36 36 36 36 35 33 30 29 29 29 29 29

GFSNGP_700_spd_072.txt.gz
Wind_Speed
26 21 18 19 19 19 23 25 26 23 22 20 18 19 19 19 18 16 17 20 19 17 17 20 21 22 22 21 23 25 23 25 26 28 27 28 34 36 31 20 28 23 34 31
20 20 20 22 21 21 22 20 22 24 26 21 21 21 23 23 22 20 19 20 20 20 20 19 25 23 24 24 22 24 25 27 29 30 30 28 29 34 35 30 21 29 28 32
19 18 15 21 27 22 21 23 23 25 25 22 24 25 25 26 25 26 27 28 29 29 28 28 28 29 27 26 27 27 29 31 32 32 30 23 25 29 29 24 31 30 33 33
19 18 8 24 19 20 23 24 24 26 28 29 27 26 27 28 29 28 24 21 19 19 22 22 24 27 28 29 30 31 33 33 31 27 23 23 25 27 31 29 30 35 36 33
12 18 19 20 22 23 25 26 21 25 26 23 26 20 21 21 20 17 15 14 13 13 13 15 18 21 23 25 29 32 32 28 25 23 22 24 26 24 30 33 36 33 32 30
14 9 8 21 23 23 20 30 22 20 20 20 19 22 16 15 15 15 16 15 15 16 19 20 21 22 23 22 23 23 24 24 22 23 22 20 28 31 29 33 34 30 29 31
24 14 14 18 15 16 15 29 17 20 19 20 18 20 19 16 17 18 18 18 17 17 17 18 19 19 20 20 22 23 23 23 19 21 27 30 31 31 33 31 29 29 31 33
19 14 14 20 19 24 27 20 21 20 20 21 18 17 20 20 20 19 19 18 17 17 17 17 17 18 19 20 22 20 23 21 24 26 28 29 30 30 29 29 30 32 33 35
24 20 22 20 19 21 20 20 22 22 23 22 17 18 19 21 21 21 20 19 18 17 17 17 17 19 20 20 20 21 22 24 25 28 29 29 29 27 28 30 32 34 36 38
32 24 24 24 25 24 25 25 24 24 24 23 18 18 20 23 24 23 21 20 19 18 18 19 19 20 19 20 20 22 25 27 28 27 29 26 27 28 30 32 34 36 38 40
39 35 30 30 25 23 22 25 30 25 25 24 21 22 23 25 25 25 22 21 20 19 20 21 21 21 21 22 23 25 26 26 28 25 25 26 27 30 32 34 35 38 40 42
32 28 33 28 24 25 24 27 30 24 26 25 23 23 24 26 27 25 24 23 22 22 22 23 23 23 23 25 26 25 26 25 23 24 25 27 30 32 32 35 38 40 41 42
34 30 27 20 22 22 24 25 26 25 29 28 24 24 26 28 27 27 28 27 26 26 25 25 24 25 26 27 27 25 22 23 24 26 28 29 31 33 36 39 38 39 41 43
28 30 28 25 30 29 30 29 27 27 29 30 28 27 27 29 30 31 31 30 28 28 27 26 27 27 29 27 23 21 21 23 26 28 30 31 33 35 37 38 40 41 43 43
27 29 27 30 31 32 31 29 31 26 30 32 32 32 32 32 34 35 33 32 32 32 31 29 30 29 25 22 19 20 23 26 28 30 32 34 35 37 39 40 41 42 43 44
27 29 28 27 26 33 32 28 25 27 31 34 32 34 36 36 34 34 36 39 36 29 26 26 26 23 19 20 21 21 25 28 30 33 35 36 38 39 40 42 42 43 44 44
24 27 27 24 24 25 29 24 22 24 26 31 32 30 29 31 34 38 37 31 29 30 32 27 20 18 17 18 20 24 28 31 34 35 37 38 39 41 42 43 44 44 44 45
27 27 25 22 19 18 21 19 16 17 21 23 29 37 38 35 32 29 28 31 34 31 22 18 17 18 19 21 25 28 31 34 35 37 39 39 40 42 43 44 44 45 45 44
21 20 18 19 21 21 19 17 19 24 29 31 29 29 24 24 27 30 32 30 24 22 21 20 20 20 23 26 28 31 34 36 38 39 40 41 42 43 44 45 45 45 45 44
23 22 22 22 20 18 21 26 26 19 22 25 24 24 25 27 26 22 21 22 22 21 21 20 21 24 26 29 32 35 37 39 40 40 41 43 44 45 45 46 45 44 43 42
15 15 14 13 13 14 14 19 21 22 21 23 24 22 19 18 20 21 20 20 21 21 21 23 26 28 30 33 35 37 40 41 42 43 44 45 46 46 46 45 44 42 41 39
6 6 7 9 12 13 12 13 15 16 16 15 15 16 17 17 18 18 19 20 22 23 26 28 30 32 34 36 38 40 41 43 44 45 45 46 46 45 44 43 41 40 38 36
7 7 7 6 6 8 9 10 12 13 13 13 13 14 14 16 17 19 21 24 27 29 32 33 35 36 38 40 41 42 43 44 45 45 46 45 44 43 42 40 38 37 35 34
5 4 4 4 3 4 4 5 7 8 10 11 11 14 16 19 22 24 27 30 32 34 36 38 40 41 42 43 44 44 45 45 45 45 44 43 42 41 39 37 35 34 33 32
5 3 3 3 2 2 3 5 7 8 10 12 15 18 21 23 25 28 31 34 36 39 41 42 43 44 45 45 45 45 45 45 44 43 42 40 39 37 35 34 33 32 32 31
4 3 2 1 2 3 5 7 9 12 15 18 21 23 26 28 30 33 36 38 40 42 44 46 46 46 46 46 45 44 43 43 41 40 38 37 35 34 33 32 32 31 30 29
3 2 1 3 5 7 10 13 16 18 20 23 25 28 31 33 35 38 40 42 43 45 46 46 46 45 44 44 43 41 40 39 38 36 35 34 33 33 32 31 30 29 27 26

GFSNGP_700_spd_075.txt.gz
Wind_Speed
30 24 19 21 22 25 29 28 30 27 27 23 17 15 17 16 16 16 15 14 15 16 18 19 19 22 25 29 33 33 30 30 33 31 30 28 29 30 31 30 32 22 29 21
29 26 24 23 22 22 23 23 26 25 26 20 19 19 19 19 18 19 17 21 21 22 16 23 24 25 29 29 29 30 29 29 31 31 30 30 31 32 32 29 33 32 27 27
27 26 26 28 27 24 23 24 23 26 23 20 20 20 21 22 21 24 26 26 26 26 29 32 30 28 29 31 30 30 31 30 31 32 32 33 31 30 28 30 29 28 27 30
18 19 14 21 21 21 24 26 23 24 22 22 21 24 24 27 27 31 29 30 32 33 33 35 38 37 33 33 33 32 32 33 33 35 34 31 30 26 27 28 31 32 31 34
18 22 23 23 25 23 22 23 23 24 22 20 20 23 27 28 21 25 24 24 21 19 17 17 18 18 18 22 27 30 32 35 34 32 29 26 26 24 29 30 30 33 32 34
15 18 18 28 25 17 17 27 23 21 20 19 16 21 16 21 18 17 17 17 17 16 16 15 17 18 20 22 24 25 26 27 26 25 26 27 27 28 27 32 34 34 33 32
22 14 14 16 17 17 17 27 11 12 14 15 14 16 19 21 20 17 17 18 18 18 18 18 19 22 23 25 24 24 24 24 26 27 27 28 27 31 32 32 32 32 30 30
21 20 14 18 18 20 22 15 16 16 15 18 20 19 19 19 21 19 19 20 20 20 20 21 21 21 22 24 24 24 26 27 27 28 25 29 31 31 31 32 32 31 30 31
19 16 17 19 22 21 18 17 18 18 19 19 21 21 18 20 21 22 22 22 23 23 23 23 23 23 23 23 24 26 26 26 27 26 28 30 31 31 32 32 30 32 33 34
27 29 23 18 17 18 18 20 22 20 20 22 22 23 20 22 23 23 24 25 25 25 25 25 24 25 25 26 26 27 26 26 27 29 30 31 31 31 29 29 31 33 35 36
25 24 24 27 28 22 20 20 21 21 21 24 27 26 21 23 24 26 27 27 27 27 27 26 26 27 28 28 28 27 27 28 30 31 30 31 30 28 30 30 32 34 36 38
21 20 23 28 27 30 32 28 29 27 25 26 27 25 22 25 28 30 30 30 31 30 29 29 29 29 29 29 29 30 30 31 31 31 30 28 28 28 31 34 34 35 37 39
21 19 21 19 18 19 26 26 22 26 25 24 23 27 26 27 30 31 33 34 35 35 34 34 33 32 32 32 32 32 33 33 31 27 26 26 28 31 35 35 35 37 39 41
25 26 27 28 28 24 23 24 26 30 30 31 31 30 29 31 31 35 36 37 39 40 40 38 37 37 38 38 35 33 32 29 24 23 25 28 30 32 34 36 39 42 44 42
24 23 24 23 25 28 28 28 30 32 30 30 29 30 31 33 36 39 41 43 43 42 42 41 41 41 39 33 34 34 26 23 24 24 25 29 32 34 37 38 39 40 42 44
29 20 23 26 26 29 30 26 29 32 32 30 28 29 31 38 42 43 44 41 38 37 38 40 39 36 35 37 32 27 25 25 25 25 28 31 33 36 38 40 41 42 43 44
20 22 27 30 28 30 32 30 28 27 25 26 27 28 32 34 34 34 35 36 37 37 38 37 35 33 28 25 26 26 26 25 26 28 30 33 36 39 41 43 43 44 45 46
19 21 22 24 27 29 25 22 19 21 19 17 17 19 24 25 31 32 31 33 35 33 31 28 26 26 26 25 25 25 25 26 28 30 34 36 39 42 43 44 45 45 46 46
30 27 25 23 23 26 24 18 18 17 16 18 19 23 26 26 27 30 28 26 25 24 24 27 28 27 26 25 25 27 29 30 32 34 37 40 42 43 44 45 46 46 47 47
32 28 26 23 23 21 20 17 19 18 19 19 17 21 24 24 21 20 20 21 23 25 25 25 25 25 25 27 29 31 32 34 36 39 41 42 44 45 46 47 47 47 47 46
26 24 20 19 16 11 9 10 12 17 18 15 15 13 12 13 15 17 19 21 22 22 23 24 26 28 30 32 34 36 37 39 42 43 44 45 46 47 47 47 47 47 46 44
13 12 11 8 8 9 12 12 9 8 8 7 7 9 11 13 15 16 17 19 21 23 25 27 30 32 34 36 38 40 42 44 45 46 46 47 47 47 47 47 46 44 43 41
8 10 9 9 6 4 3 3 4 3 3 4 6 9 11 13 14 16 19 22 24 26 29 32 34 37 39 41 43 45 46 47 47 47 47 47 46 45 45 44 43 41 39 38
10 8 5 3 2 2 2 2 2 2 5 7 9 11 13 16 19 22 24 27 29 32 34 37 39 41 43 45 47 48 48 47 47 46 45 45 44 43 41 40 39 37 36 35
5 3 2 3 3 2 1 2 4 6 8 11 13 16 19 22 24 27 29 31 33 37 41 41 43 45 47 48 48 48 47 45 44 43 42 41 40 38 37 36 36 35 34 33
6 5 4 3 2 0 2 4 7 10 12 15 18 20 23 26 28 31 34 37 39 41 43 45 47 46 46 46 46 45 44 42 41 40 39 37 36 35 35 34 33 32 31 30
7 6 4 2 1 4 7 9 12 15 18 20 23 25 28 31 34 36 38 39 41 42 43 44 45 45 45 43 42 42 41 40 39 37 36 35 34 33 32 31 30 29 28 27

GFSNGP_700_spd_078.txt.gz
Wind_Speed
34 28 25 27 28 26 31 28 28 22 24 21 20 17 11 8 11 8 9 13 13 15 16 19 20 18 19 26 28 28 28 29 32 30 33 31 33 29 32 35 28 32 32 37
32 31 34 27 27 28 27 27 28 25 27 22 20 19 16 14 16 16 15 18 16 16 17 21 23 24 26 28 27 26 28 30 31 33 31 27 29 35 38 34 31 33 31 33
28 31 29 34 33 22 21 22 21 23 20 18 19 19 17 14 16 14 18 23 27 25 24 24 32 28 28 29 28 28 29 30 32 30 27 30 34 38 33 30 29 31 30 31
24 22 24 27 25 27 23 23 22 21 19 18 19 20 20 19 19 19 27 31 31 30 31 33 35 36 37 37 34 29 28 31 32 33 33 34 35 32 29 28 29 31 31 31
18 27 21 26 19 17 18 23 20 20 22 22 20 22 18 19 27 26 27 26 25 27 34 31 26 21 19 19 19 21 25 30 33 35 33 31 28 26 26 27 28 30 30 30
9 10 10 21 25 17 20 26 20 20 22 22 19 19 19 21 21 21 21 21 19 21 20 18 18 17 17 18 19 20 22 23 25 26 25 25 25 25 26 29 30 30 32 33
24 14 10 16 23 24 26 21 19 15 11 13 13 15 18 17 18 19 21 19 18 19 19 19 19 19 21 22 24 24 24 22 22 22 23 25 26 27 29 28 31 32 32 33
22 18 18 12 13 28 27 22 20 15 16 13 18 20 19 19 18 17 18 18 19 20 21 21 22 23 24 25 25 24 23 24 24 25 26 27 28 29 28 33 34 33 31 32
15 21 12 17 23 15 17 19 18 12 15 16 18 17 17 19 21 18 19 20 22 24 24 24 24 25 26 26 25 25 25 26 27 28 28 28 30 29 33 35 34 33 31 30
21 30 21 15 20 19 20 21 19 18 17 19 19 19 18 21 23 20 20 23 26 27 27 27 27 28 28 27 27 27 28 29 29 30 29 28 32 34 35 34 33 31 32 32
26 20 16 18 20 23 18 18 17 13 15 21 25 24 26 26 25 22 23 26 27 29 29 30 30 31 30 30 30 31 31 32 32 33 32 33 34 36 34 31 29 30 32 34
17 16 17 18 17 18 23 28 27 32 26 24 24 24 24 23 22 24 25 28 30 32 33 34 35 34 34 34 36 35 35 37 35 35 35 35 34 34 32 26 27 29 32 35
18 17 22 18 17 18 20 23 24 22 19 22 23 23 22 25 25 28 30 32 33 36 37 39 40 41 41 42 41 39 36 38 39 38 33 34 34 30 31 30 27 29 32 35
22 21 25 25 26 23 21 18 18 19 21 24 27 28 28 32 32 32 34 36 38 40 42 43 44 44 41 39 39 41 42 43 38 34 34 31 29 28 27 31 33 34 34 37
19 21 29 28 26 22 20 21 25 26 25 27 26 25 29 31 34 35 38 41 42 43 43 44 41 39 38 38 39 40 39 37 37 33 30 31 31 31 30 31 32 33 37 42
21 25 31 27 26 22 22 23 24 25 27 27 29 31 33 37 37 39 39 38 38 39 35 33 36 40 39 36 33 33 34 33 32 33 31 30 29 29 31 33 34 36 39 42
25 26 24 27 28 26 27 27 26 27 30 27 24 25 22 21 21 23 25 28 31 32 32 32 30 28 27 29 31 31 31 31 30 30 30 30 31 32 34 35 37 40 42 44
23 24 24 20 19 20 21 23 26 25 22 20 16 18 14 14 19 20 21 23 25 24 22 22 22 24 26 27 29 29 28 28 29 30 31 33 33 35 37 39 41 43 44 45
25 22 18 16 19 22 23 22 24 27 20 14 13 15 18 18 18 17 18 16 16 18 19 20 22 24 25 25 26 27 29 30 32 34 35 36 37 40 42 43 45 46 47 47
25 25 26 26 24 23 23 25 26 23 18 15 12 11 12 13 13 12 11 12 13 15 18 21 22 23 24 26 28 30 32 34 36 38 39 41 43 44 46 46 47 47 46 46
29 30 30 29 27 27 25 20 14 10 7 7 7 8 7 6 6 7 10 12 15 17 18 21 23 25 28 31 34 35 37 38 40 42 44 45 46 46 46 46 45 44 44 43
23 21 23 23 20 15 10 7 6 4 2 1 1 2 3 4 7 10 12 15 17 20 23 26 28 31 33 35 37 39 41 43 45 46 46 45 45 44 44 43 42 41 40 38
14 13 13 12 9 5 3 3 2 2 2 2 3 4 7 9 12 14 17 20 23 26 27 30 32 35 38 40 42 43 44 45 45 45 45 44 43 42 41 39 38 37 36 35
14 11 8 6 5 4 2 3 2 2 2 4 6 8 10 13 17 20 22 25 28 31 33 35 37 38 40 42 43 44 44 44 44 44 43 42 40 38 37 37 35 34 33 32
10 8 6 6 6 5 4 3 1 2 4 7 10 13 17 19 22 24 26 28 31 35 37 37 38 39 40 42 43 44 45 44 44 42 40 39 37 36 35 34 33 32 31 30
9 8 7 6 5 4 3 2 4 6 9 12 15 18 20 23 25 27 29 31 32 33 35 38 40 42 43 43 43 43 42 42 41 40 38 36 34 33 32 30 29 29 28 27
9 8 7 5 2 1 4 6 10 12 14 16 19 21 24 26 28 29 30 31 33 35 37 39 40 42 43 44 45 44 42 40 38 36 34 32 30 29 28 27 26 25 24 24

GFSNGP_700_spd_081.txt.gz
Wind_Speed
29 30 28 31 29 29 30 29 29 32 28 20 18 18 15 11 13 16 8 14 15 16 16 18 16 18 17 20 23 24 28 28 26 26 27 24 28 26 30 31 31 35 36 29
31 31 28 25 31 30 35 33 30 30 25 17 17 18 19 19 15 10 8 14 17 19 20 19 22 23 23 22 25 24 26 24 23 24 26 28 31 31 33 31 37 35 32 31
25 34 29 27 34 31 23 27 28 24 22 18 15 18 16 17 11 14 19 22 24 27 27 30 30 32 29 25 23 24 26 26 27 28 28 32 32 32 33 35 33 33 34 39
13 17 14 15 20 20 25 30 19 14 13 11 9 16 18 19 19 16 18 19 23 26 30 32 32 33 31 29 30 33 30 31 31 32 33 35 33 31 33 31 33 36 34 38
6 20 14 19 21 20 24 22 23 22 21 18 16 16 20 21 24 23 22 26 29 27 26 29 30 30 30 28 26 23 23 24 26 29 31 31 34 32 29 27 30 34 33 38
1 1 7 23 19 16 16 22 15 18 21 18 19 22 20 18 19 24 27 27 26 23 20 20 20 20 19 19 19 19 20 20 22 24 27 27 25 23 25 28 33 34 35 34
15 7 12 15 22 20 20 11 17 16 17 13 17 20 17 14 16 21 21 22 22 20 17 17 17 18 19 19 20 21 21 23 24 24 24 22 22 23 28 33 31 31 32 32
19 9 9 12 11 24 21 23 25 26 20 17 16 17 16 16 17 18 19 20 20 18 18 19 20 21 22 23 24 24 25 26 25 24 22 22 24 28 31 31 29 30 33 34
21 21 4 15 22 11 20 13 11 19 22 18 18 18 19 19 19 17 19 20 21 23 20 21 23 24 26 26 25 26 26 26 25 24 25 27 30 32 30 30 31 34 34 37
19 17 25 28 17 27 26 18 21 20 23 21 18 16 20 20 21 21 22 24 24 24 24 26 27 28 28 28 28 28 29 28 27 29 30 33 33 32 32 33 35 36 35 31
20 21 11 19 14 22 33 21 25 19 18 12 10 13 17 19 21 19 19 21 23 24 25 28 31 32 33 33 33 33 33 32 32 33 34 34 34 35 36 38 37 35 36 34
18 16 19 17 16 13 15 20 21 21 26 30 28 24 20 21 20 20 21 23 25 27 30 32 34 36 38 39 39 38 38 37 36 36 36 38 40 40 37 36 36 35 33 34
17 14 17 19 18 17 14 19 23 25 27 25 24 23 21 22 23 24 27 31 32 33 34 37 38 40 40 40 42 43 42 39 38 39 41 43 43 40 36 33 33 33 33 33
23 21 18 17 21 24 20 17 16 16 19 18 20 22 22 23 28 31 32 33 33 36 39 40 39 38 39 40 41 40 39 41 42 41 37 33 34 35 36 37 35 32 30 32
16 24 24 24 25 26 25 24 24 21 21 20 21 24 25 26 30 33 34 35 36 38 38 37 36 36 36 36 36 36 36 32 28 29 32 34 34 33 32 33 34 33 34 37
20 22 18 20 20 24 26 22 21 19 20 20 21 23 25 26 25 27 28 31 33 33 32 30 30 30 30 28 26 24 24 27 29 31 31 30 31 32 32 32 34 36 37 38
33 31 29 29 28 26 26 25 22 20 21 21 22 22 21 20 20 22 23 23 23 23 25 26 24 21 19 18 20 22 25 26 28 29 30 30 31 32 34 35 37 39 40 41
25 27 26 25 26 21 17 18 20 20 20 21 21 20 17 14 12 17 18 18 18 19 19 16 14 14 16 18 21 23 25 26 27 29 31 33 35 37 38 39 40 42 43 45
22 21 22 21 17 14 13 16 18 17 15 19 25 21 15 15 16 14 13 13 11 10 10 11 13 16 19 22 23 25 27 30 32 34 36 37 39 41 42 44 45 46 46 46
17 20 20 20 20 18 19 20 19 20 19 19 18 15 11 10 9 9 8 7 7 8 11 14 17 20 23 24 26 29 32 35 37 39 41 42 43 44 45 45 46 47 47 46
22 23 25 26 24 23 23 18 20 20 17 15 11 9 8 6 4 4 6 7 10 12 15 17 20 23 27 30 32 34 36 38 40 42 44 45 46 46 47 46 46 45 43 42
32 29 24 22 23 23 24 21 16 13 11 9 6 4 2 2 4 6 8 10 13 16 20 22 25 28 31 34 37 39 41 43 44 45 45 45 45 45 44 43 42 41 39 38
20 20 20 18 15 15 16 13 10 8 5 3 3 3 3 4 7 10 13 16 18 21 24 27 30 33 36 38 39 41 42 43 44 44 44 44 43 42 41 40 38 37 35 34
18 19 19 17 14 12 9 9 7 6 5 4 4 5 7 9 12 15 18 22 25 27 29 30 32 34 35 38 40 42 43 43 44 44 43 42 40 39 38 36 34 33 31 30
20 18 15 13 12 10 8 8 6 5 4 5 7 9 11 14 16 20 23 25 27 28 30 30 32 34 36 38 40 41 42 43 43 42 41 39 36 34 32 30 29 28 27 26
16 15 13 13 10 9 7 5 4 4 6 8 11 14 16 18 20 21 22 23 26 29 31 34 35 36 38 39 41 41 41 41 39 37 34 31 29 28 26 25 25 24 23 23
15 14 12 9 6 4 3 3 4 6 8 11 14 15 18 20 21 22 23 25 27 28 30 32 35 37 38 39 39 39 38 35 33 29 26 25 24 24 23 22 22 21 21 20

GFSNGP_700_spd_084.txt.gz
Wind_Speed
37 38 27 21 21 17 40 38 33 35 31 27 21 18 19 18 14 20 18 18 19 23 20 16 18 17 17 18 17 14 19 22 24 24 26 28 33 27 21 20 22 24 27 29
31 34 31 25 31 30 20 31 31 30 27 24 27 22 21 20 18 18 19 17 13 17 20 20 22 21 23 21 19 18 20 22 23 23 26 26 25 26 26 27 27 29 31 34
24 21 28 23 39 33 29 23 14 22 26 27 23 21 21 21 16 19 17 14 15 16 20 24 26 26 27 26 23 23 23 22 22 26 29 29 29 30 31 33 34 36 38 38
12 22 13 30 32 22 29 35 23 19 15 15 14 17 14 14 17 13 18 16 17 19 20 23 25 28 29 28 26 25 27 26 30 31 33 34 36 36 36 37 40 38 38 40
6 16 10 27 19 23 24 27 28 17 19 17 15 17 16 15 14 16 15 17 19 21 25 28 26 24 26 27 27 28 29 29 27 28 29 31 33 35 36 35 32 35 33 30
5 4 8 22 32 16 12 18 20 21 17 19 20 17 15 13 14 18 18 18 22 26 24 26 23 21 22 23 25 27 25 24 23 24 24 26 28 30 30 30 31 33 34 33
21 7 6 8 19 34 18 10 18 19 24 17 16 17 17 18 18 16 17 17 19 19 20 20 18 19 20 20 22 22 22 22 23 24 26 26 26 26 27 26 30 29 33 36
17 12 9 14 6 18 24 19 18 11 13 15 9 8 8 12 14 15 15 14 15 16 17 18 19 19 20 23 24 24 24 24 25 26 26 27 26 25 24 24 26 31 35 40
16 13 17 15 16 19 11 22 21 20 18 15 16 13 13 14 15 16 15 16 16 18 19 20 20 22 24 25 26 26 27 28 29 30 30 29 27 26 26 30 35 39 36 40
20 17 13 7 19 22 17 14 21 26 11 9 10 14 14 13 16 18 20 20 20 19 21 22 22 24 26 28 29 31 31 31 32 32 32 30 29 30 32 36 38 39 42 44
17 20 15 17 14 29 28 26 22 20 19 12 9 9 14 18 19 21 21 22 21 20 19 20 23 25 28 30 32 34 34 35 35 35 33 33 34 36 38 41 43 45 48 48
28 14 18 20 13 14 10 13 26 29 24 16 16 15 18 23 23 23 24 22 21 23 25 27 28 30 34 36 35 34 35 36 36 36 35 37 42 43 45 48 49 44 39 40
20 10 15 18 10 14 14 16 14 8 30 27 23 22 28 30 27 27 23 21 25 27 29 29 31 34 35 36 35 35 38 39 38 35 34 36 38 40 41 39 39 41 42 41
27 24 17 15 16 15 16 13 11 13 17 18 20 20 19 21 22 22 25 25 27 28 28 31 33 33 32 31 31 32 32 32 32 33 33 35 35 34 34 36 37 37 37 38
16 21 23 19 17 18 16 15 15 15 16 16 16 19 20 19 19 21 24 24 26 26 27 30 29 26 25 25 27 29 30 32 31 29 26 27 29 32 34 35 36 37 38 39
19 18 22 21 23 20 19 19 19 17 16 16 17 16 17 18 19 21 23 23 24 26 25 25 25 25 25 25 26 25 22 20 21 24 27 29 31 32 34 35 37 39 40 41
35 29 25 20 18 19 16 16 17 17 16 17 18 19 19 20 21 22 24 25 24 22 22 23 23 22 20 18 17 18 20 22 25 27 29 31 32 34 36 38 40 42 44 45
33 32 31 30 26 22 20 18 17 16 16 16 17 17 17 19 24 26 22 21 20 21 20 19 17 15 15 17 18 21 23 25 27 29 32 34 37 39 41 43 45 46 47 48
26 28 24 21 20 17 17 17 15 15 14 14 12 15 19 24 22 20 18 18 17 14 13 13 13 15 17 19 22 24 27 29 32 35 37 40 42 44 45 47 48 49 49 49
19 21 20 18 15 12 14 18 15 15 13 16 18 20 21 20 18 16 13 11 9 10 11 13 16 18 20 23 26 29 32 35 37 40 42 44 45 46 47 48 48 49 48 48
14 13 13 14 14 16 19 20 16 15 19 19 22 20 17 13 9 6 5 6 9 11 13 16 20 23 26 28 31 33 36 38 40 41 43 44 45 47 48 48 48 48 47 46
17 15 16 17 17 19 19 19 20 22 20 18 13 9 6 4 3 4 6 9 11 14 17 20 23 26 29 32 34 35 37 39 41 43 44 46 47 48 48 48 47 46 44 42
21 23 23 19 19 20 23 21 15 12 12 10 7 4 1 2 4 6 9 12 15 17 20 23 26 28 30 32 35 37 39 42 44 45 47 48 48 48 46 44 42 40 38 36
15 16 15 15 13 15 17 18 14 12 8 5 3 1 2 5 8 10 13 15 18 20 21 24 27 30 32 35 37 40 42 43 44 44 44 43 41 39 36 34 31 30 29 28
18 20 21 20 18 16 14 12 10 7 5 3 0 3 5 8 11 14 16 18 19 22 24 26 28 30 33 35 37 38 38 39 39 38 37 35 32 29 26 25 25 25 24 24
24 21 20 18 15 13 11 8 7 3 1 1 4 8 10 13 14 16 18 20 22 23 25 28 30 31 33 33 34 34 34 34 34 32 31 29 26 24 24 23 23 23 23 23
21 18 17 14 11 9 6 4 2 2 4 7 9 10 12 13 15 16 18 20 23 25 27 28 29 30 31 31 32 32 32 31 30 28 26 25 24 23 23 23 23 22 22 21

GFSNGP_700_spd_087.txt.gz
Wind_Speed
26 34 26 19 27 27 28 24 28 32 36 34 29 24 20 17 17 17 19 23 18 16 16 17 17 15 15 14 13 13 15 15 16 19 22 24 25 25 26 25 27 21 20 24
20 20 37 42 36 28 27 18 19 32 39 35 28 31 23 24 21 21 20 22 21 18 15 15 18 17 18 19 19 19 18 19 20 22 24 24 23 24 26 26 27 27 28 28
20 11 17 24 42 41 39 37 17 22 35 30 28 26 22 22 25 22 19 16 19 17 14 14 18 17 18 20 22 23 23 21 23 25 25 26 29 29 29 32 32 34 34 36
7 10 5 19 22 32 41 44 41 32 20 18 28 27 26 22 22 20 18 19 21 15 14 16 17 19 22 23 23 25 25 26 25 26 28 29 29 31 34 38 39 40 39 37
5 17 15 9 16 23 30 35 38 30 29 28 15 17 21 24 22 16 13 15 18 16 19 18 19 22 25 26 23 25 27 28 27 27 28 30 31 33 33 35 35 36 37 31
17 8 8 10 23 9 13 30 33 31 28 19 22 20 20 17 19 16 16 17 18 18 17 18 20 22 22 21 21 26 28 28 28 30 30 28 27 28 30 32 33 32 28 31
20 10 8 9 8 14 15 10 18 23 20 29 16 9 15 17 16 16 19 19 16 14 15 15 17 19 18 18 20 23 26 26 28 27 26 27 28 29 30 32 32 30 26 29
7 6 9 13 10 8 20 25 6 15 23 28 21 22 14 18 21 20 18 14 11 9 12 15 15 17 19 20 22 24 25 26 26 27 29 29 30 31 30 29 29 27 29 34
22 10 13 5 11 18 4 19 22 9 11 23 18 16 16 16 20 16 14 11 9 11 15 18 19 20 21 23 24 26 27 28 29 30 32 32 32 32 32 31 30 29 32 37
9 17 18 12 12 15 21 13 26 15 12 15 19 19 19 18 17 14 13 12 13 15 16 16 17 18 19 21 23 26 28 31 33 34 34 34 34 33 32 32 31 35 39 42
16 18 14 11 14 16 17 23 13 12 7 19 15 16 19 18 14 13 12 13 12 14 15 15 16 21 22 23 26 27 29 30 31 32 33 34 33 31 32 34 39 42 46 49
25 22 23 23 14 23 14 16 23 27 16 19 21 17 17 14 11 10 13 16 18 18 17 18 22 22 23 25 26 27 28 27 27 29 31 29 26 26 33 37 39 41 42 44
26 23 20 10 11 19 16 15 16 20 19 20 26 30 22 14 18 21 21 22 16 14 20 23 24 24 25 28 30 28 27 26 26 27 27 26 27 29 33 36 39 42 43 43
28 32 30 20 16 16 16 11 8 15 17 16 20 20 22 30 21 18 18 17 18 19 21 23 25 25 27 27 26 25 25 25 27 28 30 31 32 33 35 35 35 37 40 42
22 20 20 24 20 18 18 14 11 12 9 10 16 13 13 11 15 16 16 17 19 21 23 24 25 24 23 23 24 25 27 28 29 30 29 28 28 30 32 34 37 38 40 42
19 20 15 17 18 21 15 16 15 16 13 11 11 13 14 14 14 15 17 19 21 23 25 26 24 22 23 25 26 27 27 25 24 25 27 29 31 33 35 37 39 41 43 45
26 25 20 19 13 15 18 18 15 15 14 16 15 14 13 14 15 17 19 21 23 26 25 23 22 22 24 25 23 21 21 23 24 27 29 31 33 36 38 41 44 46 48 50
29 33 29 23 19 17 17 15 14 15 13 14 16 17 18 17 16 17 18 23 23 21 20 20 21 21 18 17 19 20 22 24 27 30 33 36 39 42 44 47 49 50 52 53
29 26 21 22 24 21 20 17 15 15 13 16 19 12 9 10 14 16 20 20 19 18 19 16 14 14 16 17 20 23 26 29 33 36 38 41 43 45 46 48 50 51 53 53
11 17 21 27 26 21 21 17 14 14 16 16 12 11 15 16 20 19 19 17 14 12 11 11 13 16 19 22 25 29 32 34 37 39 41 42 45 47 48 50 51 52 52 52
13 16 23 26 25 20 19 21 15 14 18 13 14 13 14 18 16 13 10 8 8 9 11 14 17 20 24 26 29 31 33 35 38 39 41 44 46 47 49 49 50 50 49 47
10 19 23 19 17 10 12 10 10 13 15 17 18 16 11 8 7 5 5 6 9 12 15 18 21 24 26 28 30 33 34 37 39 41 43 44 46 46 46 45 44 42 39 37
11 9 5 7 11 12 11 12 15 17 15 12 10 10 8 5 3 3 7 10 12 15 18 20 22 25 27 29 32 34 36 38 40 41 42 42 42 41 40 38 36 33 30 28
13 11 12 13 11 13 16 17 15 15 14 12 9 6 2 2 4 7 10 13 15 17 20 22 23 25 28 31 32 34 36 37 37 37 38 38 38 36 34 32 30 28 27 26
17 14 13 13 14 16 18 19 17 15 11 7 3 0 3 5 8 10 12 14 15 17 19 22 24 26 28 30 31 33 33 34 34 34 34 32 30 29 28 27 27 26 26 26
15 19 23 22 20 20 18 16 11 7 5 2 3 4 6 8 10 11 13 14 16 18 21 23 25 26 27 29 30 31 31 31 31 29 28 26 26 26 25 25 25 25 25 25
26 24 22 20 18 15 11 9 7 5 3 2 4 6 8 9 10 11 13 16 18 20 22 23 24 26 27 28 29 29 28 27 26 25 25 24 25 25 25 25 25 25 25 24

GFSNGP_700_spd_090.txt.gz
Wind_Speed
30 31 30 35 33 29 41 43 28 29 35 35 30 27 24 27 16 17 17 18 16 16 14 12 13 15 10 8 8 8 10 11 11 10 12 17 21 23 25 27 28 27 26 25
37 37 28 27 37 34 34 36 37 29 26 24 21 27 30 25 26 20 19 18 20 22 20 16 15 16 13 12 13 14 15 15 15 17 17 18 20 22 23 23 25 27 27 26
13 19 27 20 40 41 37 34 30 28 19 17 26 30 27 24 25 26 25 25 18 18 19 19 14 15 15 17 18 21 22 21 21 21 21 22 23 23 25 27 28 29 31 33
9 18 6 13 13 36 39 38 36 38 33 19 16 19 23 25 25 21 23 24 25 21 21 15 15 18 18 19 20 24 25 24 25 27 28 26 26 26 27 29 31 33 33 36
5 9 18 19 5 8 21 33 34 38 39 36 26 22 22 28 27 26 21 22 22 20 21 17 19 21 20 20 25 29 28 27 28 29 30 28 28 29 30 31 33 33 33 34
9 6 5 23 5 12 17 28 20 26 30 29 29 29 17 16 18 21 22 21 22 23 22 22 22 21 20 22 24 24 25 26 28 29 30 31 31 32 33 32 30 32 33 35
31 13 14 22 23 4 13 5 5 14 24 26 21 28 13 16 17 20 21 23 25 27 25 21 19 18 18 16 16 17 20 22 26 29 29 30 32 31 30 30 32 32 33 33
23 14 7 7 13 9 3 11 14 5 11 19 20 23 15 8 14 17 21 24 25 23 20 16 15 13 13 13 15 17 19 21 24 26 27 28 29 30 31 32 33 32 32 29
9 11 15 7 5 10 16 14 12 9 12 17 28 30 23 22 14 21 23 23 23 18 14 13 13 12 12 13 14 16 18 19 22 24 26 28 30 32 32 32 32 31 30 30
20 7 3 8 10 16 13 17 17 7 6 12 19 16 23 21 30 31 28 22 18 16 14 13 12 11 11 12 15 18 19 21 22 24 25 27 28 28 30 31 33 31 31 34
28 23 19 7 11 18 11 19 17 17 12 17 10 12 16 20 26 22 21 21 18 14 13 12 13 13 15 18 20 21 24 25 26 27 28 28 29 29 28 26 26 29 34 36
27 15 15 18 17 13 13 13 17 22 21 23 12 5 13 15 19 26 14 15 12 14 14 15 15 14 17 19 22 23 26 27 27 27 27 26 25 24 25 26 28 31 34 37
27 25 26 22 15 13 18 12 21 12 12 15 19 11 15 17 22 20 18 18 16 16 15 15 17 20 20 22 24 26 28 27 26 25 24 24 24 25 27 29 32 34 37 39
23 29 32 28 23 15 17 18 12 15 16 21 18 19 20 21 21 22 20 20 21 20 16 13 16 19 22 25 27 27 25 25 25 25 26 27 28 29 29 30 31 34 36 39
27 25 25 21 22 24 18 15 11 17 7 14 9 10 13 16 20 21 22 22 18 12 12 16 20 22 25 28 24 23 25 26 25 25 25 25 26 28 30 32 34 36 39 41
29 24 21 15 16 23 18 18 6 13 13 9 14 6 11 11 12 14 11 8 11 12 17 19 22 25 23 20 21 24 25 23 21 22 24 25 27 30 32 35 38 41 43 45
20 22 19 15 12 12 10 12 15 15 16 9 9 11 12 13 13 12 11 13 14 15 19 23 21 19 20 21 23 21 19 21 22 23 26 29 32 35 37 39 42 44 45 48
18 22 19 19 16 13 12 11 12 13 12 11 10 10 12 16 16 16 14 12 13 18 20 18 18 19 19 18 17 18 20 22 25 28 30 33 35 37 40 42 44 47 48 50
22 21 24 24 23 21 18 18 15 19 17 14 13 12 14 18 14 8 11 16 17 19 17 17 16 14 14 16 18 20 23 25 28 30 33 36 38 40 42 43 44 45 46 46
19 11 21 24 22 21 19 18 21 21 19 16 14 13 11 11 12 11 15 15 14 14 12 10 11 13 15 17 20 23 25 28 31 33 35 37 38 39 40 42 43 44 44 44
27 18 15 23 25 24 23 22 23 27 25 12 17 16 14 13 11 15 14 11 8 7 8 10 13 15 18 20 22 25 28 30 32 34 35 36 37 39 41 42 41 40 38 36
19 15 15 22 22 22 25 28 29 19 8 9 13 12 14 14 11 9 7 5 5 8 10 13 15 17 20 22 25 28 30 31 32 33 34 36 37 38 37 36 34 33 32 32
9 8 9 18 26 23 17 18 14 13 15 17 15 12 10 8 7 5 3 5 8 10 13 14 17 19 22 25 27 28 29 29 31 33 35 35 34 33 32 31 30 30 30 29
9 17 10 13 14 11 7 11 12 15 14 14 13 11 10 6 1 3 5 8 9 11 14 17 19 22 24 25 25 27 29 32 33 33 32 31 30 30 30 30 29 29 28 28
15 17 14 7 10 14 14 16 17 17 16 13 10 6 3 0 3 5 7 9 12 14 17 19 21 22 23 24 26 29 30 31 30 29 29 29 29 29 28 27 27 26 26 27
16 16 15 15 15 18 20 20 16 15 11 7 4 2 2 3 5 7 9 11 13 16 18 19 20 21 23 26 27 28 28 28 28 28 28 27 26 26 25 26 26 26 26 26
19 21 23 23 23 21 18 15 12 8 6 3 2 2 3 4 6 8 11 13 14 16 18 19 21 23 25 26 26 26 27 28 28 28 26 25 24 25 26 26 26 26 25 25

GFSNGP_700_spd_093.txt.gz
Wind_Speed
18 20 24 29 27 24 28 36 25 27 27 24 28 32 24 19 15 15 13 14 20 19 15 13 11 11 13 8 7 7 7 7 6 11 14 19 24 26 25 26 28 32 33 34
18 18 18 28 30 32 39 38 37 32 37 29 16 17 26 27 25 22 32 16 22 21 21 18 16 14 15 16 12 12 11 11 13 14 17 18 19 23 25 28 30 31 32 31
6 4 11 19 33 24 34 42 37 30 32 27 26 24 24 24 26 26 22 26 22 22 22 25 23 19 18 21 20 19 19 21 21 21 23 26 26 26 25 26 28 29 30 32
10 10 8 16 16 17 15 30 42 39 30 21 23 18 21 29 32 28 26 28 29 29 26 25 25 26 21 23 24 24 23 25 27 28 28 28 31 29 29 28 30 31 31 32
8 11 21 24 9 10 18 21 25 37 37 34 30 29 28 24 21 28 28 27 26 28 30 29 27 25 24 26 26 27 26 28 31 30 30 31 32 30 31 31 31 31 31 30
13 6 6 9 9 16 24 26 8 12 20 28 32 39 43 26 22 22 30 29 31 29 25 29 29 27 26 27 25 24 27 27 27 27 28 29 31 30 30 30 31 32 33 34
27 15 12 15 15 14 13 12 8 6 8 18 23 30 32 36 26 22 24 30 29 26 29 30 32 29 26 23 23 21 19 17 18 20 24 27 28 29 30 31 33 34 33 34
20 15 14 6 7 8 16 16 9 5 5 4 20 18 16 19 26 24 15 18 24 26 28 29 27 24 20 19 16 17 16 16 18 20 22 24 26 27 28 29 30 30 32 33
8 17 15 5 14 10 10 21 12 11 4 3 10 15 23 20 24 10 11 19 23 22 23 24 20 17 16 17 18 16 15 16 18 21 22 23 25 26 28 29 30 30 30 30
21 13 9 2 20 11 9 12 15 16 14 16 10 11 21 28 23 14 13 20 17 17 18 23 24 17 19 18 18 16 16 19 20 20 21 23 25 26 28 29 29 28 28 27
23 24 26 24 11 6 3 9 12 15 15 17 14 13 10 21 27 31 20 18 20 21 24 20 18 21 19 16 17 17 18 19 20 21 24 25 26 26 27 26 25 25 26 27
27 21 24 24 18 18 14 9 8 9 15 19 19 20 16 11 15 18 24 24 25 20 19 20 21 21 14 14 15 17 18 19 21 23 23 23 22 22 21 21 21 24 27 29
22 20 23 25 22 23 19 15 12 18 15 13 17 17 16 22 19 21 22 22 22 21 21 27 24 19 14 14 15 15 17 21 22 21 20 20 19 19 20 21 22 24 26 28
19 21 25 24 24 23 22 17 9 17 15 13 18 15 13 11 15 18 22 26 23 28 23 24 23 16 12 11 14 19 19 18 20 21 21 19 18 19 20 23 25 28 31 34
15 19 24 24 22 21 20 16 10 11 8 12 6 15 12 5 5 3 15 18 16 22 17 13 9 9 11 15 18 15 17 19 20 19 17 17 19 21 23 26 30 32 36 39
13 18 23 25 24 19 17 18 14 11 7 8 5 6 2 10 13 9 7 10 4 7 9 9 8 12 16 14 14 16 18 18 16 16 18 20 23 25 28 30 33 36 39 41
21 20 20 18 25 17 12 16 16 17 12 11 12 10 9 10 14 17 9 6 9 11 7 8 11 11 12 13 15 16 15 15 17 19 22 24 26 28 31 34 36 37 39 41
28 26 21 17 20 19 15 14 13 15 11 10 11 12 11 11 13 15 17 15 13 6 8 11 10 10 12 13 13 13 15 17 20 22 24 26 29 31 32 34 35 37 39 39
28 26 23 23 23 22 20 16 14 10 11 12 15 16 14 12 13 14 11 6 7 10 9 8 8 9 9 10 13 15 17 19 22 24 27 28 30 31 32 34 35 36 36 36
26 25 24 25 25 25 25 21 21 18 16 17 17 17 15 14 14 15 12 7 9 8 6 6 5 7 10 12 15 17 20 22 24 25 26 28 29 31 33 34 34 33 33 32
22 24 23 25 25 27 26 27 24 21 18 19 21 20 22 21 21 15 8 6 6 5 3 4 7 10 12 14 16 19 20 22 23 25 27 29 31 32 32 31 31 31 30 29
14 19 22 20 20 22 23 24 23 20 18 22 24 19 16 14 12 8 6 4 3 2 4 7 9 11 13 15 17 19 21 23 24 26 28 29 29 29 29 29 29 28 27 27
11 11 20 19 16 20 21 23 25 24 26 25 20 18 15 11 9 8 6 2 2 4 6 8 10 12 14 17 19 20 22 24 26 27 27 27 28 28 28 26 25 25 26 26
8 12 13 14 19 23 26 27 23 21 20 20 18 17 14 11 8 5 2 2 4 5 7 9 11 14 16 18 19 21 23 24 25 25 25 26 27 26 25 24 24 25 27 28
12 13 14 12 18 23 22 23 23 21 18 16 15 15 11 7 5 2 2 3 4 6 8 11 13 15 17 19 21 22 22 22 23 24 25 26 25 23 23 24 26 27 27 26
8 13 16 17 15 16 17 20 19 21 18 15 12 9 6 4 3 2 2 4 6 9 11 13 15 16 18 19 20 20 21 22 23 24 24 24 23 23 24 26 26 25 25 26
15 16 18 20 23 24 23 20 16 14 13 10 7 5 4 2 0 2 4 7 9 10 12 13 15 16 18 18 19 20 20 21 23 23 23 23 22 23 24 24 24 24 24 25

GFSNGP_700_spd_096.txt.gz
Wind_Speed
19 23 23 22 22 21 21 20 22 23 24 19 20 25 24 18 17 13 14 15 16 23 20 16 17 17 15 15 12 15 16 16 14 16 19 23 27 24 27 29 28 32 33 37
18 19 22 26 29 30 30 26 29 34 42 30 25 20 26 24 28 23 18 18 16 22 24 22 18 17 14 17 14 12 14 14 15 16 18 18 19 21 27 29 31 31 32 33
15 9 15 22 33 33 35 31 27 31 32 25 30 29 25 22 18 25 26 24 23 20 21 22 22 20 17 18 21 18 19 20 20 21 21 22 24 25 27 29 29 30 31 33
10 10 9 13 9 16 26 25 21 22 25 28 20 21 24 25 24 26 25 27 27 28 27 24 26 25 26 24 23 26 26 25 25 26 27 28 30 32 33 32 34 34 34 35
8 13 21 23 9 11 15 15 16 15 12 19 25 22 26 27 25 28 30 34 33 34 33 34 31 29 30 30 30 27 28 30 31 30 30 30 30 31 31 31 32 34 35 36
12 10 6 7 3 14 14 19 13 15 3 8 19 29 28 25 30 30 28 30 36 31 35 33 35 35 35 31 32 30 31 30 28 28 30 30 29 31 33 33 32 33 35 39
26 20 14 16 15 8 11 10 15 15 11 4 13 19 25 33 37 40 35 32 31 33 32 31 31 35 37 36 33 32 31 28 27 29 26 25 24 27 30 32 33 34 35 36
15 12 17 11 16 6 10 9 15 15 21 1 9 18 23 24 31 35 35 38 29 40 40 34 32 29 38 38 33 30 26 25 25 24 24 24 26 29 30 32 33 35 36 38
11 11 12 16 18 8 8 14 18 14 3 5 8 10 15 15 17 20 30 31 26 29 36 34 29 33 26 26 25 22 20 21 24 25 21 24 26 26 28 29 31 32 33 34
11 9 11 20 15 10 14 18 18 6 13 9 13 6 18 16 16 13 16 22 19 23 23 24 29 28 26 24 23 23 23 24 23 20 22 22 23 24 26 28 29 31 32 33
14 15 16 13 13 19 16 12 15 11 5 12 18 15 11 25 22 24 21 16 19 22 23 22 20 20 24 25 26 29 24 22 18 17 20 22 23 24 26 28 27 27 27 27
22 17 18 19 20 16 16 14 14 10 9 14 17 15 13 14 21 28 25 21 18 18 18 20 21 22 22 24 25 24 20 16 15 18 20 21 22 23 23 22 22 22 23 25
20 17 19 19 17 12 15 14 15 12 12 13 22 14 16 20 19 25 25 28 29 26 27 25 26 26 22 21 19 25 23 13 13 16 17 17 19 21 19 18 18 20 22 25
25 24 25 17 19 13 15 16 16 19 14 12 12 17 16 12 12 17 23 27 25 26 25 24 22 23 24 22 16 13 10 11 13 14 17 18 17 16 17 18 21 24 26 29
15 17 21 19 18 15 13 17 16 16 14 11 19 20 14 13 2 8 13 18 19 17 17 17 20 18 12 9 12 11 10 11 12 15 15 13 14 16 19 22 25 28 31 33
20 22 18 19 19 16 15 13 17 16 16 15 11 4 9 7 8 3 2 2 8 6 13 15 15 11 9 10 9 9 10 12 12 12 12 14 17 19 22 24 27 29 31 33
21 20 19 19 19 19 19 17 17 17 19 18 15 5 1 9 14 16 19 13 10 10 13 15 9 7 7 9 11 10 9 8 9 12 14 16 18 21 23 25 27 29 30 32
25 27 27 25 23 20 21 21 17 16 17 22 27 10 8 10 15 16 20 17 16 16 14 7 5 7 9 9 9 6 7 9 12 14 16 18 20 22 24 26 28 29 31 32
30 34 33 31 28 24 24 24 20 15 17 23 25 17 15 15 13 15 14 15 12 10 6 7 6 7 9 6 5 7 9 11 14 16 18 20 21 23 24 26 28 29 30 30
28 29 29 27 26 26 27 33 22 17 17 15 14 15 20 15 20 18 20 19 13 8 7 7 6 6 4 5 7 9 11 13 16 17 19 20 22 24 25 26 27 27 28 27
23 24 25 24 23 27 26 25 22 23 18 21 19 18 20 24 26 26 23 14 9 6 6 5 4 4 5 7 9 11 13 15 16 18 20 21 22 23 24 25 26 26 25 24
21 21 22 22 23 25 25 25 26 25 22 22 20 23 25 25 22 18 15 10 7 6 5 4 4 5 7 8 10 12 14 16 17 18 20 20 21 23 24 25 24 24 23 24
14 12 13 17 20 21 21 23 21 24 26 27 24 23 21 20 18 13 10 9 7 5 4 3 5 6 8 10 12 13 15 16 17 18 19 21 22 23 23 23 23 23 24 25
12 13 17 17 19 21 23 25 28 29 26 23 22 22 20 16 14 13 11 7 5 4 3 4 6 8 10 11 12 14 15 17 18 19 19 20 22 22 22 22 22 23 23 23
11 11 10 9 14 16 18 23 24 26 27 27 25 22 18 16 13 6 5 5 3 2 3 5 8 9 10 12 13 15 17 17 17 18 20 21 21 21 21 21 22 22 22 23
5 4 8 11 11 17 20 23 23 24 21 19 18 16 12 9 7 6 5 3 2 3 6 7 9 10 12 13 15 16 17 17 18 19 19 20 20 20 20 21 22 22 22 22
13 16 18 21 22 23 23 23 22 22 20 17 11 9 7 6 6 4 2 3 4 5 7 8 10 12 13 15 16 17 17 17 18 18 19 20 20 20 21 21 21 22 22 22

GFSNGP_700_spd_102.txt.gz
Wind_Speed
30 32 22 22 23 22 22 21 14 16 20 18 13 13 10 9 8 13 11 5 9 13 19 22 22 22 24 19 18 16 15 15 15 16 16 17 18 17 17 16 16 15 16 17
32 31 34 31 29 27 27 26 24 22 26 24 20 24 22 20 19 17 12 13 6 10 16 22 22 20 23 21 19 18 15 15 16 16 17 18 17 17 18 20 20 20 22 24
30 26 30 35 31 29 30 28 27 28 27 26 26 21 22 27 21 19 25 19 11 15 14 18 21 22 22 22 22 21 18 15 14 14 15 16 17 18 19 19 21 23 25 27
14 18 14 29 20 19 23 22 22 26 30 32 27 26 27 23 25 20 21 16 13 19 16 17 22 18 22 23 24 23 22 20 18 19 20 19 20 18 22 23 24 26 28 29
9 13 16 15 9 7 8 8 9 14 11 6 19 22 20 22 23 21 22 23 24 21 27 19 19 22 19 19 25 26 26 24 26 26 26 24 24 24 26 27 28 29 30 32
11 14 12 13 5 5 9 13 12 3 10 6 12 16 21 21 22 16 18 23 25 24 24 25 21 26 26 27 26 23 28 29 31 31 32 31 30 30 30 28 28 30 30 31
27 11 9 16 12 12 8 9 15 7 11 6 11 14 23 28 29 26 21 20 25 28 31 30 24 24 27 30 35 34 33 28 31 37 38 36 35 32 30 30 30 28 28 26
19 13 15 10 11 6 9 12 19 19 19 16 16 19 22 24 31 34 32 28 27 28 30 29 26 23 22 26 35 39 41 34 31 32 32 35 35 33 32 29 27 25 23 23
13 11 11 5 9 15 16 23 19 13 10 16 22 25 27 22 25 33 36 39 34 32 33 33 32 31 30 30 30 35 37 37 38 38 36 40 38 30 26 25 24 24 24 25
8 6 8 5 11 15 15 15 7 13 11 18 13 19 21 20 20 21 22 27 35 37 37 38 37 33 32 31 32 35 36 37 39 38 35 33 31 31 26 25 25 23 23 25
6 9 9 2 5 11 15 14 8 13 14 12 7 17 20 17 11 18 11 11 13 20 25 27 29 30 31 30 32 35 36 34 32 30 26 26 28 25 23 22 23 23 23 23
12 12 11 12 12 14 18 15 17 18 11 15 11 15 22 24 13 9 15 20 21 17 15 16 19 22 22 22 23 25 26 26 26 27 28 28 21 24 24 22 17 17 18 20
15 11 13 14 16 15 14 16 22 18 12 14 12 12 19 28 22 11 11 9 18 13 16 19 21 24 27 29 29 29 28 22 23 24 21 22 23 15 11 12 14 15 15 16
17 17 14 14 16 11 14 20 19 15 13 14 13 15 18 29 16 14 14 22 26 24 25 24 26 30 31 34 32 31 26 24 20 16 13 9 8 8 8 8 11 14 16 18
9 10 13 12 10 9 10 19 22 13 12 12 13 16 19 23 6 10 9 16 22 25 25 23 23 29 25 21 17 15 14 12 7 6 8 8 8 9 10 10 12 14 15 17
18 16 13 11 11 11 18 17 21 16 14 15 15 13 14 14 17 18 10 8 12 17 21 22 23 21 17 12 11 11 8 5 4 5 6 7 7 8 9 11 12 14 17 20
22 22 23 20 12 9 13 19 16 17 18 16 16 15 13 10 8 9 14 10 2 7 15 18 16 16 16 11 8 4 1 3 4 4 4 5 7 8 9 12 15 17 20 22
31 31 31 30 26 20 24 28 23 18 19 18 15 14 15 14 11 7 9 7 7 12 15 16 15 13 7 5 4 1 1 1 2 4 5 7 8 10 12 14 16 18 21 22
27 28 31 30 23 23 24 25 23 24 23 20 15 12 16 12 15 13 16 15 10 12 14 15 15 11 8 6 3 3 3 3 5 6 7 8 10 12 14 16 18 20 21 22
24 25 25 24 23 24 26 24 23 22 19 19 18 17 17 18 20 16 12 15 18 19 17 18 16 11 8 5 4 4 4 4 5 7 9 10 11 13 15 17 19 20 21 21
20 22 21 18 18 21 21 20 20 20 19 18 19 19 20 18 17 18 14 16 19 18 17 15 13 11 7 5 5 4 5 5 7 8 10 12 14 16 17 18 18 18 18 19
16 17 17 16 15 16 17 18 18 18 18 17 17 18 17 14 16 16 17 17 17 17 15 12 10 6 4 5 5 5 5 6 8 10 11 13 15 15 16 17 17 18 19 20
18 16 15 16 16 16 16 16 18 18 19 18 17 18 18 16 16 17 18 19 17 16 15 12 9 6 3 6 6 6 7 9 10 12 13 14 15 15 16 17 17 18 20 20
17 17 15 14 16 17 15 12 13 13 14 15 16 18 15 10 14 17 18 17 17 15 12 8 5 4 6 6 6 8 9 10 11 13 14 15 15 16 16 17 18 19 19 19
17 16 14 15 16 17 17 16 15 15 16 16 16 16 17 19 18 19 18 16 14 11 8 6 4 5 6 7 8 10 11 11 13 14 15 16 16 16 17 18 19 18 19 19
20 18 16 16 15 13 12 11 12 12 11 12 16 18 18 16 15 14 13 12 10 8 4 3 5 6 7 8 10 11 11 12 13 15 16 16 17 18 18 19 18 18 19 20
17 16 13 12 11 9 8 9 11 14 17 17 16 17 17 15 15 14 12 9 7 3 2 5 7 7 8 9 11 12 13 14 15 16 16 17 18 18 19 19 19 20 20 21

GFSNGP_700_spd_105.txt.gz
Wind_Speed
29 36 37 33 34 29 25 12 8 19 28 26 15 13 14 8 15 17 14 8 4 10 24 18 20 18 25 23 18 16 14 12 11 10 11 13 14 13 13 13 13 14 14 15
27 28 34 36 35 34 29 26 21 24 26 15 19 20 11 15 18 19 13 13 9 15 16 30 18 17 19 26 23 18 16 14 14 14 13 13 14 16 16 15 17 19 20 20
31 27 31 33 33 31 33 29 23 28 20 20 26 17 19 18 16 17 17 19 15 11 19 21 32 12 17 19 24 22 20 18 15 15 15 16 16 17 19 19 18 20 22 23
25 17 13 36 25 25 25 21 21 17 22 17 15 13 18 19 21 20 18 17 19 14 21 17 24 27 13 18 22 23 23 21 19 16 17 19 20 20 20 19 21 21 22 24
12 11 19 20 7 4 18 21 11 16 19 19 17 14 17 18 22 21 20 20 17 12 13 14 20 26 19 16 17 20 24 25 23 22 21 20 22 24 25 25 26 27 29 29
16 5 5 8 1 2 9 6 11 12 14 20 18 18 20 22 23 19 15 18 19 18 16 17 17 20 19 20 20 24 24 24 28 24 24 27 28 28 29 30 30 31 31 30
26 14 14 15 16 6 4 3 8 9 11 16 11 13 20 24 26 27 25 21 18 20 21 17 14 13 16 21 23 24 24 23 24 29 31 33 36 34 32 33 32 30 29 29
22 10 13 15 8 6 5 9 15 19 20 21 17 16 21 27 27 28 34 34 29 24 20 18 16 18 21 23 26 25 26 28 26 32 27 31 38 32 28 29 33 30 31 33
17 17 8 12 6 4 7 12 18 11 10 15 20 22 22 27 28 31 31 30 33 34 30 25 23 22 21 24 25 25 24 27 31 35 38 36 34 38 35 38 38 34 32 29
19 19 16 15 15 11 7 14 15 5 9 13 13 11 11 18 23 28 32 30 24 26 29 31 31 29 29 29 30 30 29 29 29 37 40 41 43 39 38 35 35 35 27 29
17 6 9 11 3 4 13 17 14 12 9 8 4 3 8 15 14 16 24 29 17 12 15 22 26 32 35 35 33 30 30 30 34 34 32 35 36 36 34 37 33 28 28 27
8 10 6 7 12 13 12 12 15 16 18 12 4 15 12 15 20 19 12 17 16 16 15 12 17 23 26 28 27 28 28 31 31 33 34 35 35 39 42 32 29 26 22 20
11 14 16 14 11 11 11 11 15 16 16 14 8 15 13 15 23 16 11 9 11 12 17 21 20 16 17 18 18 19 17 18 24 32 33 38 35 31 20 19 12 12 12 11
6 11 8 9 12 8 9 10 12 14 14 9 12 16 12 17 20 17 6 10 11 12 16 19 19 15 18 21 23 25 27 33 34 34 26 16 11 8 7 7 7 8 9 8
7 14 10 13 8 10 11 12 13 12 11 9 9 14 13 12 19 24 19 14 8 12 12 16 21 20 19 18 16 17 18 14 9 6 6 4 4 5 7 9 9 8 9 11
11 11 17 12 7 11 18 21 18 12 13 15 13 11 12 8 11 14 14 16 9 6 7 8 14 17 17 13 10 9 10 11 10 7 4 4 6 7 5 5 6 9 11 13
19 21 19 21 19 19 18 20 18 19 18 18 17 14 11 9 9 7 7 11 7 3 4 10 13 13 12 12 10 8 6 5 4 4 3 2 2 4 6 8 9 10 12 13
22 23 25 27 29 27 27 22 21 18 18 18 18 14 11 9 10 10 4 4 5 2 4 11 11 10 11 8 8 8 7 6 4 3 3 3 6 7 7 9 10 12 13 15
20 22 22 22 23 24 22 20 18 15 18 19 18 14 10 10 7 10 10 8 6 6 11 15 15 14 12 8 8 8 6 5 5 4 5 5 5 6 7 10 12 13 14 16
19 20 23 23 23 23 22 20 19 20 18 17 17 16 11 10 9 7 7 11 12 14 16 17 16 15 13 12 10 8 7 5 4 4 4 4 6 8 9 11 13 15 16 17
16 18 20 21 19 18 18 19 18 17 16 16 15 15 15 13 12 10 10 11 14 18 17 17 16 13 12 9 5 3 2 4 4 4 5 6 8 9 11 12 14 15 16 17
21 22 22 22 19 17 15 16 17 16 15 15 14 14 12 9 9 12 12 12 15 18 17 17 15 14 11 8 6 4 3 5 6 7 8 8 10 11 12 13 15 16 17 18
25 22 21 21 19 17 17 15 15 14 14 14 13 12 10 9 10 10 12 15 15 16 16 16 14 11 9 7 5 3 5 7 8 8 8 10 11 12 13 14 15 16 17 17
22 20 19 19 19 19 16 15 14 12 10 8 8 9 10 9 10 13 16 16 17 17 15 13 10 9 7 4 3 5 6 8 9 9 10 11 13 14 15 15 16 17 18 18
20 20 19 19 18 17 16 16 16 16 15 14 13 14 14 14 14 14 15 15 15 15 14 13 11 9 5 3 4 7 8 9 10 10 11 12 13 14 15 16 16 17 19 18
20 19 19 18 16 15 13 12 12 12 12 12 14 15 16 16 15 13 14 14 14 14 13 12 9 6 3 5 7 8 8 9 10 11 12 13 14 15 15 16 17 18 18 18
19 19 17 14 11 10 9 8 9 10 12 14 13 16 17 16 16 17 16 17 15 12 9 7 4 1 5 7 8 8 8 9 11 12 13 14 15 16 16 17 18 18 18 18

GFSNGP_700_spd_108.txt.gz
Wind_Speed
21 20 21 25 32 37 27 25 20 26 24 26 27 11 16 21 5 19 11 19 8 10 22 30 25 20 24 26 22 20 18 14 12 13 13 14 14 13 14 14 15 16 16 18
26 24 26 31 32 32 31 34 31 28 28 22 18 7 16 18 13 11 11 12 17 11 8 26 25 25 22 26 26 23 20 17 15 16 17 16 17 17 16 18 19 19 19 19
22 22 21 25 33 24 29 34 32 28 23 27 23 16 13 17 15 12 13 9 13 12 12 6 20 27 23 22 25 28 26 22 20 19 19 20 19 19 21 21 20 20 19 19
16 14 11 25 21 21 25 22 28 23 18 20 20 15 18 18 19 17 18 13 17 10 10 11 10 23 22 22 20 23 29 27 26 24 22 22 23 23 23 22 21 21 21 23
14 12 26 35 19 7 10 16 16 15 17 18 16 18 17 18 17 15 14 14 16 13 10 16 11 15 23 24 18 20 23 27 29 29 27 24 24 23 23 23 23 24 25 26
14 4 5 5 1 9 6 7 4 7 13 7 10 15 18 19 20 19 14 12 12 15 13 12 15 16 20 13 23 20 21 22 23 30 29 27 28 28 27 27 28 29 30 29
26 12 17 29 17 15 4 3 1 4 8 14 13 13 17 18 21 24 24 22 19 16 18 14 12 15 18 18 19 20 24 19 21 24 30 32 32 32 31 31 31 31 30 30
21 13 13 13 7 8 2 6 11 11 13 13 14 16 18 18 23 22 23 23 25 25 22 22 16 17 17 20 19 21 19 19 19 23 21 20 24 26 27 28 29 32 33 34
15 14 15 13 9 6 2 9 15 10 10 12 13 16 16 16 21 23 24 24 26 26 25 32 28 20 18 20 20 21 20 21 21 22 21 28 28 28 26 26 35 31 34 42
12 16 17 15 15 12 11 10 10 11 9 9 12 13 14 12 16 19 21 23 24 28 29 25 32 31 24 20 22 23 22 20 22 22 26 28 29 34 36 41 42 43 43 52
16 14 12 13 6 6 3 5 9 11 15 13 14 11 10 11 15 18 22 19 20 20 20 21 24 29 30 30 28 26 26 28 29 31 32 31 30 37 39 44 45 51 47 41
13 13 13 14 8 7 6 8 5 10 14 16 20 5 11 11 15 24 23 13 13 13 14 13 14 17 23 27 31 33 32 32 32 33 31 29 28 35 43 47 42 29 29 25
15 13 8 3 6 10 10 8 8 10 15 14 14 14 14 13 15 25 21 10 7 14 14 16 18 16 16 15 17 20 20 19 20 22 26 35 35 49 51 43 34 25 16 11
9 10 7 3 7 9 8 6 5 9 13 14 10 13 15 16 13 19 24 13 8 11 13 9 12 12 14 11 10 11 13 16 22 22 25 30 28 22 14 11 10 11 10 7
6 11 12 11 12 13 9 10 12 13 13 11 13 12 11 12 10 13 18 17 6 1 2 4 7 9 12 15 17 15 18 21 21 21 19 12 9 9 9 8 8 8 5 5
14 11 11 13 15 16 14 14 16 16 13 15 15 15 12 11 10 10 13 12 11 8 8 4 2 3 9 13 14 13 13 14 14 14 15 13 11 10 8 5 2 4 4 7
20 21 22 23 24 22 22 23 23 23 22 20 17 14 14 11 11 8 6 7 8 9 7 7 11 14 15 13 10 9 10 13 13 12 12 11 8 6 4 3 6 7 7 7
15 16 16 16 17 18 21 25 26 25 21 18 16 16 14 12 9 7 5 4 4 3 8 12 12 13 13 13 13 12 13 13 12 13 9 6 4 3 7 7 6 7 8 10
15 17 19 21 23 23 19 18 21 23 22 19 15 14 13 11 7 4 4 6 5 3 10 15 14 13 13 12 12 12 12 11 6 5 4 4 5 5 4 5 7 9 10 12
12 11 14 17 19 20 20 22 22 19 21 21 19 13 11 10 10 8 6 7 7 8 11 15 15 14 13 11 11 11 8 7 5 2 2 5 4 5 7 8 9 11 13 14
15 18 20 22 20 19 18 18 18 15 17 20 19 15 11 11 10 9 9 9 9 10 13 14 14 13 12 11 10 7 6 5 4 6 6 7 7 8 9 9 11 12 13 14
18 20 24 25 22 20 18 15 17 14 14 15 17 16 13 10 7 7 8 11 11 12 15 14 15 15 15 13 10 8 6 6 6 5 6 7 8 9 10 11 12 13 15 15
23 22 23 22 20 18 18 16 15 16 14 13 13 14 13 11 10 11 10 10 12 12 14 15 16 16 15 12 10 9 8 7 6 7 7 9 10 11 12 13 14 15 16 17
24 24 22 21 21 19 17 16 15 15 13 12 11 12 13 14 12 12 13 13 14 14 16 16 16 16 14 12 11 8 4 5 7 9 9 10 11 12 13 14 14 16 17 18
24 23 22 21 21 19 17 15 15 16 17 17 16 15 16 16 16 14 15 14 14 14 16 16 16 15 13 11 10 8 4 5 7 9 10 10 12 13 14 15 16 17 18 19
26 25 23 21 21 18 16 15 14 13 15 17 18 18 18 18 16 15 14 14 15 17 17 15 14 13 10 7 5 3 5 7 9 10 12 13 14 15 15 16 17 18 19 20
24 22 20 17 15 13 12 11 10 9 11 13 13 13 15 14 15 14 14 16 17 17 16 12 10 9 8 5 2 5 8 9 10 11 12 13 14 15 17 18 18 19 20 20

GFSNGP_700_spd_111.txt.gz
Wind_Speed
17 15 14 19 25 21 20 23 16 38 38 31 20 23 23 18 20 26 18 4 4 11 13 32 31 26 27 28 27 26 23 19 14 12 11 11 10 12 14 14 12 12 13 16
17 15 17 24 28 30 29 30 32 36 37 26 21 18 21 16 20 23 14 7 11 8 7 26 27 23 23 27 28 28 27 24 20 16 15 14 13 12 13 15 17 17 16 17
11 11 13 20 32 21 24 22 24 30 30 27 28 25 16 21 20 28 26 21 14 7 14 17 18 22 25 27 28 29 29 28 25 22 19 18 17 18 18 16 16 16 17 18
13 12 7 19 12 15 21 27 27 29 23 24 26 20 20 18 19 22 19 15 18 19 9 13 10 20 11 17 25 26 29 31 29 26 25 24 23 21 21 20 20 19 19 20
9 13 23 32 22 13 12 24 19 19 20 23 24 23 18 17 20 16 16 14 15 11 10 14 13 14 20 14 15 26 29 28 29 29 28 27 27 25 24 24 24 24 24 24
16 5 5 6 6 7 20 30 13 11 15 16 9 9 14 20 18 15 16 19 15 17 12 13 12 20 22 25 23 13 27 32 29 27 30 28 29 29 28 27 27 27 28 29
25 12 14 23 17 20 12 12 8 3 3 6 8 8 11 11 13 13 13 16 19 19 17 15 14 10 18 21 22 16 14 21 30 23 17 22 27 29 30 30 31 31 32 32
14 14 11 4 5 6 8 10 7 3 7 7 7 8 11 12 16 16 15 16 16 19 21 23 18 16 14 21 21 19 20 20 29 28 20 16 16 22 28 31 34 35 34 32
12 11 10 7 9 15 2 8 7 9 7 6 10 12 13 12 13 15 15 17 18 19 18 22 20 18 19 19 19 17 21 23 26 22 22 29 19 21 24 22 23 32 27 28
11 13 16 16 11 10 5 3 3 6 8 10 10 15 12 12 11 15 16 17 21 18 16 18 21 19 20 22 20 20 23 21 20 13 16 18 21 23 32 32 38 41 28 38
4 9 3 6 11 6 4 6 6 6 9 12 14 16 11 8 9 11 16 21 12 16 17 14 15 18 19 26 27 23 22 23 21 21 23 24 27 28 32 29 33 39 50 50
21 17 13 13 9 6 0 5 4 5 8 14 14 13 8 11 10 14 18 22 12 8 9 9 10 13 17 23 30 30 31 31 29 29 29 26 28 30 33 47 44 50 41 30
16 17 7 6 7 9 6 5 4 5 9 13 12 11 12 14 15 13 17 21 9 9 10 11 14 13 11 14 18 24 28 31 32 30 26 25 27 33 40 41 46 41 25 21
6 11 12 8 8 9 7 5 2 10 10 11 13 16 15 13 15 15 17 19 15 10 11 13 12 16 11 12 11 10 11 11 16 17 19 24 25 31 32 29 21 14 11 11
7 9 10 10 11 12 15 12 10 12 13 12 13 17 17 16 13 13 13 16 14 6 7 8 9 10 12 11 11 14 13 14 16 17 21 24 21 17 14 13 14 13 11 12
14 17 19 18 19 18 19 20 19 19 19 18 18 20 18 17 16 14 10 10 12 8 4 4 5 4 7 7 8 9 10 9 9 11 13 14 15 15 15 14 14 13 11 4
7 8 10 14 16 16 19 23 25 25 24 23 20 18 16 15 15 12 9 7 8 9 9 11 14 18 20 19 17 15 16 17 15 15 16 16 16 16 14 9 4 1 0 4
12 13 14 15 16 17 20 21 22 20 20 22 21 18 16 15 12 8 4 4 6 5 4 10 10 13 13 13 11 10 11 13 15 15 15 13 11 9 5 3 1 5 6 7
13 13 12 14 19 20 20 21 20 20 20 20 19 17 16 15 12 8 3 3 2 2 3 6 8 10 10 10 11 11 11 10 11 11 9 7 4 4 2 5 6 6 7 8
13 12 14 17 20 22 24 21 19 18 19 19 17 15 16 16 13 10 8 5 5 4 6 9 10 8 8 7 8 8 9 10 8 6 6 4 3 5 7 7 7 7 8 9
12 13 16 19 21 21 22 20 17 18 16 15 14 13 12 13 13 10 7 6 6 6 9 11 12 11 10 9 9 9 8 8 8 7 5 6 7 7 7 7 7 8 10 11
16 19 21 21 22 21 19 17 16 15 14 14 13 11 10 10 11 10 10 9 9 9 10 11 13 13 13 12 13 12 10 7 5 6 6 6 6 6 6 7 8 10 11 13
20 21 23 25 24 22 20 18 15 15 13 12 12 11 11 11 12 12 13 12 11 11 12 12 13 13 14 13 12 11 10 10 10 8 6 5 6 8 9 9 9 10 12 13
26 26 26 25 24 23 22 20 17 16 15 14 13 12 13 14 15 14 14 14 13 12 13 13 14 15 16 15 15 14 13 11 9 8 7 7 7 8 9 10 11 12 13 15
31 32 31 30 29 27 25 22 20 18 17 17 18 17 15 15 16 14 13 14 13 13 13 12 14 14 13 12 13 13 11 8 6 5 6 8 9 9 10 11 12 14 16 17
33 32 31 30 28 26 24 21 18 17 16 16 17 18 18 16 16 16 14 13 13 13 14 13 12 12 12 9 8 8 7 5 5 6 8 9 10 11 12 13 15 16 18 19
28 28 26 25 24 22 19 17 15 14 13 12 13 13 14 14 14 12 11 10 11 12 14 13 11 9 10 10 9 8 6 6 7 9 9 10 11 12 14 15 17 18 19 20

GFSNGP_700_spd_114.txt.gz
Wind_Speed
21 18 16 17 21 21 17 18 12 34 34 41 45 39 27 22 24 29 32 38 27 20 5 4 10 14 27 30 32 30 27 23 19 16 13 11 10 9 9 10 11 12 10 10
24 19 14 17 22 28 28 31 32 38 41 46 40 27 23 21 29 29 31 36 29 26 8 3 7 14 27 28 31 33 30 26 23 18 16 14 12 12 10 9 8 9 10 13
14 12 11 15 31 26 22 21 24 30 40 31 26 24 22 26 23 25 25 29 24 25 22 11 8 19 28 32 30 33 32 29 26 23 20 17 16 16 15 13 12 10 10 11
13 11 6 14 12 10 16 23 25 30 33 30 26 22 21 23 24 23 18 20 23 19 23 16 11 16 20 34 35 32 31 32 29 25 24 21 20 18 17 17 16 15 14 15
7 11 19 29 21 17 19 30 22 27 27 26 22 20 21 24 24 20 18 23 20 23 24 14 13 10 24 25 32 30 26 25 27 26 26 25 24 22 20 19 19 19 18 18
12 5 6 6 8 6 12 29 22 14 11 12 15 17 19 17 18 19 18 20 20 20 22 18 14 10 6 19 29 26 35 26 20 15 23 27 27 26 25 23 23 23 23 23
30 11 12 19 18 20 8 15 15 8 3 3 7 9 11 9 13 12 12 13 14 15 19 19 18 13 11 10 18 25 22 39 32 28 26 25 28 29 27 27 27 27 27 28
5 8 8 4 2 6 11 10 7 7 8 2 2 5 9 11 14 16 16 16 16 17 16 15 16 15 11 7 10 22 21 19 20 29 38 35 24 22 24 25 26 28 30 29
6 6 9 6 7 12 12 4 2 5 5 5 6 9 10 11 12 12 13 15 17 18 16 15 14 16 13 10 13 14 15 23 23 28 22 41 26 15 15 12 14 17 19 22
1 8 14 14 11 11 15 1 1 4 9 9 12 10 12 11 12 9 10 13 17 20 19 16 14 17 18 16 14 14 16 15 26 25 31 28 29 24 27 22 26 24 29 29
10 16 5 2 9 12 10 5 5 5 4 8 12 13 11 9 10 8 10 13 13 16 18 18 15 18 21 20 21 20 16 20 22 19 11 10 15 18 21 25 24 26 29 29
23 19 20 11 8 5 4 5 5 3 3 8 11 10 14 8 10 12 13 14 16 12 11 13 14 15 19 25 24 26 24 21 25 24 24 21 23 23 29 33 31 35 34 37
18 16 15 19 17 11 7 3 3 3 3 5 8 11 13 13 12 14 14 15 15 8 10 9 10 10 13 17 24 27 28 29 28 25 24 24 25 23 28 28 43 35 42 33
13 10 10 12 15 14 16 19 14 13 11 12 12 12 15 12 11 12 11 14 15 12 8 14 12 12 13 13 15 19 26 26 26 25 26 24 22 22 25 26 31 32 28 17
14 14 16 17 16 15 16 17 17 17 17 17 16 15 16 16 14 12 8 8 13 13 8 8 11 14 16 16 11 11 12 17 21 21 20 21 22 23 25 21 16 11 11 15
13 13 14 15 14 16 18 20 20 21 21 21 20 18 17 15 14 13 7 7 9 12 9 4 6 10 15 17 19 15 17 18 17 17 16 14 13 14 15 16 16 15 14 15
5 6 8 12 13 15 16 18 20 20 20 19 18 17 15 14 13 12 7 5 6 6 5 8 8 10 12 15 14 14 14 14 16 17 19 19 19 19 18 16 14 15 15 10
10 9 10 9 11 15 18 19 21 20 17 15 16 16 13 12 12 10 4 4 3 3 3 7 8 10 12 14 15 14 15 16 17 15 15 16 15 14 14 14 11 7 4 3
12 12 11 12 15 19 22 22 22 21 17 14 15 15 11 9 9 7 3 4 2 1 3 4 4 4 5 7 9 9 9 8 9 11 12 13 13 12 10 8 6 5 6 6
13 13 11 13 17 20 22 22 23 20 19 16 14 12 10 7 7 5 5 3 4 2 4 5 5 4 4 4 6 7 8 9 11 11 11 10 8 7 6 6 8 7 6 5
14 14 16 19 21 20 23 21 21 19 17 15 14 11 9 7 5 5 5 5 5 5 6 7 7 7 7 6 5 6 7 8 8 9 8 9 7 7 7 7 6 6 5 5
14 16 18 19 20 22 22 19 17 18 17 16 14 12 10 9 8 8 8 8 7 9 10 9 9 9 8 7 8 8 8 8 8 7 6 6 7 7 6 5 5 5 5 7
23 25 25 25 25 24 24 22 19 18 17 17 17 14 12 11 11 10 10 10 9 11 12 12 12 11 10 9 10 10 9 8 8 8 8 7 6 4 5 5 6 7 7 9
30 32 33 33 32 30 28 26 24 21 20 19 17 16 14 12 12 12 12 12 13 12 12 12 12 11 11 11 12 12 11 11 11 10 9 8 8 6 6 7 7 8 9 10
35 36 35 34 32 31 29 27 26 23 22 20 18 16 16 15 14 13 13 13 13 13 12 11 11 10 10 12 13 12 12 12 11 10 8 7 7 7 7 8 9 10 11 12
34 34 33 32 30 29 27 26 24 22 20 20 18 16 17 17 16 14 13 13 12 12 12 12 11 12 12 12 11 11 11 11 10 9 7 7 8 8 9 9 10 10 12 13
29 27 26 25 22 20 21 20 18 18 17 16 15 14 14 14 13 13 12 12 12 11 11 12 11 10 10 11 12 12 11 10 8 6 5 6 7 8 9 10 11 12 14 15

GFSNGP_700_spd_117.txt.gz
Wind_Speed
19 17 18 19 22 22 19 17 12 23 25 28 26 33 37 37 35 24 24 28 24 32 33 24 10 11 13 24 31 32 30 26 26 22 21 17 15 15 13 12 12 12 11 12
15 16 21 20 25 28 28 27 29 31 33 29 30 32 34 35 29 24 22 21 20 29 25 10 4 5 13 21 31 32 30 27 28 25 23 19 17 17 15 13 11 10 9 10
21 14 12 13 27 26 27 29 28 24 25 26 32 29 24 26 24 20 18 20 19 26 24 25 18 4 12 21 33 32 27 30 31 27 23 20 18 18 16 14 12 10 9 8
12 7 10 18 22 15 16 17 19 23 27 31 33 30 26 25 19 17 20 19 20 18 18 22 30 20 14 18 31 35 30 32 33 30 26 23 21 18 17 16 14 12 11 10
8 11 16 21 20 19 22 23 21 25 27 29 29 27 27 24 20 18 22 21 23 19 25 17 25 27 10 13 29 36 32 34 34 31 28 25 23 20 18 18 17 15 14 13
12 6 5 2 5 2 6 18 13 17 25 15 13 16 13 15 17 21 23 22 21 17 22 19 23 24 20 8 27 32 30 32 32 30 27 26 24 22 21 20 20 19 19 18
29 10 8 9 10 15 8 8 16 19 4 5 10 12 9 9 10 12 15 17 18 17 18 14 18 20 12 15 21 25 35 33 29 27 25 25 23 23 24 23 22 21 21 20
7 8 7 7 2 2 6 15 19 15 13 4 1 6 5 6 11 14 15 19 19 22 21 17 15 19 11 10 9 20 28 33 29 24 23 23 21 19 22 24 25 24 22 22
6 7 8 8 11 13 12 21 3 4 5 7 10 7 7 7 10 11 12 14 16 19 22 22 17 17 12 9 8 8 21 28 32 29 29 29 19 21 24 25 25 22 20 17
8 12 11 11 16 17 12 11 2 5 6 8 10 12 11 10 11 11 12 13 12 17 20 19 19 17 14 10 10 19 7 14 22 43 53 51 35 32 21 20 21 18 15 14
18 21 7 3 9 10 9 9 10 7 1 6 9 10 13 14 8 10 11 12 15 18 18 14 15 16 14 15 17 19 22 21 5 20 27 38 34 23 18 25 10 17 11 14
17 24 23 22 19 15 8 2 4 3 1 4 8 11 13 16 9 11 12 13 16 17 16 9 10 12 13 14 19 21 21 19 20 23 25 20 19 21 23 21 19 23 25 24
21 13 18 15 15 17 16 16 13 9 7 11 12 13 13 14 12 14 15 15 14 17 14 8 7 8 8 11 12 19 22 23 23 23 34 25 18 21 23 28 31 31 32 27
21 18 14 16 16 15 15 14 13 13 11 13 16 16 16 16 16 14 13 12 12 16 16 9 12 10 8 10 9 10 18 20 24 21 23 17 20 27 28 25 25 17 26 23
24 20 18 16 14 15 16 16 15 15 15 16 17 17 16 16 15 14 13 9 11 15 16 11 8 13 11 10 11 11 9 12 21 22 21 20 19 18 18 19 18 15 14 14
10 9 11 12 14 15 16 17 18 18 18 18 17 16 13 12 12 12 12 8 9 13 14 12 7 9 13 12 15 13 11 12 11 15 18 18 19 17 17 14 14 14 16 18
8 8 9 12 10 13 15 18 18 18 17 16 13 11 11 9 9 9 8 7 7 8 8 8 9 5 2 7 13 15 16 14 15 14 14 15 16 17 19 19 17 17 17 18
9 9 9 9 9 12 16 19 20 19 16 15 12 12 12 9 6 5 3 4 5 3 3 4 6 9 10 11 10 8 10 11 13 15 17 18 19 19 18 17 16 16 16 14
9 11 11 10 12 15 19 20 23 22 20 14 14 12 10 7 5 2 1 1 1 1 1 1 2 4 5 6 9 10 10 11 12 12 14 15 15 15 17 17 16 14 10 8
13 15 14 13 15 18 20 21 23 21 20 18 13 12 10 6 5 4 4 4 3 3 4 3 2 2 4 5 6 5 5 6 8 9 11 14 16 15 14 11 10 8 8 9
17 15 14 15 18 19 20 21 21 20 19 18 16 13 10 7 5 5 5 4 4 5 7 7 6 5 4 4 3 3 3 5 7 10 12 13 13 11 10 9 8 9 9 8
19 19 21 22 23 23 23 23 22 21 19 18 16 14 11 9 8 8 7 7 6 7 9 9 9 8 7 6 6 6 8 9 10 10 9 7 8 8 7 8 8 8 7 7
24 25 27 29 30 30 29 26 24 22 20 19 17 16 14 11 9 9 9 9 9 9 10 11 11 10 9 9 9 9 9 9 8 7 7 7 8 8 8 8 8 7 7 7
33 34 34 34 33 32 30 28 26 23 21 19 18 17 15 13 11 10 10 11 11 11 11 11 11 9 9 9 10 10 9 9 9 10 9 10 9 8 7 7 7 7 6 7
35 36 36 36 35 32 30 28 26 24 22 19 17 17 15 15 15 13 12 11 12 12 12 12 11 11 10 10 10 10 11 12 13 12 11 10 9 8 8 7 6 8 9 8
34 33 32 30 28 26 23 22 21 20 19 18 17 16 15 15 16 16 14 13 12 12 12 13 12 11 11 11 12 12 12 11 11 11 10 10 9 8 8 8 9 9 8 9
25 25 25 24 23 21 18 16 15 14 14 14 14 12 12 13 13 13 13 13 12 12 12 12 12 11 10 10 11 11 12 12 11 11 10 9 8 8 7 7 8 8 9 10

GFSNGP_700_spd_120.txt.gz
Wind_Speed
18 22 18 18 17 15 13 13 15 18 17 18 17 20 22 26 26 29 29 23 23 23 18 22 26 26 28 24 21 28 27 32 38 33 28 25 24 23 21 19 15 16 20 22
19 20 18 21 21 21 18 19 21 23 25 20 21 20 20 22 21 25 20 19 20 18 16 20 24 26 22 26 19 25 26 36 36 33 29 26 24 24 21 18 15 14 17 16
18 14 17 19 25 23 24 22 21 23 25 25 23 22 24 24 21 19 18 20 19 16 16 17 19 25 17 26 14 23 28 35 35 32 31 27 25 25 23 19 16 14 13 11
17 13 12 17 15 14 15 17 18 21 24 25 24 25 25 21 19 20 22 20 20 19 19 21 21 24 23 20 10 24 32 32 33 34 33 28 27 26 25 22 18 15 12 10
14 15 17 22 10 12 15 19 17 21 20 24 29 29 23 18 21 23 21 21 21 22 21 23 20 24 20 23 14 19 32 35 34 36 34 31 29 28 26 24 21 18 15 12
16 7 4 7 5 8 7 17 9 19 20 26 26 18 12 14 14 17 19 20 21 24 22 23 21 18 17 28 28 13 28 36 39 39 36 32 32 30 27 26 24 22 19 17
22 14 10 10 13 11 11 9 14 23 24 12 3 13 12 12 13 13 13 15 18 21 22 23 22 18 18 22 26 16 24 33 38 42 36 35 35 32 29 27 25 24 23 21
3 5 3 7 8 2 6 13 17 18 14 3 5 9 6 4 5 9 13 15 19 21 24 27 26 23 18 19 17 11 20 25 35 36 35 37 35 33 31 28 27 25 25 24
8 12 10 16 18 16 15 14 19 16 12 11 8 7 8 11 11 13 14 14 14 16 19 25 25 24 19 15 12 18 15 26 31 40 37 37 35 33 30 28 26 25 25 25
16 16 12 9 7 14 15 15 19 16 11 9 11 11 12 11 15 13 13 13 14 16 21 22 19 18 14 11 13 15 7 16 25 37 43 36 34 31 25 23 21 21 24 24
22 24 18 23 9 5 5 7 11 8 3 5 7 11 13 14 14 10 12 13 15 18 20 20 14 11 10 12 14 12 13 7 21 31 37 38 30 24 21 20 19 26 23 23
18 20 20 21 18 15 14 16 8 3 2 5 9 12 14 15 15 13 14 15 17 18 19 17 10 6 5 9 14 16 9 12 16 11 25 35 38 35 32 27 27 29 27 21
24 23 19 18 19 13 11 12 12 12 9 9 11 14 15 17 17 16 14 14 15 16 18 19 10 7 4 3 8 17 13 11 13 25 23 29 30 31 39 29 26 25 25 27
24 20 14 13 12 13 14 13 13 14 15 17 17 16 17 16 17 17 16 16 13 15 19 19 12 8 7 5 7 6 18 15 14 11 24 20 24 27 28 28 29 34 35 30
15 12 11 11 13 14 13 14 15 16 17 17 18 18 15 15 14 15 15 15 13 14 17 19 14 6 8 6 4 7 8 18 15 11 18 22 20 25 29 25 25 25 24 25
15 12 11 12 10 12 14 16 17 18 18 18 19 16 13 13 12 11 12 11 12 13 15 18 18 9 5 7 6 8 12 14 14 13 11 9 13 15 15 15 15 15 17 19
12 12 12 12 11 12 14 17 20 21 21 19 18 17 15 13 10 9 8 9 9 10 12 15 17 16 9 1 4 8 10 12 14 13 13 13 12 13 15 17 19 21 22 20
11 11 12 13 12 13 16 19 20 21 20 19 17 17 16 14 8 7 6 6 6 5 7 8 10 13 14 12 9 5 6 10 12 14 15 16 17 18 17 16 16 17 17 18
9 12 13 14 13 14 16 16 18 20 20 18 17 16 15 13 8 6 6 5 5 4 3 5 5 7 8 9 11 14 14 12 12 14 15 16 17 18 18 18 17 18 18 18
9 12 14 13 13 15 18 19 19 19 20 20 17 15 13 12 10 7 6 6 6 6 4 3 2 4 5 6 7 8 9 10 10 11 12 13 14 14 14 16 17 17 16 13
15 18 19 19 21 22 23 23 23 24 23 21 20 17 13 11 10 9 8 7 6 6 6 5 3 1 1 2 3 3 4 5 6 7 8 10 13 15 17 16 15 12 10 10
21 22 23 24 25 27 29 29 29 27 25 23 20 18 16 13 10 9 9 9 8 8 8 8 8 6 5 4 3 3 3 4 5 7 8 10 11 12 11 10 9 9 10 10
25 27 30 32 33 32 32 31 30 28 25 22 21 20 18 16 13 11 11 9 9 9 9 10 10 10 10 9 8 7 8 8 9 10 9 9 8 8 8 9 11 12 12 11
32 34 34 35 36 36 36 34 33 30 28 25 24 22 20 18 16 13 11 11 10 10 10 11 12 12 12 11 10 10 10 10 9 9 8 8 9 11 12 11 11 11 10 10
33 34 35 35 33 31 29 27 25 24 25 24 23 23 21 19 17 16 14 13 11 11 12 12 13 13 13 12 12 12 12 11 11 12 11 12 12 12 12 12 11 11 11 11
31 30 28 26 25 24 23 21 20 19 19 19 19 20 20 18 17 17 16 15 14 13 13 13 13 13 13 13 14 14 14 14 14 15 14 14 13 12 12 12 12 12 12 12
23 22 21 20 20 19 18 15 13 13 12 12 13 14 15 16 15 15 15 14 14 14 13 12 13 13 13 13 14 14 14 14 15 15 15 14 14 14 13 12 12 11 11 11

GFSNGP_700_spd_126.txt.gz
Wind_Speed
23 25 24 21 21 19 17 17 16 20 19 23 17 9 3 7 9 6 8 9 11 7 14 22 31 35 36 28 27 28 29 25 22 22 24 31 35 37 38 38 33 30 27 24
17 19 22 23 21 21 22 20 19 17 20 14 16 5 5 8 6 7 9 10 10 16 24 31 34 34 32 27 29 30 28 28 23 22 23 26 32 36 39 38 35 31 27 25
15 17 23 22 16 18 19 18 19 15 18 14 16 8 3 7 9 11 12 14 18 27 30 32 35 32 31 30 29 31 29 28 25 22 26 27 33 36 37 39 36 30 26 23
20 17 11 15 12 16 12 10 11 14 15 13 4 6 17 23 23 17 15 23 28 33 34 34 35 33 32 31 28 30 28 27 28 23 27 27 33 35 35 40 35 29 27 23
8 13 18 13 7 11 13 12 14 12 12 15 17 17 17 23 22 24 22 25 27 30 32 35 36 33 32 30 27 28 27 24 27 26 27 31 32 35 39 39 33 30 26 22
11 7 4 15 9 12 12 11 10 12 14 20 19 21 23 23 20 22 23 26 26 29 30 30 27 27 28 27 27 26 26 26 27 27 28 35 35 38 41 38 33 30 27 24
7 8 3 24 24 14 5 14 17 22 22 18 12 10 8 7 10 14 17 19 23 25 24 25 25 25 26 25 26 27 29 29 27 28 26 37 38 38 41 39 34 31 28 26
12 10 6 32 20 15 17 18 21 22 18 7 10 9 10 11 12 15 19 18 20 20 23 24 24 24 25 24 25 26 30 30 27 26 28 37 40 39 41 37 35 32 29 29
10 11 19 14 21 18 17 15 19 19 5 6 8 10 12 13 14 15 18 19 17 19 22 22 22 22 23 24 23 25 26 28 25 25 31 34 38 39 40 39 34 32 33 31
14 13 20 11 18 18 19 16 11 9 9 9 10 11 14 17 18 18 19 18 19 22 22 21 20 21 24 24 25 23 21 22 22 24 26 31 41 44 47 40 35 34 33 32
13 22 17 13 17 18 20 19 16 15 15 14 15 16 18 20 21 21 21 21 20 20 22 20 19 21 22 28 21 19 17 16 16 15 20 31 43 44 42 47 38 43 31 30
18 22 17 16 16 16 16 16 16 16 16 17 18 18 20 22 22 21 21 20 20 21 19 21 20 19 25 24 17 15 13 13 15 16 19 19 40 46 49 51 41 42 36 33
21 19 13 14 13 12 13 15 17 18 20 23 23 21 22 22 21 21 20 19 19 19 18 18 20 20 22 14 11 10 12 14 14 18 23 13 22 37 46 46 49 41 45 31
18 16 12 11 12 12 13 16 19 21 22 22 24 22 23 22 22 20 18 16 16 16 16 17 18 18 16 11 10 11 11 11 8 15 17 8 12 24 36 45 44 47 47 43
16 14 13 13 12 14 14 15 18 20 20 22 23 24 23 24 22 19 16 15 13 14 16 17 20 19 15 10 8 7 7 5 6 7 9 8 2 10 22 32 41 48 45 45
12 11 11 11 13 14 14 15 16 17 18 21 23 25 26 26 25 21 17 15 13 12 15 17 19 20 17 12 8 6 6 5 2 3 4 3 4 2 4 12 20 25 32 35
10 9 10 11 13 14 14 15 16 18 21 23 24 25 26 26 25 23 20 16 15 14 14 16 18 19 20 17 12 8 6 4 2 4 4 4 5 7 10 10 13 17 17 18
11 11 12 13 14 15 17 19 21 23 24 24 25 25 26 25 24 23 20 18 16 15 13 14 14 16 17 19 17 13 9 6 4 5 7 8 9 7 7 9 10 10 12 15
13 13 15 16 18 21 22 24 26 26 27 28 28 27 26 24 23 21 19 17 15 14 12 10 11 12 14 16 16 17 16 14 11 9 9 10 10 10 10 10 10 12 12 14
13 15 18 21 23 24 26 28 29 31 31 32 31 30 27 25 22 21 18 16 14 12 11 8 8 9 10 11 12 13 14 15 14 12 11 10 10 9 9 9 9 9 10 11
18 20 22 24 27 29 31 32 33 33 34 34 33 32 29 26 22 19 18 17 14 12 9 7 6 6 6 7 7 7 7 8 8 8 8 8 7 7 7 7 7 8 9 10
22 24 25 29 31 33 33 34 36 36 36 34 33 31 29 27 23 20 17 15 14 12 10 8 8 7 5 4 4 4 4 4 3 2 2 2 2 2 3 4 5 7 8 10
28 30 32 32 34 35 36 35 35 34 32 29 27 25 24 24 24 21 16 15 12 12 10 9 9 9 8 7 4 3 3 4 3 2 1 1 2 3 5 6 8 9 10 9
31 32 33 32 33 33 32 30 30 27 26 25 23 22 21 22 18 18 17 15 13 12 11 10 10 10 10 10 9 8 5 3 3 3 4 4 6 8 9 9 9 8 8 9
30 31 31 31 29 27 25 24 24 23 22 22 21 19 17 17 16 14 15 14 13 12 11 11 10 11 10 10 9 8 7 6 6 7 7 7 7 7 7 6 6 6 7 7
28 27 26 23 21 20 19 20 21 21 20 18 17 15 13 12 11 11 11 12 12 12 12 10 10 10 10 10 10 10 10 9 9 8 9 8 8 9 9 9 9 9 10 11
22 19 17 16 15 16 18 19 20 21 20 18 16 14 11 10 9 8 8 10 10 11 11 11 10 9 9 9 9 9 10 10 10 10 10 10 10 11 12 12 11 11 11 11

GFSNGP_700_spd_129.txt.gz
Wind_Speed
15 19 21 20 24 19 17 19 15 21 15 17 25 22 11 6 3 7 3 4 4 8 12 12 19 23 25 31 34 37 37 33 31 27 23 24 25 30 34 38 39 37 37 34
24 14 16 17 16 17 13 17 20 19 14 13 16 9 10 11 7 3 4 4 8 11 17 20 19 23 27 32 35 38 38 33 31 29 26 22 20 24 31 37 38 37 39 36
11 14 20 8 7 11 16 10 10 9 6 6 7 8 4 9 10 11 13 15 17 17 19 24 27 30 32 35 37 39 38 32 29 30 28 24 23 23 29 36 38 36 39 37
11 12 2 4 12 7 4 12 7 4 4 5 7 10 12 16 17 19 21 24 24 27 32 35 34 36 38 38 36 35 35 30 28 28 27 24 22 24 31 31 35 35 37 38
3 6 13 15 14 12 15 14 16 14 12 9 12 15 17 21 25 26 28 31 32 33 35 36 36 36 36 35 32 30 28 28 28 27 27 25 21 27 28 33 36 38 36 38
3 3 3 23 22 11 11 3 12 20 17 12 13 10 15 20 24 26 26 23 23 26 27 30 30 27 26 27 25 25 24 27 28 28 27 26 26 24 37 34 38 40 36 36
14 5 3 22 28 1 6 10 14 16 15 13 9 7 7 4 4 6 10 14 18 20 25 24 22 21 23 26 25 25 27 27 28 30 30 29 28 22 41 39 34 38 38 36
10 7 5 25 21 20 14 8 7 6 6 5 4 6 6 8 9 10 12 14 16 16 20 24 26 25 24 26 26 26 29 30 30 31 32 30 29 25 36 38 38 44 41 37
10 7 20 14 17 16 14 10 8 10 8 8 8 9 10 11 12 14 15 17 18 19 20 22 23 25 24 24 25 26 28 31 28 28 31 28 29 27 31 44 47 42 38 38
11 9 16 9 15 15 15 14 12 12 12 13 13 14 16 18 21 21 21 22 22 21 22 23 24 25 25 26 28 30 32 36 26 26 22 25 24 28 31 45 49 42 40 42
13 17 11 9 14 15 14 14 14 14 16 17 16 15 16 18 20 21 20 21 22 22 23 23 24 24 27 30 32 32 30 26 21 17 19 22 22 24 26 36 49 47 39 41
16 18 13 11 13 11 13 14 16 18 19 19 21 21 20 21 21 20 19 18 19 20 22 23 23 25 29 29 26 29 23 20 18 15 16 20 21 22 23 35 45 42 41 48
16 16 12 10 10 9 11 14 17 20 21 20 21 22 23 23 23 23 22 19 18 18 19 20 22 23 25 24 21 20 17 15 16 17 17 22 23 17 20 33 43 46 39 43
16 15 13 12 13 13 13 14 18 18 18 21 23 24 25 26 26 25 23 19 17 17 18 21 23 23 25 22 18 15 14 14 14 12 17 15 18 14 15 27 41 49 51 47
15 15 12 12 13 14 14 13 14 15 17 19 21 23 24 26 26 26 24 21 19 19 20 21 22 25 26 24 16 12 10 9 10 10 11 9 9 6 8 15 27 37 47 53
15 12 11 11 12 12 13 12 13 15 18 19 21 22 24 25 25 25 24 22 19 18 18 19 21 22 24 25 19 12 9 7 6 7 6 3 6 6 2 4 13 24 32 39
11 10 11 12 13 14 15 17 18 20 21 22 22 23 24 25 25 24 24 22 21 19 18 18 19 20 22 23 22 16 12 9 6 4 2 4 6 8 7 1 4 10 17 22
11 11 12 14 15 17 19 20 22 23 24 25 25 26 26 25 24 23 22 21 20 18 17 15 15 17 19 20 21 20 17 14 11 9 8 8 10 10 8 4 6 11 15 17
11 12 14 16 19 21 23 26 27 29 30 30 30 30 29 27 25 22 21 20 18 16 15 14 13 14 15 16 17 18 18 17 15 14 14 15 15 15 14 13 12 10 13 16
13 15 18 21 23 25 27 29 29 30 31 31 32 33 32 29 26 24 19 18 16 14 13 12 10 10 11 12 13 14 14 15 15 15 14 14 14 14 14 13 12 11 13 14
17 20 22 25 27 29 29 31 32 33 33 34 32 30 28 26 24 23 20 17 15 12 12 11 10 9 8 9 9 10 10 10 10 11 11 11 11 11 11 11 10 9 9 9
20 23 26 29 30 31 32 32 33 33 32 31 28 27 25 22 20 19 19 17 15 13 11 10 9 9 8 8 8 7 7 7 7 6 6 6 6 7 7 7 7 5 6 7
26 29 30 30 31 32 32 31 29 28 27 26 25 25 23 20 17 17 16 15 14 13 11 10 10 9 9 8 8 7 8 7 5 4 3 3 3 4 3 3 3 5 6 9
30 32 32 31 30 28 27 26 25 24 23 22 21 21 21 20 13 13 13 12 12 13 12 10 10 9 9 8 8 8 7 6 5 3 2 2 1 0 1 2 3 4 6 7
31 31 29 26 22 20 20 20 20 21 22 21 20 18 18 16 13 11 9 9 10 11 11 10 10 9 9 9 9 8 7 6 5 5 3 2 1 1 2 3 4 4 5 6
27 26 23 19 16 16 17 18 19 19 20 20 21 19 17 15 12 9 7 7 8 8 9 9 9 9 8 8 8 8 8 7 7 7 7 6 5 4 4 5 6 7 6 6
22 19 17 15 15 15 16 17 17 17 18 18 19 18 16 14 12 9 7 6 5 6 7 7 8 8 9 9 9 9 8 8 9 8 8 8 8 8 9 8 8 8 9 9